[[{"header":{"parameterUnit":"m.s-1","parameterCategory":1,"la1":30.6,"la2":29.2853,"lo1":-89.7004,"lo2":-87.6739,"dx":0.0162,"dy":0.0183,"nx":112,"ny":82,"refTime":"2022-11-09T18:00:00:Z","depth":0,"parameterNumber":2,"parameterNumberName":"U-component_of_WINDS"},"data":[0.0,0.0,0.0,0.0,0.0,0.0,0.0,0.0,0.0,0.0,0.0,0.0,0.0,0.0,0.0,0.0,0.0,0.0,0.0,0.0,0.0,0.0,0.0,0.0,0.0,0.0,0.0,0.0,0.0,0.0,0.0,0.0,0.0,0.0,0.0,0.0,0.0,0.0,0.0,0.0,0.0,0.0,0.0,0.0,0.0,0.0,0.0,0.0,0.0,0.0,0.0,0.0,0.0,0.0,0.0,0.0,0.0,0.0,0.0,0.0,0.0,0.0,0.0,0.0,0.0,0.0,0.0,0.0,0.0,0.0,0.0,0.0,0.0,0.0,0.0,0.0,0.0,0.0,0.0,0.0,0.0,0.0,0.0,0.0,0.0,0.0,0.0,0.0,0.0,0.0,4.4255,4.7089,4.9169,4.98,4.8438,4.7189,4.4775,4.0816,0.0,0.0,0.0,0.0,0.0,0.0,0.0,0.0,0.0,0.0,0.0,0.0,0.0,0.0,0.0,0.0,0.0,0.0,0.0,0.0,0.0,0.0,0.0,0.0,0.0,0.0,0.0,0.0,0.0,0.0,0.0,0.0,0.0,0.0,0.0,0.0,0.0,0.0,0.0,0.0,0.0,0.0,0.0,0.0,0.0,0.0,0.0,0.0,0.0,0.0,0.0,0.0,0.0,0.0,0.0,0.0,0.0,0.0,0.0,0.0,0.0,0.0,0.0,0.0,0.0,0.0,0.0,0.0,0.0,0.0,0.0,0.0,0.0,0.0,0.0,0.0,0.0,0.0,0.0,0.0,0.0,0.0,0.0,0.0,0.0,0.0,0.0,0.0,0.0,0.0,0.0,0.0,0.0,0.0,0.0,0.0,0.0,0.0,0.0,0.0,0.0,0.0,0.0,0.0,4.6959,5.019,5.0837,5.0301,4.8468,4.7578,4.5454,4.1493,0.0,0.0,0.0,0.0,0.0,0.0,0.0,0.0,0.0,0.0,0.0,0.0,0.0,0.0,0.0,0.0,0.0,0.0,0.0,0.0,0.0,0.0,0.0,0.0,0.0,0.0,0.0,0.0,0.0,0.0,0.0,0.0,0.0,0.0,0.0,0.0,0.0,0.0,0.0,0.0,0.0,0.0,0.0,0.0,0.0,0.0,0.0,0.0,0.0,0.0,0.0,0.0,0.0,0.0,0.0,0.0,0.0,0.0,0.0,0.0,0.0,0.0,0.0,0.0,0.0,0.0,0.0,0.0,0.0,0.0,0.0,0.0,0.0,0.0,0.0,0.0,0.0,0.0,0.0,0.0,0.0,0.0,0.0,0.0,0.0,0.0,0.0,0.0,0.0,0.0,0.0,0.0,0.0,0.0,0.0,0.0,0.0,0.0,0.0,0.0,0.0,0.0,0.0,4.5889,4.9561,5.2492,5.2187,5.1229,4.9972,4.7983,4.5177,4.1381,3.9894,0.0,0.0,0.0,0.0,0.0,0.0,0.0,0.0,0.0,0.0,0.0,0.0,0.0,0.0,0.0,0.0,0.0,0.0,0.0,0.0,0.0,0.0,0.0,0.0,0.0,0.0,0.0,0.0,0.0,0.0,0.0,0.0,0.0,0.0,0.0,0.0,0.0,0.0,0.0,0.0,0.0,0.0,0.0,0.0,0.0,0.0,0.0,0.0,0.0,0.0,0.0,0.0,0.0,0.0,0.0,0.0,0.0,0.0,0.0,0.0,0.0,0.0,0.0,0.0,0.0,0.0,0.0,0.0,0.0,0.0,0.0,0.0,0.0,0.0,0.0,0.0,0.0,0.0,0.0,0.0,0.0,0.0,0.0,0.0,0.0,0.0,0.0,0.0,0.0,0.0,0.0,0.0,0.0,0.0,0.0,0.0,0.0,0.0,0.0,0.0,0.0,0.0,4.9028,5.1505,5.3743,5.2905,5.1739,5.0597,4.8389,4.5247,4.0891,3.9335,0.0,0.0,0.0,0.0,0.0,0.0,0.0,0.0,0.0,0.0,0.0,0.0,0.0,0.0,0.0,0.0,0.0,0.0,0.0,0.0,0.0,0.0,0.0,0.0,0.0,0.0,0.0,0.0,0.0,0.0,0.0,0.0,0.0,0.0,0.0,0.0,0.0,0.0,0.0,0.0,0.0,0.0,0.0,0.0,0.0,0.0,0.0,0.0,0.0,0.0,0.0,0.0,0.0,0.0,0.0,0.0,0.0,0.0,0.0,0.0,0.0,0.0,0.0,0.0,0.0,0.0,0.0,0.0,0.0,0.0,0.0,0.0,0.0,0.0,0.0,0.0,0.0,0.0,0.0,0.0,0.0,0.0,0.0,0.0,0.0,0.0,0.0,0.0,0.0,0.0,0.0,0.0,0.0,0.0,0.0,0.0,0.0,0.0,0.0,0.0,0.0,0.0,5.0076,5.2366,5.3198,5.2636,5.1172,4.863,4.882,4.6431,4.0176,3.9849,0.0,0.0,0.0,0.0,0.0,0.0,0.0,0.0,0.0,0.0,0.0,0.0,0.0,0.0,0.0,0.0,0.0,0.0,0.0,0.0,0.0,0.0,0.0,0.0,0.0,0.0,0.0,0.0,0.0,0.0,0.0,0.0,0.0,0.0,0.0,0.0,0.0,0.0,0.0,0.0,0.0,0.0,0.0,0.0,0.0,0.0,0.0,0.0,0.0,0.0,0.0,0.0,0.0,0.0,0.0,0.0,0.0,0.0,0.0,0.0,0.0,0.0,0.0,0.0,0.0,0.0,0.0,0.0,0.0,0.0,0.0,0.0,0.0,0.0,0.0,0.0,0.0,0.0,0.0,0.0,0.0,0.0,0.0,0.0,0.0,0.0,0.0,0.0,0.0,0.0,0.0,0.0,0.0,0.0,0.0,0.0,0.0,0.0,0.0,0.0,0.0,0.0,4.9172,5.1355,5.2456,5.2336,5.1267,4.8995,4.7969,4.517,3.9789,0.0,0.0,0.0,0.0,0.0,0.0,0.0,0.0,0.0,0.0,0.0,0.0,0.0,0.0,0.0,0.0,0.0,0.0,0.0,0.0,0.0,0.0,0.0,0.0,0.0,0.0,0.0,0.0,0.0,0.0,0.0,0.0,0.0,0.0,0.0,0.0,0.0,0.0,0.0,0.0,0.0,0.0,0.0,0.0,0.0,0.0,0.0,0.0,0.0,0.0,0.0,0.0,0.0,0.0,0.0,0.0,0.0,0.0,0.0,0.0,0.0,0.0,0.0,0.0,0.0,0.0,0.0,0.0,0.0,0.0,0.0,0.0,0.0,0.0,0.0,0.0,0.0,0.0,0.0,0.0,0.0,0.0,0.0,0.0,0.0,0.0,0.0,0.0,0.0,0.0,0.0,0.0,0.0,0.0,0.0,0.0,0.0,0.0,0.0,0.0,0.0,0.0,4.642,4.9262,5.1565,5.2725,5.2218,5.1018,4.9006,4.743,4.435,3.9199,0.0,0.0,0.0,0.0,0.0,0.0,0.0,0.0,0.0,0.0,0.0,0.0,0.0,0.0,0.0,0.0,0.0,0.0,0.0,0.0,0.0,0.0,0.0,0.0,0.0,0.0,0.0,0.0,0.0,0.0,0.0,0.0,0.0,0.0,0.0,0.0,0.0,0.0,0.0,0.0,0.0,0.0,0.0,0.0,0.0,0.0,0.0,0.0,0.0,0.0,0.0,0.0,0.0,0.0,0.0,0.0,0.0,0.0,0.0,0.0,0.0,0.0,0.0,0.0,0.0,0.0,0.0,0.0,0.0,0.0,0.0,0.0,0.0,0.0,0.0,0.0,0.0,0.0,0.0,0.0,0.0,0.0,0.0,0.0,0.0,0.0,0.0,0.0,0.0,0.0,0.0,0.0,0.0,0.0,0.0,0.0,0.0,0.0,0.0,0.0,0.0,0.0,4.7219,5.0774,5.3443,5.4107,5.2259,5.0215,4.8244,4.7403,4.4419,0.0,0.0,0.0,0.0,0.0,0.0,0.0,0.0,0.0,0.0,0.0,0.0,0.0,0.0,0.0,0.0,0.0,0.0,0.0,0.0,0.0,0.0,0.0,0.0,0.0,0.0,0.0,0.0,0.0,0.0,0.0,0.0,0.0,0.0,0.0,0.0,0.0,0.0,0.0,0.0,0.0,0.0,0.0,0.0,0.0,0.0,0.0,0.0,0.0,0.0,0.0,0.0,0.0,0.0,0.0,0.0,0.0,0.0,0.0,0.0,0.0,0.0,0.0,0.0,0.0,0.0,0.0,0.0,0.0,0.0,0.0,0.0,0.0,0.0,0.0,0.0,0.0,0.0,0.0,0.0,0.0,0.0,0.0,0.0,0.0,0.0,0.0,0.0,0.0,0.0,0.0,0.0,0.0,0.0,0.0,0.0,0.0,0.0,0.0,0.0,0.0,0.0,0.0,4.657,5.0451,5.2891,5.2041,5.1385,4.9942,4.7324,4.657,4.423,3.9498,0.0,0.0,0.0,0.0,0.0,0.0,0.0,0.0,0.0,0.0,0.0,0.0,0.0,0.0,0.0,0.0,0.0,0.0,0.0,0.0,0.0,0.0,0.0,0.0,0.0,0.0,0.0,0.0,0.0,0.0,0.0,0.0,0.0,0.0,0.0,0.0,0.0,0.0,0.0,0.0,0.0,0.0,0.0,0.0,0.0,0.0,0.0,0.0,0.0,0.0,0.0,0.0,0.0,0.0,0.0,0.0,0.0,0.0,0.0,0.0,0.0,0.0,0.0,0.0,0.0,0.0,0.0,0.0,0.0,0.0,0.0,0.0,0.0,0.0,0.0,0.0,0.0,0.0,0.0,0.0,0.0,0.0,0.0,0.0,0.0,0.0,0.0,0.0,0.0,0.0,0.0,0.0,0.0,0.0,0.0,0.0,0.0,0.0,0.0,0.0,0.0,0.0,4.6659,5.0223,5.2473,5.1863,5.0736,4.92,4.7245,4.6046,4.3955,4.0553,0.0,0.0,0.0,0.0,0.0,0.0,0.0,0.0,0.0,0.0,0.0,0.0,0.0,0.0,0.0,0.0,0.0,0.0,0.0,0.0,0.0,0.0,0.0,0.0,0.0,0.0,0.0,0.0,0.0,0.0,0.0,0.0,0.0,0.0,0.0,0.0,0.0,0.0,0.0,0.0,0.0,0.0,0.0,0.0,0.0,0.0,0.0,0.0,0.0,0.0,0.0,0.0,0.0,0.0,0.0,0.0,0.0,0.0,0.0,0.0,0.0,0.0,0.0,0.0,0.0,0.0,0.0,0.0,0.0,0.0,0.0,0.0,0.0,0.0,0.0,0.0,0.0,0.0,0.0,0.0,0.0,0.0,0.0,0.0,0.0,0.0,0.0,0.0,0.0,0.0,0.0,0.0,0.0,0.0,0.0,0.0,0.0,0.0,0.0,0.0,0.0,0.0,4.7195,5.0111,5.2225,5.256,5.0128,4.8234,4.7593,4.5783,4.3761,4.1603,0.0,0.0,0.0,0.0,0.0,0.0,0.0,0.0,0.0,0.0,0.0,0.0,0.0,0.0,0.0,0.0,0.0,0.0,0.0,0.0,0.0,0.0,0.0,0.0,0.0,0.0,0.0,0.0,0.0,0.0,0.0,0.0,0.0,0.0,0.0,0.0,0.0,0.0,0.0,0.0,0.0,0.0,0.0,0.0,0.0,0.0,0.0,0.0,0.0,0.0,0.0,0.0,0.0,0.0,0.0,0.0,0.0,0.0,0.0,0.0,3.3345,3.304,0.0,0.0,0.0,0.0,0.0,0.0,0.0,0.0,0.0,0.0,0.0,0.0,0.0,0.0,0.0,0.0,0.0,0.0,0.0,0.0,0.0,0.0,0.0,0.0,0.0,0.0,0.0,0.0,0.0,0.0,0.0,0.0,0.0,0.0,0.0,0.0,0.0,0.0,0.0,0.0,4.7068,5.0389,5.1938,4.9706,4.8877,4.7983,4.6696,4.583,4.4543,4.2735,4.1352,0.0,0.0,0.0,0.0,0.0,0.0,0.0,0.0,0.0,0.0,0.0,0.0,0.0,0.0,0.0,0.0,0.0,0.0,0.0,0.0,0.0,0.0,0.0,0.0,0.0,0.0,0.0,0.0,0.0,0.0,0.0,0.0,0.0,0.0,0.0,0.0,0.0,0.0,0.0,0.0,0.0,0.0,0.0,0.0,0.0,0.0,0.0,0.0,0.0,0.0,0.0,0.0,0.0,0.0,0.0,0.0,0.0,0.0,0.0,3.4474,3.4173,0.0,0.0,0.0,0.0,0.0,0.0,0.0,0.0,0.0,0.0,0.0,0.0,0.0,0.0,0.0,0.0,0.0,0.0,0.0,0.0,0.0,0.0,0.0,0.0,0.0,0.0,0.0,0.0,0.0,0.0,0.0,0.0,0.0,0.0,0.0,0.0,0.0,0.0,0.0,0.0,4.698,4.9264,5.024,4.8676,4.786,4.7116,4.6361,4.5799,4.515,4.4271,4.2381,0.0,0.0,0.0,0.0,0.0,0.0,0.0,0.0,0.0,0.0,0.0,0.0,0.0,0.0,0.0,0.0,0.0,0.0,0.0,0.0,0.0,0.0,0.0,0.0,0.0,0.0,0.0,0.0,0.0,0.0,0.0,0.0,0.0,0.0,0.0,0.0,0.0,0.0,0.0,0.0,0.0,0.0,0.0,0.0,0.0,0.0,0.0,0.0,0.0,0.0,0.0,0.0,0.0,3.4487,3.4677,3.5431,3.4983,3.547,3.6632,3.568,3.5431,3.5606,3.47,0.0,0.0,0.0,0.0,0.0,0.0,0.0,0.0,0.0,0.0,0.0,0.0,0.0,0.0,0.0,0.0,0.0,0.0,0.0,0.0,0.0,0.0,3.7637,3.8642,3.9271,3.9245,3.7838,0.0,0.0,0.0,0.0,0.0,0.0,0.0,0.0,0.0,0.0,0.0,4.7202,4.8001,4.8387,4.8152,4.7027,4.6301,4.6301,4.5899,4.5598,4.5497,4.3338,4.1904,0.0,0.0,0.0,0.0,0.0,0.0,0.0,0.0,0.0,0.0,0.0,0.0,0.0,0.0,0.0,0.0,0.0,0.0,0.0,0.0,0.0,0.0,0.0,0.0,0.0,0.0,0.0,0.0,0.0,0.0,0.0,0.0,1.098,1.2259,0.0,0.0,0.0,0.0,0.0,0.0,0.0,0.0,0.0,0.0,0.0,0.0,0.0,2.8488,2.9939,3.0863,3.178,3.2717,3.2648,3.3524,3.523,3.5182,3.6112,3.7789,3.7638,0.0,3.6256,3.613,0.0,0.0,0.0,0.0,0.0,0.0,0.0,0.0,0.0,0.0,0.0,0.0,0.0,0.0,0.0,0.0,0.0,0.0,0.0,0.0,0.0,0.0,4.1609,4.221,4.2411,4.2411,4.2185,3.9823,3.7739,3.7613,3.8551,3.9535,0.0,0.0,0.0,0.0,0.0,0.0,4.8435,4.8535,4.8006,4.6725,4.6421,4.6301,4.6301,4.625,4.5999,4.5522,4.5146,4.4292,4.2838,4.1528,0.0,0.0,0.0,0.0,0.0,0.0,0.0,0.0,0.0,0.0,0.0,0.0,0.0,0.0,0.0,0.0,0.0,0.0,0.0,0.0,0.0,0.0,0.0,0.0,0.0,0.0,0.0,0.0,0.0,0.8195,1.004,1.2157,1.2977,1.3693,0.0,0.0,0.0,0.0,0.0,0.0,0.0,0.0,0.0,2.3574,2.641,2.86,3.0013,3.0576,3.1455,3.2705,3.2705,3.326,3.4303,3.4303,3.4915,3.5999,3.5999,3.5714,3.5345,3.6406,3.6557,3.6081,0.0,0.0,0.0,0.0,3.6183,3.6558,3.7086,3.7337,3.7412,3.7412,0.0,0.0,0.0,0.0,0.0,0.0,0.0,3.9722,4.1105,4.206,4.2864,4.3689,4.389,4.389,4.389,4.276,4.1327,4.0098,4.0721,4.1258,4.0639,4.1996,0.0,0.0,0.0,4.6537,4.7377,4.7362,4.6998,4.6361,4.6301,4.6301,4.6301,4.6301,4.62,4.5974,4.5673,4.5175,4.4446,4.3011,4.153,0.0,0.0,0.0,0.0,0.0,0.0,0.0,0.0,0.0,0.0,0.0,0.0,0.0,0.0,0.0,0.0,0.0,0.0,0.0,0.0,0.0,0.0,0.0,0.0,0.0,0.0,0.0,0.0,0.8269,1.0075,1.2195,1.32,1.4228,0.0,0.0,0.0,0.0,0.0,0.0,1.8616,2.1044,2.2824,2.3684,2.6045,2.8147,2.9919,2.9919,3.0674,3.2122,3.2122,3.2546,3.3297,3.3429,3.3952,3.4771,3.4905,3.495,3.5047,3.6196,3.6575,3.6429,3.6136,3.626,3.6652,3.6776,3.7344,3.8115,3.8668,3.9145,3.9496,3.9496,3.912,3.8642,3.8642,0.0,0.0,0.0,0.0,4.1404,4.2537,4.324,4.3815,4.4644,4.4916,4.5016,4.5016,4.5016,4.4464,4.2532,4.2786,4.2994,4.195,4.3156,0.0,4.5148,4.5555,4.6116,4.6908,4.6579,4.6301,4.6301,4.6301,4.6301,4.6301,4.6301,4.6301,4.6301,4.5924,4.5698,4.5698,4.4396,4.3316,4.2612,0.0,0.0,0.0,0.0,0.0,0.0,0.0,0.0,0.0,0.0,0.0,0.0,0.0,0.0,0.0,0.0,0.0,0.0,0.0,0.0,0.0,0.0,0.0,0.0,0.0,0.0,0.0,0.0,0.0,1.154,1.4251,0.0,0.0,0.0,0.0,1.6442,1.7961,1.9595,2.1311,2.1568,2.2975,2.5837,2.6091,2.7074,2.8949,2.8968,2.9239,2.9782,2.9782,3.0732,3.2481,3.2917,3.4101,3.5848,3.6289,3.649,3.6423,3.558,3.4912,3.4477,3.4821,3.5921,3.7326,3.783,3.8982,4.0399,4.0951,4.1152,4.1202,4.1202,4.0826,4.0374,4.0374,4.04,0.0,0.0,4.2436,4.3112,4.4217,4.492,4.5372,4.5422,4.5849,4.6225,4.6225,4.6225,4.5874,4.4665,4.4497,4.4703,4.5323,0.0,4.6273,4.8268,4.7375,4.6934,4.8237,4.7154,4.6301,4.6301,4.6301,4.6301,4.6301,4.6301,4.6301,4.6301,4.6276,4.6276,4.6276,4.5673,4.4844,4.374,4.3137,0.0,0.0,0.0,0.0,0.0,0.0,0.0,0.0,0.0,0.0,0.0,0.0,0.0,0.0,0.0,0.0,0.0,0.0,0.0,0.0,0.0,0.0,0.0,0.0,0.0,0.0,0.0,0.0,1.303,1.4181,0.0,1.7718,1.7077,1.7057,1.8269,1.8915,1.9498,2.0141,2.1088,2.2188,2.3415,2.5433,2.6892,2.7743,2.8816,2.9551,3.0009,3.0302,3.0914,3.1852,3.2293,3.2709,3.3085,3.3537,3.3608,3.3332,3.3519,3.4477,3.5786,3.5936,3.6959,3.8339,3.8532,4.0102,4.2133,4.2333,4.2861,4.3435,4.3435,4.3285,4.3134,4.3134,4.3413,4.3714,4.374,4.4141,4.4723,4.507,4.5321,4.5573,4.5924,4.6175,4.6371,4.6722,4.6798,4.6798,4.6753,4.6175,4.5796,4.6043,4.6356,4.6839,4.7577,4.7529,4.7554,4.8053,4.7364,4.6798,4.6798,4.6496,4.6301,4.6301,4.6301,4.6301,4.6301,4.6301,4.6301,4.6301,4.6125,4.5673,4.4895,4.4723,4.3162,0.0,0.0,0.0,0.0,0.0,0.0,0.0,0.0,0.0,0.0,0.0,0.0,0.0,0.0,0.0,0.0,0.0,0.0,0.0,0.0,0.0,0.0,0.0,0.0,0.0,1.1805,1.364,1.4862,1.5515,1.6727,1.8852,1.818,1.8112,1.9316,1.9401,1.9441,1.9535,2.0468,2.1336,2.2141,2.4174,2.5955,2.7319,2.8575,2.968,3.0644,3.1113,3.1465,3.1758,3.2218,3.2226,3.1973,3.2589,3.2656,3.2441,3.3144,3.4439,3.5947,3.5657,3.703,3.9076,3.8366,4.0038,4.2692,4.2692,4.3532,4.4589,4.4589,4.4589,4.464,4.4815,4.5045,4.5171,4.497,4.5045,4.5146,4.497,4.5347,4.5799,4.5999,4.6451,4.6954,4.7274,4.735,4.7475,4.7832,4.733,4.6853,4.6853,4.7124,4.7299,4.7124,4.7581,4.7832,4.7626,4.7475,4.7299,4.7124,4.6772,4.6496,4.6326,4.6125,4.6125,4.6301,4.6125,4.6125,4.6301,4.5919,4.5573,4.5196,4.502,4.384,4.163,0.0,0.0,0.0,0.0,0.0,0.0,0.0,0.0,0.0,0.0,0.0,0.0,0.0,0.0,0.0,0.0,0.0,0.0,0.0,0.0,0.0,0.0,0.0,1.2201,1.4654,1.6654,1.6849,1.8381,1.9401,1.9401,1.9401,1.9401,1.9415,1.9415,1.9535,1.98,1.9813,2.0619,2.2394,2.2558,2.4286,2.7721,2.8264,2.9547,3.1543,3.2003,3.2237,3.2257,3.2637,3.2832,3.2891,3.3743,3.4095,3.4114,3.4531,3.4707,3.4609,3.3757,3.5966,3.9357,3.7294,3.89,4.2125,4.2125,4.3222,4.4614,4.4614,4.4614,4.4715,4.5321,4.5095,4.4715,4.5321,4.507,4.4489,4.4016,4.5095,4.6175,4.5673,4.6778,4.7908,4.7933,4.7933,4.7933,4.7958,4.7958,4.7958,4.7933,4.7933,4.7782,4.7249,4.76,0.0,4.7249,4.7631,4.7732,4.7174,4.7124,4.6898,4.6376,4.5824,4.5748,4.6301,4.5824,4.5748,4.6276,4.5217,4.464,4.464,4.4091,4.379,4.379,0.0,0.0,0.0,0.0,0.0,0.0,0.0,0.0,0.0,0.0,0.0,0.0,0.0,0.0,0.0,0.0,0.0,0.0,0.0,0.0,0.0,1.2754,1.427,1.511,1.6963,1.8352,1.8638,1.9103,1.9401,1.9401,1.9401,1.9481,1.9666,1.9679,1.9813,2.0064,2.0077,2.0422,2.1179,2.3794,2.5748,2.6922,2.975,3.1433,3.1992,3.2422,3.2793,3.3086,3.3172,3.3418,3.3762,3.3997,3.3887,3.3652,3.4394,3.4707,3.4668,3.4434,3.5779,3.7731,3.715,3.9379,4.2671,4.2671,4.3806,4.5246,4.5246,4.497,4.479,4.5773,4.5397,4.4715,4.5321,4.507,4.474,4.5447,4.5974,4.6476,4.7104,4.7581,4.8033,4.8466,4.8535,4.8693,4.9063,4.9138,4.9012,4.8642,4.8535,4.8611,4.8887,4.9038,4.9088,4.8937,4.8686,4.8309,4.7757,4.7324,4.7048,4.6898,4.6401,4.6326,4.6848,4.6401,4.615,4.6301,4.6024,4.5819,4.5819,4.4493,4.379,0.0,0.0,0.0,0.0,0.0,0.0,0.0,0.0,0.0,0.0,0.0,0.0,0.0,0.0,0.0,0.0,0.0,0.0,0.0,0.0,0.0,0.0,1.307,1.4869,1.6487,1.7502,1.8426,1.9316,1.9401,1.9441,1.9562,1.9575,1.9666,1.996,1.9987,2.0107,2.0401,2.1042,2.1296,2.1092,2.4518,2.6521,2.6808,2.9888,3.1788,3.2472,3.3078,3.3457,3.3691,3.3691,3.3828,3.4114,3.4114,3.4023,3.4004,3.4492,3.4824,3.4961,0.0,0.0,0.0,0.0,3.8771,4.0635,4.1338,4.2698,4.4269,4.4915,4.4895,4.4765,4.5698,4.5347,4.4715,4.5321,4.507,4.474,4.5417,4.6095,4.6772,4.74,4.8109,4.8711,4.9069,4.9289,4.9565,4.9866,5.0142,0.0,4.9565,4.9264,4.9138,4.927,4.9439,4.9515,4.9289,4.9163,4.8887,4.8335,4.8008,4.7732,4.745,4.6923,0.0,0.0,0.0,4.6421,4.5974,4.5974,0.0,0.0,0.0,4.4719,4.5196,4.4414,0.0,0.0,4.3492,4.3341,0.0,0.0,0.0,0.0,0.0,0.0,0.0,0.0,0.0,0.0,0.0,0.0,0.0,0.0,0.0,0.0,1.3381,1.5173,1.6803,1.7038,1.7638,1.9267,1.9441,1.9562,1.9826,1.9853,1.9973,2.0224,2.025,2.0489,2.1059,2.2465,0.0,0.0,0.0,2.7171,2.7474,2.9693,3.1527,3.2949,3.3743,3.4134,3.4173,3.4075,3.4075,3.4173,3.4134,3.431,3.4629,3.4687,3.4941,3.5273,3.4863,3.6128,3.8112,3.7696,3.7548,3.7773,3.9206,0.0,0.0,4.4232,4.464,4.4715,4.5397,4.5121,4.474,4.5397,4.5171,4.474,4.4991,4.617,4.7324,4.7525,4.8711,4.9791,4.9791,5.0167,5.0519,5.0519,5.0921,5.1122,5.0594,5.0067,4.9515,4.8969,4.9321,4.9414,4.8969,4.9321,4.9389,4.8868,4.8793,0.0,4.8058,4.75,4.74,4.7983,4.7475,4.6747,4.5799,4.5773,4.5522,4.4966,4.5497,4.625,4.7199,4.7757,4.8033,4.8033,4.502,4.4723,0.0,0.0,0.0,0.0,0.0,0.0,0.0,0.0,0.0,0.0,0.0,0.0,0.0,0.0,0.0,1.1745,1.3381,1.5226,1.7064,1.7339,1.7918,1.9529,1.972,1.9826,2.009,2.0117,2.0267,2.0575,2.0588,2.1455,2.3434,2.3826,2.4669,2.6152,2.8429,2.9712,2.9752,3.2174,3.3521,3.386,3.4016,0.0,3.4551,3.3867,3.3926,3.4551,3.4251,3.4153,3.4251,3.4551,3.4746,3.4824,3.4726,3.5015,3.5448,3.5369,3.6955,3.9299,3.9609,4.168,4.4261,4.5083,4.4995,4.479,4.5849,4.5417,0.0,4.5874,4.5748,4.5723,4.7537,4.824,4.8786,5.0167,5.072,5.0979,5.0979,5.1046,5.1122,5.1122,5.1197,5.1247,5.1147,5.0645,5.0067,4.9515,4.9515,4.9565,4.9439,4.954,4.9389,4.8868,4.8793,4.8768,4.8642,4.8083,4.8008,4.8592,4.8083,4.7657,4.7456,4.7431,4.738,4.728,4.738,4.7556,4.7757,4.8335,4.8868,4.9238,4.819,4.7914,0.0,0.0,0.0,0.0,0.0,0.0,0.0,0.0,0.0,0.0,0.0,0.9314,1.0201,0.0,1.103,1.2048,1.3665,1.5475,1.7381,1.8306,1.9086,1.9893,1.9983,2.0134,2.0428,2.0454,2.0641,2.1114,2.1978,2.3012,2.4325,2.6023,2.7133,2.7482,3.0348,3.1567,3.0918,3.3217,3.431,3.4114,3.431,3.4394,3.4375,3.3945,3.3984,3.4388,3.3926,3.3867,3.4114,3.4329,3.4394,3.4394,3.4394,3.4394,3.4414,3.4629,3.5634,3.7181,3.9055,4.0777,4.2478,4.4421,4.5045,4.5171,4.5723,4.5698,4.5618,4.6446,4.6702,4.7029,4.8441,4.922,4.9816,5.0645,5.1071,5.1306,5.1306,5.1498,5.1699,5.1699,5.1925,5.2026,5.1749,5.1448,5.0971,5.0142,5.0017,4.9916,4.9615,4.959,4.949,4.9213,4.922,4.922,4.922,4.8912,4.8862,4.9163,4.8912,4.8636,4.836,4.8335,4.8209,4.7908,4.846,4.8291,4.7312,4.815,4.8052,4.7193,4.8409,4.9364,0.0,0.0,0.0,0.0,0.0,0.0,0.0,0.8906,0.9293,1.0757,1.0147,0.9786,1.1246,1.0808,1.0861,1.2795,1.4504,1.6237,1.8183,1.9501,2.033,2.0481,2.0357,2.0454,2.0846,2.1185,2.1591,2.2125,2.3807,2.5073,2.5687,2.8412,2.9636,2.895,3.2001,3.3097,3.1928,3.3767,3.4492,3.4114,3.4414,3.4394,3.4114,3.4016,3.3945,3.3926,3.3574,3.3672,3.4114,3.4114,3.4153,3.4231,3.4231,3.4231,3.4271,3.457,3.4927,3.5643,3.8778,4.027,4.1274,4.4048,4.5347,4.5799,4.5799,4.62,4.6728,4.7274,4.7757,4.8259,4.9095,4.9916,5.0645,5.0845,5.1272,5.1599,5.1599,5.195,5.2277,5.2277,5.2594,5.2744,5.2352,5.2277,5.1875,5.0745,5.0569,5.0419,4.9992,4.9916,4.9916,4.9916,4.9916,4.9866,4.9766,4.9766,4.9715,4.9615,4.959,4.9439,4.9113,4.912,4.8753,4.7972,4.8866,4.8401,4.6448,4.7524,4.7179,4.5615,4.8193,4.9894,0.685,0.7995,0.9199,0.9442,0.9408,0.9374,0.0,0.9598,0.9621,1.0066,1.0006,1.0029,1.0388,1.1603,1.3065,1.4741,1.6451,1.8214,2.0111,2.0535,2.0846,2.1381,2.098,2.0873,2.1435,2.2886,2.3938,2.423,2.5945,2.7775,2.9644,3.0433,3.1653,3.3341,3.4174,3.4297,3.3805,3.4394,3.4492,3.4114,3.4153,3.4153,3.4095,3.3672,3.3496,3.3496,3.3406,3.3672,3.4114,3.4114,3.4297,3.4629,3.4629,3.4629,3.4629,3.4687,3.6552,3.9184,4.0079,4.2362,4.5002,4.583,4.6471,4.6923,4.6923,4.7305,4.7857,4.8435,4.8667,4.9069,5.0627,5.1096,5.1423,5.2368,5.2669,5.2719,5.2719,5.277,5.2795,5.2795,5.2845,5.287,5.282,5.2795,5.2452,5.1348,5.1197,5.1205,5.1096,5.1096,5.1096,5.1096,5.1096,5.0896,5.0368,5.0318,5.0117,4.9615,4.959,4.9791,5.0218,5.0243,4.9578,4.8274,4.8393,4.7479,4.5557,4.6487,4.7542,4.8661,4.9878,4.9842,0.7846,0.9006,0.9686,0.972,0.9724,0.9771,0.9893,0.9879,0.9893,1.0141,1.0992,1.1415,1.0453,1.2555,1.4651,1.5418,1.7126,1.9034,2.0946,2.1368,2.1555,2.181,2.1622,2.1569,2.181,2.3418,2.4567,2.4865,2.7516,2.9641,3.0926,3.2147,3.3308,3.4414,3.4609,3.4746,3.4877,3.4746,3.4609,3.4434,3.4231,3.3977,3.3691,3.3496,3.3555,3.3809,3.3809,3.4043,3.4434,3.4434,3.4707,3.5098,3.5098,3.5254,3.5449,3.5195,3.6616,3.887,4.037,4.2684,4.5122,4.6368,4.7124,4.7581,4.7581,4.7983,4.8535,4.912,4.9748,5.0502,5.1498,5.2,5.2352,5.2795,5.2895,5.2895,5.2895,5.2895,5.2895,5.2895,5.2895,5.2895,5.2895,5.2895,5.2744,5.2302,5.1975,5.1649,5.1356,5.1306,5.1306,5.1306,5.1306,5.1197,5.0946,5.0921,5.082,5.0594,5.0569,5.067,5.0921,4.9789,4.8894,4.8299,4.7712,4.6474,4.451,4.6418,4.695,4.6241,4.8982,4.9806,0.893,0.9886,1.0055,0.9971,1.0001,1.0082,1.0082,1.0082,1.028,1.0933,1.2067,1.2741,1.1971,1.4392,1.6508,1.6605,1.8279,2.009,2.15,2.189,2.2017,2.2098,2.2111,2.2397,2.3079,2.4556,2.5839,2.6769,2.9667,3.168,3.2286,3.3538,3.4394,3.4687,3.4707,3.4805,3.5019,3.4687,3.4473,3.4336,3.4043,3.373,3.3386,3.3535,3.3848,3.4271,3.4271,3.4492,3.4883,3.4883,3.5156,3.5586,3.5703,3.5937,3.6172,3.5996,3.7258,3.9271,4.0985,4.3261,4.567,4.6904,4.7707,4.8159,4.8159,4.8661,4.9371,4.9891,5.0745,5.1624,5.2176,5.2594,5.2895,5.2895,5.2895,5.2895,5.2895,5.2895,5.2895,5.2895,5.2895,5.2895,5.2895,5.2895,5.2895,5.2895,5.2544,5.2176,5.1774,5.1724,5.1724,5.1724,5.1599,5.1448,5.1297,5.1147,5.0971,5.082,5.0946,5.0897,5.0486,4.9356,4.8275,4.7334,4.6713,4.5675,4.4116,4.6096,4.6611,4.5775,4.8928,5.0448,0.949,1.0154,1.0301,1.0301,1.0301,1.0308,1.0308,1.0308,1.0813,1.2643,1.3061,1.3626,1.54,1.7445,1.8897,1.8897,2.0593,2.1931,2.1964,2.1977,2.2084,2.2378,2.2405,2.3349,2.5838,2.6995,2.8615,3.1032,3.2919,3.4154,3.4583,3.4655,3.4687,3.4707,3.4707,3.4512,3.4153,3.4134,3.3887,3.3425,3.3406,3.3406,3.3437,3.3867,3.431,3.4687,3.4687,3.4941,3.5371,3.5371,3.5625,3.6035,3.6465,3.6675,3.6734,3.709,3.9204,4.1943,4.238,4.4875,4.782,4.7851,4.8259,4.8768,4.8768,4.9515,5.0494,5.1071,5.1649,5.2201,5.2719,5.287,5.2895,5.2895,5.2895,5.2895,5.2895,5.2895,5.2895,5.2895,5.2895,5.2895,5.2895,5.2895,5.2895,5.2895,5.287,5.287,5.2845,5.2845,5.2845,5.2845,5.2402,5.1875,5.1322,5.077,5.0218,4.9665,5.0142,4.9792,4.8471,4.9296,4.8196,4.4875,4.5247,4.5191,4.467,4.5191,4.6962,4.9843,5.0875,5.2163,0.9873,1.0272,1.0575,1.0575,1.0575,1.0923,1.2324,1.261,1.3144,1.4936,1.6333,1.6998,1.6084,1.869,2.056,1.9218,2.0836,2.2271,2.2271,2.2445,2.3167,2.4737,2.4902,2.6288,2.9767,2.7954,2.8041,3.1612,3.2041,3.2899,3.4602,3.4434,3.4414,3.4687,3.4434,3.4388,3.4492,3.3926,3.3711,3.3848,3.3848,3.4004,3.4277,3.4414,3.4726,3.5156,3.5156,3.5566,3.6284,3.6284,3.6484,3.6875,3.7031,3.709,3.7148,3.7559,3.9959,4.2984,4.2682,4.4383,4.6827,4.8081,4.8894,4.9314,4.9314,5.0092,5.1096,5.1674,5.2477,5.3306,5.3858,5.4009,5.4009,5.4009,5.4009,5.4009,5.4009,5.4009,5.4009,5.4009,5.3708,5.3432,5.3432,5.3121,5.2895,5.2895,5.2895,5.2895,5.2895,5.2895,5.2744,5.2427,5.2226,5.1875,5.1356,5.1096,5.0921,5.072,5.0008,4.9445,4.9285,4.7434,4.602,4.5173,4.5302,4.5487,4.5709,4.8196,5.0119,5.1567,5.2888,5.3807,1.0258,1.0508,1.0946,1.1691,1.1873,1.2399,1.4401,1.4864,1.5367,1.71,1.8494,1.9137,1.8242,2.0302,2.1707,2.0443,2.1543,2.2619,2.2692,2.2913,2.3873,2.6076,2.6347,2.7913,3.1924,2.9323,2.9016,3.2969,3.2751,3.319,3.4856,3.4427,3.4231,3.4473,3.4062,3.3965,3.4238,3.3848,3.3867,3.4297,3.4297,3.4531,3.4961,3.5098,3.543,3.5859,3.6016,3.6387,3.6894,3.6894,3.7051,3.7305,3.7461,3.7519,3.7578,3.8008,4.0083,4.2748,4.3028,4.495,4.7532,4.891,4.959,4.9916,5.0142,5.0845,5.1649,5.2,5.2729,5.3557,5.4145,5.4295,5.4346,5.4547,5.4597,5.4597,5.4597,5.4597,5.4597,5.4597,5.4295,5.4009,5.4009,5.3557,5.3206,5.3206,5.302,5.2895,5.2895,5.2895,5.2669,5.2176,5.1925,5.1574,5.1021,5.0347,4.9995,5.0158,4.8953,4.8193,4.7936,4.6138,4.5218,4.5386,4.576,4.6649,4.8075,5.0541,5.2182,5.3144,5.4315,5.4898,1.0795,1.1014,1.1661,1.3653,1.4164,1.4633,1.6523,1.6962,1.7433,1.9187,1.9578,2.009,2.1681,2.2245,2.2425,2.2445,2.2699,2.3041,2.3278,2.3319,2.417,2.6474,2.6748,2.8366,3.2418,3.1236,3.1632,3.5117,3.4842,3.4784,3.5312,3.4544,3.4075,3.4075,3.3652,3.3425,3.3425,3.3887,3.4316,3.4726,3.4726,3.498,3.5469,3.5879,3.6289,3.6753,3.7129,3.7305,3.7324,3.7324,3.7344,3.7402,3.7793,3.7933,3.8011,3.8457,3.9786,4.1601,4.3423,4.6426,4.9618,5.0235,5.0469,5.0569,5.1122,5.1674,5.2126,5.2126,5.2553,5.3046,5.3607,5.3758,5.3934,5.4522,5.4672,5.4672,5.4672,5.4672,5.4672,5.4672,5.4672,5.4622,5.4597,5.4145,5.3758,5.3758,5.3331,5.2945,5.2895,5.287,5.2644,5.2151,5.1599,5.1013,5.0362,4.8603,4.7677,4.7954,4.7163,4.6074,4.4656,4.5417,4.5709,4.5469,4.6484,4.8508,5.1468,5.2152,5.323,5.4697,5.5189,5.544,1.3115,1.4213,1.5436,1.6089,1.6157,1.6587,1.8597,1.9049,1.9524,2.128,2.1831,2.2013,2.1991,2.2592,2.302,2.2792,2.3228,2.3603,2.3647,2.3661,2.5003,2.8627,2.9042,3.0547,3.436,3.4259,3.4227,3.4836,3.3472,3.3157,3.4381,3.3887,3.3594,3.3594,3.3789,3.3906,3.3906,3.4336,3.4766,3.5215,3.5215,3.5605,3.6382,3.6445,3.6738,3.7148,3.7246,3.748,3.7773,3.7773,3.7949,3.8298,3.8359,3.8594,3.8887,3.9004,4.0415,4.2354,4.2825,4.526,4.8509,5.0448,5.1071,5.1096,5.1247,5.1674,5.2176,5.2569,5.3105,5.3632,5.4245,5.4662,5.4988,5.5175,5.5491,5.5792,5.5792,5.5792,5.5792,5.5792,5.5465,5.5074,5.4672,5.4471,5.4371,5.4371,5.427,5.3858,5.2995,5.2578,5.2251,5.2126,5.1599,5.0638,4.8976,4.872,4.7877,4.6197,4.549,4.499,4.4618,4.4117,4.4664,4.639,4.7844,4.9916,5.2658,5.3986,5.502,5.5792,5.5942,5.6018,1.5276,1.6084,1.7114,1.811,1.8308,1.8755,2.0727,2.1152,2.1424,2.2402,2.2859,2.2966,2.2632,2.31,2.346,2.3322,2.3589,2.3843,2.3941,2.4679,2.6423,2.9682,3.0647,3.2181,3.5103,3.5215,3.498,3.4726,3.3543,3.3222,3.405,3.3848,3.3711,3.3711,3.4121,3.4453,3.4681,3.4883,3.5332,3.5957,3.5957,3.6309,3.6988,3.7148,3.7344,3.7578,3.7773,3.7988,3.8223,3.8418,3.8633,3.8867,3.9082,3.9297,3.9512,3.9512,4.0817,4.2769,4.3872,4.6062,4.8516,4.9903,5.0332,5.0552,5.1663,5.2226,5.2494,5.2795,5.313,5.3557,5.4396,5.4823,5.5175,5.5641,5.5993,5.6219,5.6219,5.6219,5.6219,5.6219,5.5968,5.5641,5.534,5.5125,5.4974,5.4974,5.4547,5.3959,5.3356,5.3005,5.2628,5.2151,5.1825,5.1095,4.9728,4.8627,4.7542,4.6391,4.5013,4.4216,4.4216,4.4724,4.5938,4.7759,4.9837,5.192,5.4095,5.5196,5.5917,5.6219,5.6219,5.6219,1.7385,1.7575,1.8214,2.0039,2.0479,2.0894,2.2551,2.2893,2.2893,2.2893,2.3113,2.3292,2.3292,2.3567,2.3817,2.3857,2.387,2.4036,2.4571,2.6035,2.7951,3.0418,3.1756,3.3274,3.5223,3.498,3.4707,3.4707,3.4388,3.4192,3.4192,3.4192,3.4212,3.4271,3.4609,3.5039,3.5566,3.5566,3.5957,3.6792,3.6792,3.6973,3.7402,3.7718,3.7913,3.8027,3.8418,3.865,3.8728,3.9062,3.9238,3.9336,3.9746,3.9922,3.998,3.998,4.0993,4.2742,4.4924,4.6906,4.858,4.9342,4.9586,5.002,5.2238,5.2895,5.2895,5.2895,5.2895,5.3121,5.422,5.4547,5.4873,5.5867,5.6168,5.6219,5.6219,5.6219,5.6194,5.6118,5.6168,5.6194,5.6118,5.5717,5.539,5.539,5.4486,5.3783,5.3708,5.3582,5.3155,5.2302,5.2151,5.1772,5.099,4.8538,4.7054,4.6912,4.4923,4.3854,4.4025,4.6188,4.8098,4.9628,5.1933,5.3882,5.5491,5.5968,5.6219,5.6219,5.6219,5.6219,1.9554,2.0683,2.1958,2.2318,2.24,2.2503,2.2825,2.2893,2.2893,2.2893,2.3113,2.3292,2.3292,2.3567,2.3884,2.4088,2.4128,2.4802,2.6663,2.7199,2.8746,3.2263,3.2568,3.3274,3.5223,3.498,3.4707,3.4707,3.4629,3.459,3.459,3.459,3.4766,3.5156,3.5234,3.5644,3.648,3.648,3.6734,3.7187,3.7187,3.7402,3.7812,3.7855,3.8125,3.8476,3.8571,3.8769,3.9101,3.918,3.9434,3.9785,3.9863,4.0098,4.041,4.041,4.0817,4.1516,4.196,4.337,4.5755,5.0677,5.2213,5.2307,5.2767,5.2895,5.2895,5.2895,5.2895,5.3046,5.3683,5.4245,5.4773,5.539,5.5892,5.6219,5.6219,5.6219,5.6068,5.5616,5.5892,5.6068,5.5616,5.544,5.539,5.539,5.4873,5.4235,5.3758,5.2929,5.2477,5.2719,5.2377,5.1219,4.9015,4.8719,4.7259,4.408,4.4102,4.4733,4.5725,4.65,4.8658,5.2353,5.2864,5.4076,5.6068,5.6168,5.6219,5.6219,5.6219,5.6219,2.1562,2.2194,2.2893,2.2893,2.2893,2.2893,2.2893,2.2893,2.2947,2.3073,2.334,2.3607,2.3754,2.4022,2.4222,2.4209,2.4329,2.5066,2.6985,2.8218,3.0072,3.316,3.3832,3.4455,3.5602,3.5098,3.4805,3.5039,3.5059,3.4961,3.4707,3.4922,3.5254,3.5703,3.5937,3.6284,3.6695,3.6929,3.7207,3.7617,3.7617,3.7851,3.8262,3.8262,3.8496,3.8906,3.8906,3.916,3.957,3.9805,4.0019,4.0254,4.0469,4.0684,4.0859,4.0859,4.0996,4.1463,4.3532,4.4827,4.6404,5.1303,5.2223,5.1583,5.2594,5.2895,5.2895,5.2895,5.2895,5.3096,5.3934,5.4396,5.4823,5.5616,5.6018,5.6118,5.5842,5.5792,5.5616,5.5099,5.5164,5.5265,5.5049,5.4999,5.4999,5.4999,5.4773,5.4496,5.422,5.3708,5.3256,5.292,5.1945,5.0817,4.9582,4.8227,4.6626,4.4743,4.5474,4.6147,4.6512,4.9,5.1245,5.3062,5.4162,5.5189,5.6219,5.6219,5.6219,5.6219,5.6219,5.6219,2.2893,2.2893,2.2893,2.2893,2.2893,2.2893,2.2893,2.2947,2.3067,2.3273,2.3607,2.3928,2.4155,2.4359,2.4452,2.4329,2.4382,2.5184,2.7407,2.9244,3.1312,3.3936,3.5013,3.5664,3.5996,3.5312,3.5039,3.5488,3.5605,3.5508,3.5137,3.5469,3.5859,3.6289,3.6621,3.689,3.6968,3.7266,3.7656,3.8066,3.8066,3.8281,3.8747,3.8747,3.8945,3.9355,3.9355,3.9609,4.0059,4.0391,4.0586,4.0703,4.1074,4.1211,4.1211,4.1211,4.1269,4.1756,4.4848,4.6239,4.7254,5.0806,5.1406,5.1097,5.2605,5.3146,5.3246,5.3246,5.3246,5.3532,5.4672,5.4949,5.5225,5.6319,5.647,5.6244,5.5691,5.5465,5.5189,5.4547,5.4622,5.4748,5.4622,5.4697,5.4773,5.4773,5.4672,5.4597,5.4597,5.4181,5.3584,5.267,5.1487,5.0511,4.9818,4.7959,4.6482,4.569,4.6797,4.7511,4.7507,5.097,5.32,5.3763,5.5361,5.6219,5.6219,5.6219,5.6219,5.6219,5.6344,5.6394,2.2893,2.2893,2.2893,2.2893,2.2893,2.2893,2.2893,2.3086,2.3252,2.3278,2.3768,2.4168,2.4195,2.4222,2.4329,2.4519,2.4182,2.5306,2.9434,3.0293,3.1808,3.5352,3.586,3.5942,3.6016,3.5605,3.5508,3.5903,3.6328,3.6577,3.6519,3.6558,3.6738,3.7168,3.7226,3.7422,3.7812,3.7816,3.8086,3.8552,3.8552,3.873,3.9141,3.9141,3.9394,3.9824,3.9824,4.0078,4.0469,4.0469,4.0762,4.1152,4.1191,4.1211,4.1211,4.1211,4.1406,4.1817,4.2151,4.3703,4.5898,4.8169,5.0946,5.3398,5.3563,5.4009,5.4446,5.4446,5.4446,5.4697,5.5767,5.6068,5.6344,5.7474,5.7349,5.6759,5.6244,5.5742,5.5064,5.3984,5.4612,5.5175,5.4672,5.5024,5.5315,5.5315,5.4924,5.4597,5.4597,5.2924,5.1666,5.157,5.1412,5.0158,4.731,4.8545,4.8031,4.4761,4.6414,4.8136,4.9618,5.0109,5.2099,5.5827,5.6084,5.6219,5.6219,5.6219,5.6219,5.6219,5.6684,5.6935,2.3086,2.314,2.318,2.3402,2.3273,2.314,2.314,2.3233,2.3345,2.3554,2.3915,2.4262,2.4399,2.5385,2.6142,2.607,2.6989,2.8648,3.134,3.1948,3.3173,3.6092,3.6172,3.623,3.6738,3.6406,3.6328,3.6758,3.6953,3.7168,3.7402,3.7187,3.7129,3.7285,3.7539,3.7754,3.7894,3.8184,3.8535,3.8945,3.8945,3.918,3.9609,3.9609,3.9863,4.0273,4.0273,4.0664,4.1269,4.1016,4.1172,4.1523,4.1308,4.1367,4.1543,4.1543,4.1816,4.2327,4.3553,4.5412,4.7618,4.9597,5.2284,5.4662,5.4346,5.4421,5.4597,5.4597,5.4848,5.5239,5.6018,5.6433,5.6684,5.6872,5.6696,5.6394,5.5842,5.5541,5.5164,5.4396,5.4622,5.4848,5.4647,5.4773,5.4924,5.4924,5.5024,5.4644,5.3376,5.3851,5.2854,4.9034,4.8344,4.7648,4.6386,4.6199,4.6063,4.5882,4.6634,4.8515,5.1708,5.1861,5.3213,5.6146,5.6219,5.6219,5.6219,5.6508,5.6659,5.6684,5.7261,5.7549,2.326,2.3359,2.3514,2.375,2.3607,2.346,2.346,2.3527,2.3647,2.3861,2.4128,2.4542,2.5318,2.6575,2.7662,2.8105,2.9395,3.1035,3.2959,3.3472,3.4447,3.6642,3.6699,3.6782,3.7422,3.7226,3.7168,3.7461,3.748,3.7676,3.8086,3.7949,3.7812,3.7676,3.8086,3.8265,3.8265,3.875,3.9121,3.9414,3.9414,3.9648,4.0078,4.0078,4.0312,4.0723,4.0723,4.1133,4.1777,4.1484,4.1601,4.1953,4.166,4.1719,4.1992,4.1992,4.2246,4.2818,4.4236,4.5736,4.7535,5.0108,5.2281,5.3937,5.4816,5.5074,5.5074,5.5074,5.544,5.5968,5.6344,5.6835,5.7161,5.6796,5.657,5.6294,5.5742,5.5491,5.5214,5.4697,5.4723,5.4848,5.4848,5.4974,5.5074,5.5074,5.539,5.5083,5.3617,5.3994,5.266,4.8241,4.6293,4.5327,4.5327,4.4906,4.5006,4.5839,4.7067,4.9087,5.2052,5.2939,5.4232,5.6182,5.6545,5.662,5.6433,5.6985,5.7261,5.7261,5.7876,5.8227,2.3292,2.3541,2.3803,2.3803,2.3803,2.3803,2.3803,2.3981,2.4195,2.4195,2.4399,2.5175,2.7106,2.7505,2.8248,3.0572,3.0684,3.1412,3.4109,3.4576,3.5329,3.7109,3.7656,3.7874,3.7874,3.7874,3.7874,3.7874,3.7874,3.8105,3.8591,3.8965,3.8984,3.8611,3.8965,3.9199,3.9199,3.9648,3.9883,3.9883,3.9883,4.0098,4.0469,4.0469,4.0762,4.1211,4.1211,4.1406,4.1797,4.1797,4.2031,4.2382,4.2382,4.2382,4.2382,4.2382,4.2695,4.3107,4.3107,4.3381,4.4433,4.8654,5.0025,5.0801,5.4942,5.6194,5.6194,5.6194,5.6559,5.6985,5.6985,5.7449,5.7901,5.7876,5.7449,5.6835,5.6319,5.5767,5.5214,5.4697,5.5049,5.539,5.539,5.5842,5.6194,5.6194,5.6194,5.6157,5.6157,5.2584,5.0025,4.9947,4.6223,4.3733,4.3733,4.5657,4.5981,4.3856,4.7645,5.0009,5.0025,5.2542,5.4595,5.6182,5.7298,5.76,5.6985,5.76,5.7901,5.7901,5.8453,5.8981,2.3514,2.3736,2.3897,2.4262,2.4209,2.4408,2.5691,2.6034,2.6499,2.7832,2.8308,2.8685,2.9294,3.0503,3.1735,3.2737,3.3939,3.5027,3.587,3.6281,3.6665,3.7215,3.793,3.8359,3.8359,3.8359,3.8359,3.8359,3.8633,3.8867,3.9004,3.9434,3.9473,3.9023,3.9434,3.9668,3.9668,3.9824,4.0039,4.0332,4.0332,4.0547,4.0976,4.0976,4.1035,4.123,4.1484,4.1836,4.2226,4.2226,4.248,4.2851,4.2539,4.2617,4.2871,4.2871,4.3144,4.3496,4.3496,4.4538,4.6324,4.9087,5.0955,5.2622,5.5361,5.6219,5.6294,5.6634,5.686,5.6985,5.6985,5.7136,5.7186,5.6846,5.5509,5.4679,5.5926,5.4955,5.4205,5.5463,5.5842,5.5942,5.5942,5.6093,5.6219,5.6219,5.5004,5.3576,5.2128,5.0801,4.889,4.5981,4.5758,4.5251,4.3815,4.4309,4.5006,4.5758,4.7462,4.969,5.2526,5.3814,5.5384,5.7336,5.7725,5.7801,5.7625,5.8177,5.8654,5.9006,5.9182,5.9332,2.346,2.3768,2.4022,2.4382,2.4386,2.4852,2.6746,2.7212,2.7733,2.9663,3.018,3.0522,3.128,3.2491,3.3812,3.4938,3.6256,3.7207,3.7398,3.7754,3.8086,3.8262,3.875,3.9082,3.9082,3.9082,3.9082,3.9082,3.9316,3.9453,3.9453,3.9883,4.0,3.9707,3.998,4.0137,4.0137,4.0293,4.0508,4.0762,4.0762,4.0996,4.1406,4.1406,4.1504,4.166,4.1933,4.2285,0.0,4.2676,4.293,4.3281,4.3008,4.3066,4.332,4.332,4.3476,4.3711,4.3711,4.5088,4.7187,4.9344,5.1937,5.4497,5.5827,5.6219,5.6294,5.6584,5.6684,5.6536,5.5745,5.5533,5.5273,5.4122,5.2873,5.2281,5.3576,5.3439,5.3477,5.4782,5.5656,5.6219,5.6219,5.6219,5.5937,5.5152,5.3913,5.2357,5.0258,4.9283,4.7804,4.5169,4.5494,4.535,4.4089,4.3965,4.4525,4.58,4.7904,5.0277,5.2868,5.5043,5.6734,5.7863,5.8303,5.8403,5.8202,5.8755,5.9182,5.9483,5.9483,5.9483,0.0,2.3754,2.4182,2.4195,2.4495,2.5322,2.7252,2.7816,0.0,3.031,3.0699,3.128,3.3102,3.3758,3.4724,3.6964,3.7676,3.8086,3.8516,3.8965,3.9414,3.9844,3.9922,3.9922,3.9902,3.9902,3.9902,3.9902,3.9922,3.9941,3.9941,4.0332,4.0528,4.0528,4.0528,4.0528,4.0528,4.0976,4.1211,4.1211,4.125,4.1426,4.1797,4.1836,4.2051,4.2382,4.246,4.2734,4.3086,4.3185,4.3379,4.3711,4.3711,4.3711,4.3711,4.3711,4.3711,4.3711,4.3856,4.5169,4.7126,4.9283,5.2722,5.5937,5.5791,5.5864,5.5974,5.5974,5.5864,5.5324,5.3364,5.2873,5.2395,5.0452,4.9869,4.983,5.0164,5.1631,5.2987,5.3251,5.4893,5.612,5.6011,5.5974,5.5287,5.3175,5.276,5.1999,5.0092,4.7927,4.6648,4.6751,4.5509,4.4601,4.4453,4.4601,4.4685,4.4685,4.9085,5.1688,5.1688,5.6241,5.8529,5.8027,5.8981,5.9257,5.8742,5.9257,5.9483,5.9483,5.9483,5.9483,2.4059,0.0,2.3928,2.4155,2.5525,2.7309,0.0,3.0786,3.2386,3.4261,3.4659,3.4909,3.5735,3.5939,3.6386,3.7585,3.7816,3.8086,3.8516,3.9238,3.9766,3.9883,4.0176,4.0254,3.9922,3.9902,3.9902,3.9902,4.0195,4.0371,4.0371,4.0781,4.1016,4.1016,4.1016,4.1016,4.1016,4.1152,4.1211,4.1211,4.1504,4.1699,4.1816,4.2129,4.2304,4.2421,4.3125,4.3281,4.3166,4.3808,4.3945,4.3711,4.3711,4.3711,4.3711,4.3711,4.3711,4.3939,4.5515,4.6384,4.7126,4.9283,5.1746,5.3514,5.1937,5.2547,5.3838,5.3838,5.2684,5.1363,5.0839,5.0723,5.0607,5.0125,4.8733,4.8417,5.1647,5.1516,5.167,5.4856,5.5864,5.5717,5.41,5.3838,5.3138,5.1032,4.9383,4.8291,4.8096,4.625,4.5088,4.5405,4.6635,4.6696,4.499,4.6403,4.7361,4.7361,5.1935,5.4586,5.4586,5.7618,5.9257,5.9131,5.9357,5.9433,5.9307,5.9433,5.9483,5.9483,5.9483,5.9483,2.4074,2.4526,2.5314,2.5447,2.651,2.8249,3.0998,3.2455,3.3743,3.5621,3.5982,3.6152,3.6616,3.6871,3.7246,3.8086,3.8379,3.8672,3.9121,3.9414,3.9726,4.0137,4.0215,4.0293,4.0469,4.0293,4.0273,4.0469,4.0703,4.082,4.082,4.123,4.1504,4.1504,4.1641,4.166,4.1465,4.1504,4.1562,4.1758,4.1973,4.2187,4.2383,4.2617,4.2832,4.3027,4.3496,4.3574,4.3398,4.3887,4.3926,4.3711,4.3711,4.3711,4.3815,4.4761,4.5128,4.5454,4.7525,4.828,4.8478,4.9596,5.0762,5.1478,5.0336,5.0103,5.0414,5.1378,5.0878,4.9752,4.8772,4.8557,4.832,4.7326,4.6947,4.7446,4.9713,5.0839,5.209,5.4348,5.4782,5.4423,5.3289,5.2319,5.1046,4.9118,4.7906,4.6964,4.6411,4.6243,4.5904,4.5085,4.7189,4.7711,4.5526,4.8442,4.9877,4.8712,5.3181,5.5866,5.5866,5.8235,5.9483,5.9483,5.9483,5.9483,5.9483,5.9759,5.9885,5.9885,6.0136,6.0261,2.4009,2.5498,2.7066,2.6692,2.7272,2.8772,3.2036,3.3205,3.3985,3.5295,3.585,3.6147,3.6333,3.6973,3.7754,3.8535,3.9082,3.9551,3.9941,3.9707,3.9746,4.0411,4.0273,4.0351,4.1054,4.0801,4.0781,4.1191,4.1211,4.125,4.1308,4.1601,4.1836,4.1894,4.2246,4.2285,4.1992,4.1933,4.207,4.2382,4.246,4.2715,4.3127,4.3144,4.3359,4.3711,4.3789,4.3769,4.3711,4.3789,4.3769,4.3711,4.3711,4.3711,4.3898,4.5677,4.6365,4.6727,4.8794,4.9713,4.997,4.9596,4.954,4.9462,4.9126,4.7764,4.6706,4.8557,4.9047,4.8614,4.6786,4.6365,4.5941,4.4145,4.5047,4.6424,4.6746,4.9596,5.2242,5.2547,5.2693,5.2626,5.2283,5.0828,4.9144,4.7377,4.7112,4.6638,4.5271,4.675,4.7212,4.5366,4.7515,4.8312,4.6432,5.0354,5.2083,5.0219,5.4223,5.6717,5.6837,5.8649,5.9659,5.9759,5.9759,5.9759,5.9759,6.0236,6.0462,6.0462,6.0964,6.119,2.4929,2.6076,2.7261,2.5138,2.7272,3.0026,3.0593,3.3274,3.5192,3.3916,3.5202,3.6228,3.5055,3.6789,3.8571,3.9023,3.9785,4.0351,4.041,4.0684,4.0781,4.0508,4.0801,4.0879,4.0644,4.0898,4.1094,4.1211,4.1211,4.1367,4.168,4.1758,4.1973,4.2324,4.2362,4.2578,4.2871,4.2519,4.2323,4.2382,4.2793,4.3008,4.3127,4.3437,4.3633,4.373,4.4121,4.4062,4.373,4.4121,4.4062,4.3711,4.3711,4.3711,4.3733,4.4062,4.4186,4.4494,4.6585,4.8456,4.9674,4.7884,4.7347,4.7048,4.521,4.4453,4.4248,4.4576,4.4658,4.4576,4.4248,4.4186,4.4103,4.3793,4.3939,4.4658,4.6424,4.7326,4.8298,5.0103,5.0753,5.0394,4.8685,4.836,4.7733,4.5686,4.5368,4.5441,4.557,4.591,4.6091,4.6118,4.8147,4.9342,4.9022,5.1405,5.3515,5.499,5.7564,5.9217,5.9626,5.999,6.0412,6.0914,6.0914,6.0914,6.0914,6.1014,6.104,6.104,6.114,6.119,2.4844,2.5345,2.5894,2.4925,2.6982,2.9492,3.0369,3.3073,3.5086,3.3979,3.5861,3.754,3.6831,3.793,3.9141,3.9805,4.0254,4.0489,4.0489,4.0508,4.0488,4.0527,4.0703,4.084,4.0879,4.1055,4.1308,4.1484,4.1504,4.1699,4.2109,4.2363,4.2578,4.2773,4.3008,4.3223,4.3418,4.3223,4.3125,4.3125,4.332,4.3418,4.3418,4.3613,4.3711,4.3711,4.3926,4.3906,4.373,4.3926,4.3887,4.3711,4.3711,4.3711,4.3815,4.4965,4.6102,4.7086,4.6907,4.7467,4.7923,4.5799,4.5128,4.4985,4.398,4.3711,4.3711,4.3711,4.3711,4.3711,4.3711,4.3711,4.3711,4.3711,4.4576,4.5698,4.6585,4.7877,4.9166,5.0154,4.9737,4.8956,4.7998,4.705,4.6183,4.546,4.5371,4.5527,4.5957,4.7101,4.742,4.64,4.829,4.9126,4.7923,5.0946,5.3979,5.6475,5.8684,6.0186,6.0763,6.0788,6.0914,6.1165,6.119,6.119,6.119,6.1492,6.1617,6.1642,6.1943,6.2069,2.4599,2.4653,2.4783,2.493,2.6659,2.8648,2.9943,3.2655,3.4683,3.3834,3.6382,3.8601,3.8161,3.8959,3.9883,4.0566,4.0762,4.0781,4.0684,4.0391,4.0312,4.0644,4.0762,4.0957,4.1328,4.1445,4.1601,4.1933,4.1953,4.2129,4.2558,4.2891,4.3125,4.3223,4.3535,4.3711,4.3711,4.3711,4.3711,4.3711,4.3711,4.3711,4.3711,4.3711,4.3711,4.3711,4.3711,4.3711,4.3711,4.3711,4.3711,4.3711,4.3711,4.3711,4.3898,4.5474,4.7086,4.832,4.6727,4.6122,4.5799,4.4227,4.3711,4.373,4.3828,4.3867,4.3887,4.3984,4.4004,4.3984,4.3887,4.3867,4.3887,4.3984,4.5266,4.6453,4.6412,4.79,4.9307,4.9307,4.8331,4.7546,4.7546,4.6301,4.5449,4.5781,4.582,4.5937,4.6269,4.7794,4.8161,4.6464,4.7895,4.8537,4.7507,5.1986,5.5585,5.7309,5.9364,6.0763,6.1341,6.1366,6.1441,6.1567,6.1567,6.1567,6.1567,6.1994,6.2195,6.222,6.2581,6.2781,2.4599,2.4836,2.4983,2.4693,2.6296,2.8066,2.8484,3.1848,3.4389,3.2544,3.5905,3.8622,3.6865,3.9013,4.1093,4.1152,4.1465,4.1562,4.1191,4.1094,4.1132,4.1152,4.1465,4.1719,4.1758,4.2109,4.2344,4.2343,4.2343,4.2578,4.3008,4.3066,4.3262,4.3652,4.3691,4.3711,4.3711,4.3711,4.3711,4.3711,4.3711,4.3711,4.3711,4.3711,4.3711,4.3711,4.3711,4.3711,4.3711,4.3711,4.3711,4.3711,4.3711,4.3711,4.3711,4.3856,4.4021,4.4145,4.398,4.3939,4.3898,4.3752,4.3711,4.3789,4.4219,4.4355,4.4433,4.4824,4.4922,4.4801,4.4453,4.4355,4.4453,4.4844,4.5007,4.5134,4.5134,4.5281,4.5427,4.5427,4.5654,4.5864,4.5864,4.6087,4.623,4.625,4.625,4.6269,4.6289,4.642,4.6464,4.6308,4.6773,4.8097,5.0527,5.6819,6.0013,5.8652,6.0217,6.1366,6.1918,6.1943,6.2195,6.2697,6.2681,6.2681,6.2681,6.2706,6.2731,6.2731,6.2781,6.2781,2.4599,2.4983,2.5621,2.6785,2.818,2.9196,2.895,3.1652,3.4456,3.5236,3.8117,4.0238,3.9529,4.0395,4.1211,4.1211,4.1348,4.1348,4.123,4.1445,4.1562,4.1562,4.1933,4.2187,4.2187,4.2304,4.2539,4.2812,4.2832,4.3027,4.3437,4.3457,4.3535,4.3691,4.3711,4.3711,4.3711,4.3711,4.3711,4.3711,4.3711,4.3711,4.3711,4.3711,4.3711,4.3711,4.3711,4.3711,4.3711,4.3711,4.3711,4.3711,4.3711,4.3711,4.3711,4.3711,4.3711,4.3711,4.3711,4.3887,4.4141,4.4141,4.4316,4.4551,4.4726,4.4785,4.4824,4.498,4.4977,4.4938,4.4824,4.4785,4.4824,4.4938,4.4977,4.4977,4.4977,4.5234,4.543,4.543,4.5781,4.6055,4.6055,4.6191,4.6308,4.6308,4.6523,4.6699,4.6699,4.6933,4.709,4.709,4.8562,5.0508,5.295,5.7134,5.9968,6.0703,6.1325,6.1943,6.2496,6.2521,6.2581,6.2781,6.2781,6.2781,6.2781,6.2781,6.2781,6.2781,6.2781,6.2781,2.4879,2.5277,2.6202,2.8382,2.9438,3.0249,3.1376,3.3365,3.5439,3.7147,3.9444,4.125,4.1387,4.1367,4.1367,4.123,4.1387,4.1523,4.1387,4.1738,4.1992,4.1992,4.2383,4.2637,4.2637,4.2754,4.2949,4.3262,4.3281,4.3398,4.3691,4.3711,4.3711,4.3711,4.3711,4.3711,4.3711,4.3711,4.3711,4.3711,4.3711,4.3711,4.3711,4.3711,4.3711,4.3711,4.3711,4.3711,4.3711,4.3711,4.3711,4.3711,4.3711,4.3789,4.3926,4.3926,4.4004,4.4121,4.4121,4.4336,4.459,4.459,4.4785,4.5058,4.5195,4.5234,4.5254,4.5391,4.543,4.543,4.543,4.5332,4.5273,4.5391,4.543,4.543,4.543,4.5664,4.5879,4.5879,4.6113,4.6308,4.6308,4.6406,4.6504,4.6504,4.6855,4.709,4.6909,4.7305,4.7932,4.8792,5.0992,5.3363,5.5742,5.8426,6.0662,6.2189,6.227,6.2446,6.2781,6.2781,6.2781,6.2781,6.2781,6.2781,6.2781,6.2781,6.2781,6.2781,6.2781,6.2781,2.5504,2.5809,2.6635,2.9064,2.9681,3.0972,3.5911,3.7281,3.7514,3.7532,3.9502,4.1348,4.1719,4.1797,4.166,4.1289,4.1875,4.2285,4.1855,4.2168,4.2401,4.2401,4.2812,4.3127,4.3127,4.3457,4.3711,4.3711,4.3711,4.3711,4.3711,4.3711,4.3711,4.3711,4.3711,4.3711,4.3711,4.3711,4.3711,4.3711,4.3711,4.3711,4.3711,4.3711,4.3711,4.3711,4.3711,4.3711,4.3711,4.3711,4.3711,4.3711,4.3711,4.4004,4.4414,4.4414,4.4668,4.4977,4.4977,4.4977,4.4996,4.4996,4.4996,4.5117,4.5547,4.5727,4.5805,4.6191,4.6308,4.6308,4.6308,4.5996,4.5824,4.6211,4.6308,4.6308,4.6308,4.6308,4.6308,4.6308,4.6308,4.6308,4.6308,4.666,4.6889,4.6889,4.7305,4.7441,4.6992,4.7324,4.8658,5.1386,5.3778,5.6283,5.9048,6.1432,6.2781,6.2781,6.2781,6.2781,6.2781,6.2781,6.2781,6.2781,6.2781,6.2781,6.2781,6.2781,6.2781,6.2781,6.2781,6.2781,2.7293,2.8928,3.1118,3.3343,3.4659,3.6228,3.9273,3.8898,3.849,4.0533,4.1788,4.2403,4.1894,4.2031,4.2109,4.168,4.207,4.2343,4.2266,4.2617,4.2891,4.2891,4.3262,4.3516,4.3516,4.3633,4.3711,4.3711,4.3711,4.3711,4.3711,4.3711,4.3711,4.3711,4.3711,4.3711,4.3711,4.3711,4.3711,4.3711,4.3711,4.3711,4.3711,4.3711,4.3711,4.3711,4.3711,4.3711,4.373,4.4062,4.4199,4.4219,4.4512,4.4707,4.4844,4.4844,4.4922,4.4977,4.4977,4.5234,4.5488,4.5488,4.5683,4.5957,4.6074,4.6113,4.6152,4.6269,4.6308,4.6308,4.6308,4.6211,4.6152,4.6269,4.6308,4.6308,4.6308,4.6308,4.6387,4.668,4.6738,4.6836,4.7148,4.7305,4.7383,4.7383,4.7754,4.8086,4.8262,4.8444,4.8836,4.9666,5.1819,5.4215,5.668,5.9035,6.1035,6.27,6.2781,6.2781,6.2781,6.2781,6.2781,6.2781,6.2781,6.2781,6.2781,6.2781,6.2781,6.2781,6.2781,6.2781,2.8957,3.1085,3.3724,3.6014,3.727,3.8676,4.1362,4.0828,4.0367,4.2298,4.2754,4.2715,4.2363,4.2383,4.2304,4.209,4.2402,4.2695,4.2695,4.3047,4.332,4.332,4.3555,4.3711,4.3711,4.3711,4.3711,4.3711,4.3711,4.3711,4.3711,4.3711,4.3711,4.3711,4.3711,4.3711,4.3711,4.3711,4.3711,4.3711,4.3887,4.3984,4.3984,4.3789,4.3808,4.3984,4.416,4.4219,4.4258,4.4531,4.4648,4.4668,4.4922,4.5137,4.5293,4.5293,4.5391,4.5527,4.5527,4.5703,4.5918,4.5918,4.6094,4.6308,4.6308,4.6308,4.6308,4.6308,4.6308,4.6348,4.6504,4.6426,4.6308,4.6308,4.6308,4.6308,4.6308,4.6426,4.6621,4.6831,4.707,4.7266,4.7539,4.7715,4.7832,4.7832,4.8047,4.8359,4.8855,4.8757,4.9065,5.0165,5.2366,5.4676,5.7048,5.9372,6.1284,6.27,6.2781,6.2781,6.2781,6.2781,6.2781,6.2781,6.2781,6.2781,6.2781,6.2781,6.2781,6.2781,6.2781,6.2781,3.0517,3.269,3.5322,3.7629,3.8383,3.9366,4.2427,4.2832,4.2656,4.3047,4.2812,4.2656,4.3008,4.2793,4.2499,4.246,4.2851,4.3125,4.3125,4.3457,4.3711,4.3711,4.3711,4.3711,4.3711,4.3711,4.3711,4.3711,4.3711,4.3711,4.3711,4.3711,4.3711,4.3711,4.3711,4.3711,4.3711,4.3711,4.373,4.3769,4.4199,4.4414,4.4433,4.4023,4.4062,4.4473,4.4863,4.4977,4.4996,4.5058,4.5035,4.5098,4.5074,4.5391,4.5723,4.5723,4.5976,4.6308,4.6308,4.6308,4.6308,4.6308,4.6308,4.6308,4.6348,4.6328,4.6308,4.6348,4.6367,4.6445,4.6792,4.668,4.6426,4.6426,4.6387,4.6367,4.6367,4.6699,4.6948,4.6948,4.7344,4.7656,4.7695,4.8008,4.8262,4.8262,4.8262,4.8418,4.8855,4.8516,4.9245,5.1806,5.3948,5.6095,5.8479,6.0803,6.2265,6.247,6.27,6.2781,6.2781,6.2781,6.2781,6.2781,6.2781,6.2781,6.2781,6.2781,6.2781,6.2781,6.2781,6.2781,3.1923,3.5451,3.9373,4.0238,4.126,4.2307,4.3336,4.3496,4.3457,4.3555,4.3496,4.3359,4.3125,4.3262,4.332,4.2988,4.3301,4.3574,4.3574,4.3652,4.3711,4.3711,4.3711,4.3711,4.3711,4.3711,4.3711,4.3711,4.3711,4.3711,4.3711,4.3711,4.3711,4.3711,4.3711,4.3711,4.3711,4.3711,4.3887,4.4258,4.4355,4.457,4.4883,4.4785,4.4805,4.4902,4.4938,4.4977,4.5058,4.5391,4.5527,4.5566,4.5898,4.6074,4.6172,4.6172,4.623,4.6308,4.6308,4.6308,4.6308,4.6308,4.6308,4.6367,4.6699,4.6562,4.6367,4.6699,4.6753,4.6772,4.687,4.7109,4.7305,4.7305,4.7051,4.6753,4.6753,4.7129,4.7441,4.7441,4.7793,4.8183,4.8581,4.8698,4.8757,4.8757,4.8757,4.8796,4.8894,4.8815,4.898,4.959,5.0094,5.1306,5.3682,5.603,5.8162,5.9919,6.1763,6.2781,6.2781,6.2781,6.2781,6.2781,6.2781,6.2781,6.2781,6.2781,6.2781,6.2781,6.2781,6.2781,3.4287,3.7511,4.1035,4.1914,4.2618,4.3242,4.3887,4.3867,4.3769,4.3984,4.3867,4.3633,4.3418,4.3555,4.3633,4.3418,4.3555,4.3711,4.3711,4.3711,4.3711,4.3711,4.3711,4.3711,4.3711,4.3711,4.3711,4.3711,4.3711,4.3711,4.3711,4.3711,4.3711,4.3711,4.3711,4.3808,4.4043,4.4043,4.4258,4.4707,4.4902,4.5234,4.5625,4.543,4.5332,4.5351,4.5547,4.5625,4.5644,4.5879,4.5976,4.5996,4.6211,4.6308,4.6308,4.6308,4.6308,4.6308,4.6308,4.6308,4.6328,4.6543,4.6601,4.668,4.7109,4.709,4.6953,4.7187,4.7246,4.7285,4.748,4.7558,4.774,4.8131,4.7715,4.7246,4.7246,4.7578,4.7891,4.7891,4.8223,4.8594,4.8855,4.8913,4.8913,4.8913,4.8913,4.8913,4.8913,4.8913,4.8913,4.8913,4.9911,5.1055,5.2297,5.5551,5.8034,5.9222,6.1515,6.2781,6.2781,6.2781,6.2781,6.2781,6.2781,6.2781,6.2781,6.2781,6.2781,6.2781,6.2781,6.2781,3.6108,3.876,4.1602,4.2814,4.3183,4.3516,4.4316,4.416,4.3945,4.4414,4.4082,4.3711,4.3711,4.3711,4.3711,4.3711,4.3711,4.3711,4.3711,4.3711,4.3711,4.3711,4.3711,4.3711,4.3711,4.3711,4.3711,4.3711,4.3711,4.3711,4.3711,4.3711,4.373,4.3828,4.3828,4.4043,4.4492,4.4512,4.4726,4.5137,4.5586,4.5976,4.6289,4.5937,4.5781,4.5801,4.6152,4.6308,4.6308,4.6308,4.6308,4.6308,4.6308,4.6308,4.6308,4.6308,4.6348,4.6406,4.6406,4.6465,4.6582,4.6933,4.7051,4.7129,4.7558,4.7637,4.7598,4.7656,4.7695,4.7773,4.8105,4.8008,4.8033,4.8737,4.8366,4.7773,4.7715,4.8027,4.8301,4.8223,4.8555,4.8913,4.8913,4.8913,4.8913,4.8913,4.8913,4.8913,4.8913,4.8913,4.8913,4.8913,5.0621,5.1802,5.1802,5.566,5.8266,5.8715,6.0886,6.2388,6.2781,6.2781,6.2781,6.2781,6.2781,6.2781,6.2781,6.2781,6.2781,6.2781,6.2781,6.2781,3.5265,3.8443,4.1933,4.2851,4.3652,4.4355,4.4824,4.4609,4.4433,4.4863,4.4277,4.3711,4.3711,4.3711,4.3711,4.3711,4.3711,4.3711,4.3711,4.3711,4.3711,4.3711,4.3711,4.3711,4.3711,4.3711,4.3711,4.3711,4.3711,4.3711,4.3711,4.3711,4.3887,4.4297,4.4316,4.4512,4.4941,4.4941,4.5156,4.5586,4.6016,4.625,4.6308,4.625,4.6211,4.623,4.6289,4.6308,4.6308,4.6308,4.6308,4.6308,4.6308,4.6308,4.6308,4.6308,4.6523,4.6792,4.6792,4.709,4.7422,4.748,4.75,4.7578,4.7988,4.7871,4.7656,4.8027,4.8125,4.8144,4.8183,4.8437,4.8757,4.8874,4.8815,4.862,4.8203,4.8457,4.8698,4.8281,4.8555,4.8913,4.8913,4.8913,4.8913,4.8913,4.8913,4.8913,4.8913,4.8913,4.8913,4.8913,4.917,4.938,4.938,5.1802,5.4213,5.6226,5.8502,6.0678,6.27,6.2781,6.2781,6.2781,6.2781,6.2781,6.2781,6.2781,6.2781,6.2781,6.2781,6.2781,3.7743,3.9913,4.2051,4.3144,4.3926,4.4453,4.4629,4.4531,4.4453,4.4629,4.416,4.3711,4.3711,4.3711,4.3711,4.3711,4.3711,4.3711,4.3711,4.3711,4.3711,4.3711,4.3711,4.3711,4.3711,4.3711,4.3711,4.3711,4.3711,4.3808,4.4082,4.4082,4.4297,4.4726,4.4746,4.4961,4.5391,4.5391,4.5605,4.6035,4.6211,4.6308,4.6308,4.6308,4.6308,4.6308,4.6308,4.6308,4.6308,4.6308,4.6308,4.6308,4.6308,4.6445,4.666,4.666,4.6914,4.7285,4.7285,4.7422,4.7617,4.7851,4.793,4.8008,4.8437,4.8483,4.8385,4.8516,4.8574,4.8574,4.8574,4.8757,4.8913,4.8913,4.8913,4.8855,4.8659,4.8776,4.8855,4.8613,4.8776,4.8913,4.8913,4.8913,4.8913,4.8913,4.8913,4.8913,4.8913,4.8913,4.8913,4.8913,4.8913,4.8913,4.8913,5.2231,5.4763,5.5769,5.9246,6.1722,6.2741,6.2781,6.2781,6.2781,6.2781,6.2781,6.2781,6.2781,6.2781,6.2781,6.2781,6.2781,3.9414,4.0664,4.1641,4.3027,4.3887,4.4394,4.4394,4.4492,4.4531,4.4414,4.4023,4.3711,4.3711,4.3711,4.3711,4.3711,4.3711,4.3711,4.3711,4.3711,4.3711,4.3711,4.3711,4.3711,4.3711,4.3711,4.3711,4.3711,4.3711,4.3906,4.4375,4.4394,4.4648,4.5176,4.5195,4.5391,4.584,4.584,4.5996,4.6308,4.6308,4.6308,4.6308,4.6308,4.6308,4.6308,4.6308,4.6308,4.6308,4.6426,4.6465,4.6465,4.6582,4.6816,4.709,4.709,4.7363,4.7734,4.7734,4.7812,4.7994,4.8262,4.8379,4.8437,4.8796,4.8913,4.8913,4.8913,4.8913,4.8913,4.8913,4.8913,4.8913,4.8913,4.8913,4.8913,4.8913,4.8913,4.8913,4.8913,4.8913,4.8913,4.8913,4.8913,4.8913,4.8913,4.8913,4.8913,4.8913,4.8913,4.8913,4.8913,4.8913,4.8913,4.8913,5.2051,5.4544,5.5769,5.9077,6.1284,6.1911,6.247,6.2511,6.1911,6.247,6.2781,6.2781,6.2781,6.2781,6.2781,6.2781,6.2781,3.8337,3.9316,4.0391,4.203,4.3457,4.4394,4.4394,4.4707,4.4883,4.4473,4.4023,4.3711,4.3711,4.3711,4.3711,4.3711,4.3711,4.3711,4.3711,4.3711,4.3711,4.3711,4.3711,4.3711,4.3711,4.3711,4.3711,4.3711,4.3711,4.3906,4.4375,4.4394,4.4785,4.5668,4.5644,4.584,4.6269,4.6269,4.6289,4.6308,4.6308,4.6308,4.6308,4.6308,4.6308,4.6308,4.6308,4.6308,4.6328,4.6738,4.685,4.6889,4.7344,4.7519,4.7539,4.7539,4.7812,4.8164,4.8164,4.8437,4.8835,4.8855,4.8874,4.8874,4.8894,4.8913,4.8913,4.8913,4.8913,4.8913,4.8913,4.8913,4.8913,4.8913,4.8913,4.8913,4.8913,4.8913,4.8913,4.8913,4.8913,4.8913,4.8913,4.8913,4.8913,4.8913,4.8913,4.8913,4.8913,4.8913,4.8913,4.8913,4.8913,4.8913,4.8913,4.9124,5.1145,5.5617,5.6074,5.7154,5.9391,6.1639,6.1763,5.9541,6.168,6.2781,6.2781,6.2781,6.2781,6.2781,6.2781,6.2781,3.8337,3.9219,4.0234,4.166,4.2793,4.3613,4.3887,4.4297,4.457,4.4433,4.4023,4.3711,4.3711,4.3711,4.3711,4.3711,4.3711,4.3711,4.3711,4.3711,4.3711,4.3711,4.3711,4.3711,4.3711,4.3711,4.3711,4.3711,4.3984,4.4336,4.4785,4.5058,4.5488,4.6055,4.6074,4.6152,4.6308,4.6308,4.6308,4.6308,4.6308,4.6308,4.6308,4.6582,4.6699,4.6719,4.6992,4.6953,4.6738,4.7168,4.7344,4.7363,4.7519,4.7754,4.7988,4.7988,4.8262,4.8679,4.8679,4.8776,4.8913,4.8913,4.8913,4.8913,4.8913,4.8913,4.8913,4.8913,4.8913,4.8913,4.8913,4.8913,4.8913,4.8913,4.8913,4.8913,4.8913,4.8913,4.8913,4.8913,4.8913,4.8913,4.8913,4.8913,4.8913,4.8913,4.8913,4.8913,4.8913,4.8913,4.8913,4.8913,4.8913,4.8913,4.8913,5.0276,5.1847,5.357,5.4983,5.6204,5.7025,5.7906,5.8653,5.9307,6.0152,6.1284,6.2781,6.2781,6.2781,6.2781,6.2781,6.3023,3.7949,3.8789,3.9766,4.1055,4.1914,4.2656,4.3516,4.3945,4.4199,4.4355,4.4141,4.3887,4.373,4.3711,4.3711,4.3711,4.3711,4.3711,4.3711,4.3711,4.3711,4.3711,4.3711,4.3711,4.3711,4.3848,4.3926,4.3926,4.4355,4.4805,4.5215,4.5508,4.5859,4.6289,4.6308,4.6308,4.6308,4.6308,4.6308,4.6308,4.6308,4.6367,4.6523,4.6753,4.7012,4.7168,4.7598,4.7539,4.7187,4.7617,4.7793,4.7812,4.7949,4.8183,4.8418,4.8418,4.8613,4.8913,4.8913,4.8913,4.8913,4.8913,4.8913,4.8913,4.8913,4.8913,4.8913,4.8913,4.8913,4.8913,4.8913,4.8913,4.8913,4.8913,4.8913,4.8913,4.8913,4.8913,4.8913,4.8913,4.8913,4.8913,4.8913,4.8913,4.8913,4.8913,4.8913,4.8913,4.8913,4.8913,4.8913,4.8913,4.8913,4.8913,4.8913,5.0322,5.1552,5.2321,5.3815,5.4632,5.4632,5.6204,5.7369,5.8096,5.9667,6.1242,6.2781,6.2781,6.2882,6.3124,6.3124,6.3425,0.0,0.0,0.0,4.0156,4.082,4.1621,4.3262,4.3633,4.3769,4.4277,4.4355,4.4219,4.3808,4.3711,4.3711,4.373,4.3711,4.3711,4.3711,4.3711,4.3711,4.3711,4.3711,4.3711,4.3711,4.4121,4.4394,4.4394,4.4805,4.5234,4.5688,4.5727,4.5879,4.6289,4.6308,4.6308,4.6308,4.6308,4.6308,4.6308,4.6308,4.6543,4.6889,4.6909,4.7207,4.7617,4.8047,4.7988,4.7656,4.8066,4.8223,4.8262,4.8737,4.8913,4.8913,4.8913,4.8913,4.8913,4.8913,4.8913,4.8913,4.8913,4.8913,4.8913,4.8913,4.8913,4.8913,4.8913,4.8913,4.8913,4.8913,4.8913,4.8913,4.8913,4.8913,4.8913,4.8913,4.8913,4.8913,4.8913,4.8913,4.8913,4.8913,4.8913,4.8913,4.8913,4.8913,4.8913,4.8913,4.8913,4.8913,4.8913,4.8913,4.8913,4.8913,4.8913,4.9865,5.2162,5.2297,5.2297,5.2297,5.6614,5.7968,5.5726,6.026,6.2618,6.27,6.2807,6.3149,6.3701,6.3726,6.4002,3.7637,0.0,0.0,0.0,0.0,0.0,4.2012,4.209,4.2266,4.3613,4.3398,4.3223,4.4062,4.3926,4.3808,4.4141,4.3926,4.3711,4.3711,4.3711,4.3711,4.3711,4.3711,4.3711,4.3711,4.4121,4.4394,4.4394,4.5078,4.5547,4.5664,4.5976,4.6191,4.6289,4.6308,4.6308,4.6308,4.6308,4.6308,4.6308,4.6601,4.6772,4.6909,4.7558,4.791,4.8066,4.8496,4.8659,4.8561,4.8679,4.8718,4.8737,4.8855,4.8913,4.8913,4.8913,4.8913,4.8913,4.8913,4.8913,4.8913,4.8913,4.8913,4.8913,4.8913,4.8913,4.8913,4.8913,4.8913,4.8913,4.8913,4.8913,4.8913,4.8913,4.8913,4.8913,4.8913,4.8913,4.8913,4.8913,4.8913,4.8913,4.8913,4.8913,4.8913,4.8913,4.8913,4.8913,4.8913,4.8913,4.8913,4.8913,4.8913,4.8913,4.8913,4.8913,4.917,4.9819,4.9885,4.9885,4.9885,5.11,5.2276,5.3327,5.6247,5.8587,6.0278,6.2415,6.3525,6.3701,6.4479,6.4931,3.7851,3.8242,3.8708,3.9101,0.0,0.0,4.1875,4.2012,4.2226,4.4141,4.4121,4.3965,4.4551,4.4433,4.4336,4.4609,4.4433,4.4121,4.375,4.3711,4.3711,4.3711,4.3711,4.3711,4.3711,4.4277,4.4668,4.4668,4.5449,4.5937,4.5937,4.6172,4.6308,4.6308,4.6308,4.6308,4.6308,4.6308,4.6387,4.6562,4.6816,4.7065,4.748,4.7988,4.8301,4.8496,4.8796,4.8913,4.8913,4.8913,4.8913,4.8913,4.8913,4.8913,4.8913,4.8913,4.8913,4.8913,4.8913,4.8913,4.8913,4.8913,4.8913,4.8913,4.8913,4.8913,4.8913,4.8913,4.8913,4.8913,4.8913,4.8913,4.8913,4.8913,4.8913,4.8913,4.8913,4.8913,4.8913,4.8913,4.8913,4.8913,4.8913,4.8913,4.8913,4.8913,4.8913,4.8913,4.8913,4.8913,4.8913,4.8913,4.8913,4.8913,4.8913,4.8913,4.8913,4.8913,4.8913,4.8913,4.8913,4.9839,5.1009,5.2387,5.5595,5.8134,5.993,6.247,6.3927,6.4379,6.5233,6.5634,3.8008,3.832,3.873,3.9043,3.8926,0.0,4.209,4.2344,4.2656,4.4746,4.5179,4.5039,4.4844,4.4723,4.4704,4.4805,4.4844,4.4587,4.3887,4.3789,4.3769,4.3711,4.3711,4.3711,4.3711,4.4473,4.4938,4.5019,4.582,4.6308,4.6308,4.6308,4.6308,4.6308,4.6308,4.6308,4.6308,4.6308,4.6504,4.6889,4.6928,4.7422,4.8203,4.8262,4.8496,4.8913,4.8913,4.8913,4.8913,4.8913,4.8913,4.8913,4.8913,4.8913,4.8913,4.8913,4.8913,4.8913,4.8913,4.8913,4.8913,4.8913,4.8913,4.8913,4.8913,4.8913,4.8913,4.8913,4.8913,4.8913,4.8913,4.8913,4.8913,4.8913,4.8913,4.8913,4.8913,4.8913,4.8913,4.8913,4.8913,4.8913,4.8913,4.8913,4.8913,4.8913,4.8913,4.8913,4.8913,4.8913,4.8913,4.8913,4.8913,4.8913,4.8913,4.8913,4.8913,4.8913,4.8913,4.8913,4.8913,5.0894,5.2027,5.2027,5.6639,5.9451,6.0442,6.2468,6.3851,6.459,6.5345,6.5699,3.8535,3.875,0.0,0.0,0.0,0.0,3.9902,3.9902,4.0254,4.1778,4.1777,4.1933,4.3223,4.3164,4.3047,4.3398,4.373,4.4043,4.4238,4.4258,4.4121,4.375,4.3711,4.3711,4.3711,4.4199,4.4668,4.4957,4.582,4.6308,4.6308,4.6308,4.6308,4.6308,4.6308,4.6308,4.6308,4.6308,4.6504,4.6889,4.7285,4.7715,4.8223,4.8574,4.8815,4.8913,4.8913,4.8913,4.8913,4.8913,4.8913,4.8913,4.8913,4.8913,4.8913,4.8913,4.8913,4.8913,4.8913,4.8913,4.8913,4.8913,4.8913,4.8913,4.8913,4.8913,4.8913,4.8913,4.8913,4.8913,4.8913,4.8913,4.8913,4.8913,4.8913,4.8913,4.8913,4.8913,4.8913,4.8913,4.8913,4.8913,4.8913,4.8913,4.8913,4.8913,4.8913,4.8913,4.8913,4.8913,4.8913,4.8913,4.8913,4.8913,4.8913,4.8913,4.8913,4.8913,4.8913,4.8913,4.8913,4.9354,4.9564,4.9564,5.4605,5.7479,5.8003,6.0662,6.1333,6.0133,6.2244,6.3201,0.0,0.0,0.0,3.9238,0.0,0.0,0.0,4.0019,4.0293,4.1816,4.1777,4.1797,4.2871,4.2891,4.2891,4.332,4.3926,4.4297,4.4082,4.4433,4.4551,4.4101,4.4238,4.418,4.375,4.4316,4.4883,4.5312,4.5937,4.6308,4.6308,4.6308,4.6308,4.6308,4.6308,4.6308,4.6308,4.6504,4.6836,4.7266,4.7695,4.8125,4.8535,4.8796,4.8913,4.8913,4.8913,4.8913,4.8913,4.8913,4.8913,4.8913,4.8913,4.8913,4.8913,4.8913,4.8913,4.8913,4.8913,4.8913,4.8913,4.8913,4.8913,4.8913,4.8913,4.8913,4.8913,4.8913,4.8913,4.8913,4.8913,4.8913,4.8913,4.8913,4.8913,4.8913,4.8913,4.8913,4.8913,4.8913,4.8913,4.8913,4.8913,4.8913,4.8913,4.8913,4.8913,4.8913,4.8913,4.8913,4.8913,4.8913,4.8913,4.8913,4.8913,4.8913,4.8913,4.8913,4.8913,4.8913,4.8913,4.8913,4.9426,5.0621,5.365,5.532,5.5444,5.7417,5.8499,5.8814,6.009,6.0632,0.0,0.0,0.0,0.0,0.0,3.9668,0.0,0.0,0.0,4.2168,4.2187,4.209,4.2617,4.2637,4.2695,4.3027,4.3828,4.4121,4.334,4.4043,4.4512,4.418,4.4668,4.4665,4.3926,4.4551,4.5176,4.5527,4.5937,4.6211,4.6289,4.6308,4.6308,4.6308,4.6308,4.6308,4.6308,4.6719,4.7148,4.7578,4.8008,4.8437,4.8913,4.8913,4.8913,4.8913,4.8913,4.8913,4.8913,4.8913,4.8913,4.8913,4.8913,4.8913,4.8913,4.8913,4.8913,4.8913,4.8913,4.8913,4.8913,4.8913,4.8913,4.8913,4.8913,4.8913,4.8913,4.8913,4.8913,4.8913,4.8913,4.8913,4.8913,4.8913,4.8913,4.8913,4.8913,4.8913,4.8913,4.8913,4.8913,4.8913,4.8913,4.8913,4.8913,4.8913,4.8913,4.8913,4.8913,4.8913,4.8913,4.8913,4.8913,4.8913,4.8913,4.8913,4.8913,4.8913,4.8913,4.8913,4.8913,4.8913,4.9793,5.1667,5.3086,5.35,5.2966,5.4372,5.5894,5.7385,5.7848,5.8079,0.0,0.0,0.0,0.0,3.9824,0.0,0.0,0.0,3.9531,4.0137,0.0,4.043,4.125,0.0,0.0,4.0879,4.1601,4.1992,4.1563,4.2519,4.3281,4.3223,4.4297,4.4844,4.4355,4.4746,4.4996,4.5098,4.5508,4.5918,4.6289,4.6308,4.6308,4.6308,4.6308,4.6308,4.6308,4.6719,4.7148,4.7578,4.8008,4.8437,4.8913,4.8913,4.8913,4.8913,4.8913,4.8913,4.8913,4.8913,4.8913,4.8913,4.8913,4.8913,4.8913,4.8913,4.8913,4.8913,4.8913,4.8913,4.8913,4.8913,4.8913,4.8913,4.8913,4.8913,4.8913,4.8913,4.8913,4.8913,4.8913,4.8913,4.8913,4.8913,4.8913,4.8913,4.8913,4.8913,4.8913,4.8913,4.8913,4.8913,4.8913,4.8913,4.8913,4.8913,4.8913,4.8913,4.8913,4.8913,4.8913,4.8913,4.8913,4.8913,4.8913,4.8913,4.8913,4.8913,4.8913,4.8913,4.8913,4.8913,4.9032,4.9308,5.2236,5.2755,5.0582,5.3614,5.4094,5.2306,5.4521,5.5518,0.0,0.0,0.0,0.0,0.0,0.0,3.9238,0.0,3.9336,0.0,0.0,0.0,0.0,0.0,0.0,0.0,4.1035,0.0,4.0859,4.1894,4.2695,4.2695,4.3398,4.4023,4.4355,4.4551,4.4863,4.5371,4.5566,4.5859,4.6289,4.6543,4.6562,4.6308,4.6308,4.6308,4.6308,4.6719,4.7148,4.7578,4.8008,4.8437,4.8913,4.8913,4.8913,4.8913,4.8913,4.8913,4.8913,4.8913,4.8913,4.8913,4.8913,4.8913,4.8913,4.8913,4.8913,4.8913,4.8913,4.8913,4.8913,4.8913,4.8913,4.8913,4.8913,4.8913,4.8913,4.8913,4.8913,4.8913,4.8913,4.8913,4.8913,4.8913,4.8913,4.8913,4.8913,4.8913,4.8913,4.8913,4.8913,4.8913,4.8913,4.8913,4.8913,4.8913,4.8913,4.8913,4.8913,4.8913,4.8913,4.8913,4.8913,4.8913,4.8913,4.8913,4.8913,4.8913,4.8913,4.8913,4.8913,4.8913,4.8913,4.8913,5.0743,5.1202,5.0176,5.208,5.2451,5.1426,5.2499,5.294,4.1308,0.0,0.0,0.0,0.0,0.0,0.0,0.0,0.0,0.0,0.0,0.0,0.0,0.0,0.0,0.0,0.0,4.0625,0.0,4.0879,0.0,0.0,4.2676,4.334,4.3965,4.4043,4.4394,4.5254,4.5332,4.5664,4.6426,4.666,4.668,4.6484,4.6367,4.6308,4.6308,4.6719,4.7148,4.7578,4.8008,4.8437,4.8913,4.8913,4.8913,4.8913,4.8913,4.8913,4.8913,4.8913,4.8913,4.8913,4.8913,4.8913,4.8913,4.8913,4.8913,4.8913,4.8913,4.8913,4.8913,4.8913,4.8913,4.8913,4.8913,4.8913,4.8913,4.8913,4.8913,4.8913,4.8913,4.8913,4.8913,4.8913,4.8913,4.8913,4.8913,4.8913,4.8913,4.8913,4.8913,4.8913,4.8913,4.8913,4.8913,4.8913,4.8913,4.8913,4.8913,4.8913,4.8913,4.8913,4.8913,4.8913,4.8913,4.8913,4.8913,4.8913,4.8913,4.8913,4.8913,4.8913,4.8952,4.9089,4.9785,5.0234,5.0351,5.1074,5.1377,5.1377,5.1377,5.1377,4.2791,4.2343,4.1972,4.0332,0.0,0.0,0.0,0.0,4.0,0.0,0.0,0.0,0.0,0.0,0.0,0.0,0.0,0.0,0.0,0.0,0.0,0.0,0.0,0.0,4.3166,4.3166,4.3476,4.4375,4.4433,4.5156,4.6772,4.6543,4.6504,4.685,4.6504,4.6308,4.6308,4.6719,4.7148,4.7578,4.8008,4.8437,4.8913,4.8913,4.8913,4.8913,4.8913,4.8913,4.8913,4.8913,4.8913,4.8913,4.8913,4.8913,4.8913,4.8913,4.8913,4.8913,4.8913,4.8913,4.8913,4.8913,4.8913,4.8913,4.8913,4.8913,4.8913,4.8913,4.8913,4.8913,4.8913,4.8913,4.8913,4.8913,4.8913,4.8913,4.8913,4.8913,4.8913,4.8913,4.8913,4.8913,4.8913,4.8913,4.8913,4.8913,4.8913,4.8913,4.8913,4.8913,4.8913,4.8913,4.8913,4.8913,4.8913,4.8913,4.8913,4.8913,4.8913,4.8913,4.8913,4.8913,4.9062,4.9445,4.9941,5.0371,5.0781,5.123,5.1377,5.1377,5.1377,5.1377,4.3437,4.3691,4.3631,4.166,4.1367,4.1308,0.0,0.0,0.0,0.0,0.0,0.0,0.0,0.0,0.0,0.0,0.0,0.0,0.0,0.0,0.0,0.0,0.0,0.0,0.0,0.0,4.4316,4.5176,4.5508,4.6035,4.6831,4.707,4.6953,4.6523,4.6641,4.6582,4.6308,4.6719,4.7148,4.7578,4.8008,4.8437,4.8913,4.8913,4.8913,4.8913,4.8913,4.8913,4.8913,4.8913,4.8913,4.8913,4.8913,4.8913,4.8913,4.8913,4.8913,4.8913,4.8913,4.8913,4.8913,4.8913,4.8913,4.8913,4.8913,4.8913,4.8913,4.8913,4.8913,4.8913,4.8913,4.8913,4.8913,4.8913,4.8913,4.8913,4.8913,4.8913,4.8991,4.9238,4.9062,4.8991,4.9258,4.9297,4.9199,4.8952,4.8913,4.8913,4.8913,4.8913,4.8913,4.8913,4.8913,4.8913,4.8913,4.8913,4.8913,4.8913,4.8913,4.8913,4.8913,4.8913,4.9062,4.9465,4.9961,5.0391,5.0801,5.1182,5.1377,5.1377,5.1377,5.1377,4.4043,4.4473,4.457,4.2715,4.2461,4.2363,4.123,0.0,4.1445,0.0,0.0,0.0,0.0,0.0,0.0,0.0,0.0,0.0,0.0,0.0,0.0,0.0,0.0,0.0,0.0,0.0,0.0,4.5762,4.5723,0.0,4.7109,4.7285,4.709,4.6543,4.6641,4.6582,4.6308,4.6719,4.7148,4.7578,4.8008,4.8437,4.8913,4.8913,4.8913,4.8913,4.8913,4.8913,4.8913,4.8913,4.8913,4.8913,4.8913,4.8913,4.8913,4.8913,4.8913,4.8913,4.8913,4.8913,4.8913,4.8913,4.8913,4.8913,4.8913,4.8913,4.8913,4.8913,4.8913,4.8913,4.8913,4.8913,4.8913,4.8913,4.8913,4.8913,4.8913,4.8913,4.9031,4.9433,4.9297,4.9238,4.9687,4.9766,4.9551,4.8991,4.9031,4.9089,4.8933,4.8913,4.8913,4.8913,4.8913,4.8913,4.8913,4.8913,4.8913,4.8913,4.8913,4.8913,4.8913,4.8913,4.9062,4.9465,4.9961,5.0391,5.0801,5.1182,5.1377,5.1377,5.1377,5.1377]},{"header":{"parameterUnit":"m.s-1","parameterCategory":1,"la1":30.6,"la2":29.2853,"lo1":-89.7004,"lo2":-87.6739,"dx":0.0162,"dy":0.0183,"nx":112,"ny":82,"refTime":"2022-11-09T18:00:00:Z","depth":0,"parameterNumber":3,"parameterNumberName":"V-component_of_WINDS"},"data":[0.0,0.0,0.0,0.0,0.0,0.0,0.0,0.0,0.0,0.0,0.0,0.0,0.0,0.0,0.0,0.0,0.0,0.0,0.0,0.0,0.0,0.0,0.0,0.0,0.0,0.0,0.0,0.0,0.0,0.0,0.0,0.0,0.0,0.0,0.0,0.0,0.0,0.0,0.0,0.0,0.0,0.0,0.0,0.0,0.0,0.0,0.0,0.0,0.0,0.0,0.0,0.0,0.0,0.0,0.0,0.0,0.0,0.0,0.0,0.0,0.0,0.0,0.0,0.0,0.0,0.0,0.0,0.0,0.0,0.0,0.0,0.0,0.0,0.0,0.0,0.0,0.0,0.0,0.0,0.0,0.0,0.0,0.0,0.0,0.0,0.0,0.0,0.0,0.0,0.0,3.976,4.1982,4.2274,4.1833,4.06,3.9597,3.7612,3.4248,0.0,0.0,0.0,0.0,0.0,0.0,0.0,0.0,0.0,0.0,0.0,0.0,0.0,0.0,0.0,0.0,0.0,0.0,0.0,0.0,0.0,0.0,0.0,0.0,0.0,0.0,0.0,0.0,0.0,0.0,0.0,0.0,0.0,0.0,0.0,0.0,0.0,0.0,0.0,0.0,0.0,0.0,0.0,0.0,0.0,0.0,0.0,0.0,0.0,0.0,0.0,0.0,0.0,0.0,0.0,0.0,0.0,0.0,0.0,0.0,0.0,0.0,0.0,0.0,0.0,0.0,0.0,0.0,0.0,0.0,0.0,0.0,0.0,0.0,0.0,0.0,0.0,0.0,0.0,0.0,0.0,0.0,0.0,0.0,0.0,0.0,0.0,0.0,0.0,0.0,0.0,0.0,0.0,0.0,0.0,0.0,0.0,0.0,0.0,0.0,0.0,0.0,0.0,0.0,3.993,4.2583,4.2846,4.2208,4.0625,3.9923,3.814,3.4778,0.0,0.0,0.0,0.0,0.0,0.0,0.0,0.0,0.0,0.0,0.0,0.0,0.0,0.0,0.0,0.0,0.0,0.0,0.0,0.0,0.0,0.0,0.0,0.0,0.0,0.0,0.0,0.0,0.0,0.0,0.0,0.0,0.0,0.0,0.0,0.0,0.0,0.0,0.0,0.0,0.0,0.0,0.0,0.0,0.0,0.0,0.0,0.0,0.0,0.0,0.0,0.0,0.0,0.0,0.0,0.0,0.0,0.0,0.0,0.0,0.0,0.0,0.0,0.0,0.0,0.0,0.0,0.0,0.0,0.0,0.0,0.0,0.0,0.0,0.0,0.0,0.0,0.0,0.0,0.0,0.0,0.0,0.0,0.0,0.0,0.0,0.0,0.0,0.0,0.0,0.0,0.0,0.0,0.0,0.0,0.0,0.0,0.0,0.0,0.0,0.0,0.0,0.0,4.0332,4.1632,4.4095,4.379,4.2986,4.1932,4.1436,3.9663,3.6171,3.6079,0.0,0.0,0.0,0.0,0.0,0.0,0.0,0.0,0.0,0.0,0.0,0.0,0.0,0.0,0.0,0.0,0.0,0.0,0.0,0.0,0.0,0.0,0.0,0.0,0.0,0.0,0.0,0.0,0.0,0.0,0.0,0.0,0.0,0.0,0.0,0.0,0.0,0.0,0.0,0.0,0.0,0.0,0.0,0.0,0.0,0.0,0.0,0.0,0.0,0.0,0.0,0.0,0.0,0.0,0.0,0.0,0.0,0.0,0.0,0.0,0.0,0.0,0.0,0.0,0.0,0.0,0.0,0.0,0.0,0.0,0.0,0.0,0.0,0.0,0.0,0.0,0.0,0.0,0.0,0.0,0.0,0.0,0.0,0.0,0.0,0.0,0.0,0.0,0.0,0.0,0.0,0.0,0.0,0.0,0.0,0.0,0.0,0.0,0.0,0.0,0.0,0.0,4.2199,4.3266,4.5095,4.4392,4.3655,4.3309,4.2576,4.0875,3.7882,3.7655,0.0,0.0,0.0,0.0,0.0,0.0,0.0,0.0,0.0,0.0,0.0,0.0,0.0,0.0,0.0,0.0,0.0,0.0,0.0,0.0,0.0,0.0,0.0,0.0,0.0,0.0,0.0,0.0,0.0,0.0,0.0,0.0,0.0,0.0,0.0,0.0,0.0,0.0,0.0,0.0,0.0,0.0,0.0,0.0,0.0,0.0,0.0,0.0,0.0,0.0,0.0,0.0,0.0,0.0,0.0,0.0,0.0,0.0,0.0,0.0,0.0,0.0,0.0,0.0,0.0,0.0,0.0,0.0,0.0,0.0,0.0,0.0,0.0,0.0,0.0,0.0,0.0,0.0,0.0,0.0,0.0,0.0,0.0,0.0,0.0,0.0,0.0,0.0,0.0,0.0,0.0,0.0,0.0,0.0,0.0,0.0,0.0,0.0,0.0,0.0,0.0,0.0,4.2112,4.394,4.4589,4.4166,4.3899,4.4124,4.2439,4.0898,3.987,3.7568,0.0,0.0,0.0,0.0,0.0,0.0,0.0,0.0,0.0,0.0,0.0,0.0,0.0,0.0,0.0,0.0,0.0,0.0,0.0,0.0,0.0,0.0,0.0,0.0,0.0,0.0,0.0,0.0,0.0,0.0,0.0,0.0,0.0,0.0,0.0,0.0,0.0,0.0,0.0,0.0,0.0,0.0,0.0,0.0,0.0,0.0,0.0,0.0,0.0,0.0,0.0,0.0,0.0,0.0,0.0,0.0,0.0,0.0,0.0,0.0,0.0,0.0,0.0,0.0,0.0,0.0,0.0,0.0,0.0,0.0,0.0,0.0,0.0,0.0,0.0,0.0,0.0,0.0,0.0,0.0,0.0,0.0,0.0,0.0,0.0,0.0,0.0,0.0,0.0,0.0,0.0,0.0,0.0,0.0,0.0,0.0,0.0,0.0,0.0,0.0,0.0,0.0,4.1306,4.314,4.4016,4.3915,4.4028,4.4651,4.4439,4.3478,4.1564,0.0,0.0,0.0,0.0,0.0,0.0,0.0,0.0,0.0,0.0,0.0,0.0,0.0,0.0,0.0,0.0,0.0,0.0,0.0,0.0,0.0,0.0,0.0,0.0,0.0,0.0,0.0,0.0,0.0,0.0,0.0,0.0,0.0,0.0,0.0,0.0,0.0,0.0,0.0,0.0,0.0,0.0,0.0,0.0,0.0,0.0,0.0,0.0,0.0,0.0,0.0,0.0,0.0,0.0,0.0,0.0,0.0,0.0,0.0,0.0,0.0,0.0,0.0,0.0,0.0,0.0,0.0,0.0,0.0,0.0,0.0,0.0,0.0,0.0,0.0,0.0,0.0,0.0,0.0,0.0,0.0,0.0,0.0,0.0,0.0,0.0,0.0,0.0,0.0,0.0,0.0,0.0,0.0,0.0,0.0,0.0,0.0,0.0,0.0,0.0,0.0,0.0,3.8994,4.1381,4.3316,4.4242,4.4599,4.5087,4.5849,4.6254,4.5576,4.3392,0.0,0.0,0.0,0.0,0.0,0.0,0.0,0.0,0.0,0.0,0.0,0.0,0.0,0.0,0.0,0.0,0.0,0.0,0.0,0.0,0.0,0.0,0.0,0.0,0.0,0.0,0.0,0.0,0.0,0.0,0.0,0.0,0.0,0.0,0.0,0.0,0.0,0.0,0.0,0.0,0.0,0.0,0.0,0.0,0.0,0.0,0.0,0.0,0.0,0.0,0.0,0.0,0.0,0.0,0.0,0.0,0.0,0.0,0.0,0.0,0.0,0.0,0.0,0.0,0.0,0.0,0.0,0.0,0.0,0.0,0.0,0.0,0.0,0.0,0.0,0.0,0.0,0.0,0.0,0.0,0.0,0.0,0.0,0.0,0.0,0.0,0.0,0.0,0.0,0.0,0.0,0.0,0.0,0.0,0.0,0.0,0.0,0.0,0.0,0.0,0.0,0.0,3.9622,4.2557,4.4844,4.5451,4.6337,4.7186,4.7877,4.7559,4.6757,0.0,0.0,0.0,0.0,0.0,0.0,0.0,0.0,0.0,0.0,0.0,0.0,0.0,0.0,0.0,0.0,0.0,0.0,0.0,0.0,0.0,0.0,0.0,0.0,0.0,0.0,0.0,0.0,0.0,0.0,0.0,0.0,0.0,0.0,0.0,0.0,0.0,0.0,0.0,0.0,0.0,0.0,0.0,0.0,0.0,0.0,0.0,0.0,0.0,0.0,0.0,0.0,0.0,0.0,0.0,0.0,0.0,0.0,0.0,0.0,0.0,0.0,0.0,0.0,0.0,0.0,0.0,0.0,0.0,0.0,0.0,0.0,0.0,0.0,0.0,0.0,0.0,0.0,0.0,0.0,0.0,0.0,0.0,0.0,0.0,0.0,0.0,0.0,0.0,0.0,0.0,0.0,0.0,0.0,0.0,0.0,0.0,0.0,0.0,0.0,0.0,0.0,0.0,3.912,4.2333,4.5074,4.6347,4.6726,4.7757,4.9978,4.9668,4.8586,4.6813,0.0,0.0,0.0,0.0,0.0,0.0,0.0,0.0,0.0,0.0,0.0,0.0,0.0,0.0,0.0,0.0,0.0,0.0,0.0,0.0,0.0,0.0,0.0,0.0,0.0,0.0,0.0,0.0,0.0,0.0,0.0,0.0,0.0,0.0,0.0,0.0,0.0,0.0,0.0,0.0,0.0,0.0,0.0,0.0,0.0,0.0,0.0,0.0,0.0,0.0,0.0,0.0,0.0,0.0,0.0,0.0,0.0,0.0,0.0,0.0,0.0,0.0,0.0,0.0,0.0,0.0,0.0,0.0,0.0,0.0,0.0,0.0,0.0,0.0,0.0,0.0,0.0,0.0,0.0,0.0,0.0,0.0,0.0,0.0,0.0,0.0,0.0,0.0,0.0,0.0,0.0,0.0,0.0,0.0,0.0,0.0,0.0,0.0,0.0,0.0,0.0,0.0,3.9195,4.3085,4.6272,4.7419,4.8623,4.9903,5.1334,5.142,5.0453,4.8222,0.0,0.0,0.0,0.0,0.0,0.0,0.0,0.0,0.0,0.0,0.0,0.0,0.0,0.0,0.0,0.0,0.0,0.0,0.0,0.0,0.0,0.0,0.0,0.0,0.0,0.0,0.0,0.0,0.0,0.0,0.0,0.0,0.0,0.0,0.0,0.0,0.0,0.0,0.0,0.0,0.0,0.0,0.0,0.0,0.0,0.0,0.0,0.0,0.0,0.0,0.0,0.0,0.0,0.0,0.0,0.0,0.0,0.0,0.0,0.0,0.0,0.0,0.0,0.0,0.0,0.0,0.0,0.0,0.0,0.0,0.0,0.0,0.0,0.0,0.0,0.0,0.0,0.0,0.0,0.0,0.0,0.0,0.0,0.0,0.0,0.0,0.0,0.0,0.0,0.0,0.0,0.0,0.0,0.0,0.0,0.0,0.0,0.0,0.0,0.0,0.0,0.0,3.9954,4.4579,4.8065,4.8853,5.1345,5.2811,5.2339,5.29,5.2211,4.9636,0.0,0.0,0.0,0.0,0.0,0.0,0.0,0.0,0.0,0.0,0.0,0.0,0.0,0.0,0.0,0.0,0.0,0.0,0.0,0.0,0.0,0.0,0.0,0.0,0.0,0.0,0.0,0.0,0.0,0.0,0.0,0.0,0.0,0.0,0.0,0.0,0.0,0.0,0.0,0.0,0.0,0.0,0.0,0.0,0.0,0.0,0.0,0.0,0.0,0.0,0.0,0.0,0.0,0.0,0.0,0.0,0.0,0.0,0.0,0.0,3.9738,3.9331,0.0,0.0,0.0,0.0,0.0,0.0,0.0,0.0,0.0,0.0,0.0,0.0,0.0,0.0,0.0,0.0,0.0,0.0,0.0,0.0,0.0,0.0,0.0,0.0,0.0,0.0,0.0,0.0,0.0,0.0,0.0,0.0,0.0,0.0,0.0,0.0,0.0,0.0,0.0,0.0,4.2473,4.6021,4.9287,5.1754,5.2644,5.3408,5.4433,5.4196,5.3084,5.093,4.9337,0.0,0.0,0.0,0.0,0.0,0.0,0.0,0.0,0.0,0.0,0.0,0.0,0.0,0.0,0.0,0.0,0.0,0.0,0.0,0.0,0.0,0.0,0.0,0.0,0.0,0.0,0.0,0.0,0.0,0.0,0.0,0.0,0.0,0.0,0.0,0.0,0.0,0.0,0.0,0.0,0.0,0.0,0.0,0.0,0.0,0.0,0.0,0.0,0.0,0.0,0.0,0.0,0.0,0.0,0.0,0.0,0.0,0.0,0.0,4.1085,4.0726,0.0,0.0,0.0,0.0,0.0,0.0,0.0,0.0,0.0,0.0,0.0,0.0,0.0,0.0,0.0,0.0,0.0,0.0,0.0,0.0,0.0,0.0,0.0,0.0,0.0,0.0,0.0,0.0,0.0,0.0,0.0,0.0,0.0,0.0,0.0,0.0,0.0,0.0,0.0,0.0,4.338,4.773,5.1236,5.283,5.3623,5.4381,5.5128,5.4581,5.3748,5.2701,5.0564,0.0,0.0,0.0,0.0,0.0,0.0,0.0,0.0,0.0,0.0,0.0,0.0,0.0,0.0,0.0,0.0,0.0,0.0,0.0,0.0,0.0,0.0,0.0,0.0,0.0,0.0,0.0,0.0,0.0,0.0,0.0,0.0,0.0,0.0,0.0,0.0,0.0,0.0,0.0,0.0,0.0,0.0,0.0,0.0,0.0,0.0,0.0,0.0,0.0,0.0,0.0,0.0,0.0,4.2493,4.2489,4.2982,4.239,4.2696,4.3609,4.2521,4.2271,4.2481,4.1354,0.0,0.0,0.0,0.0,0.0,0.0,0.0,0.0,0.0,0.0,0.0,0.0,0.0,0.0,0.0,0.0,0.0,0.0,0.0,0.0,0.0,0.0,4.4805,4.6052,4.6749,4.6719,4.5044,0.0,0.0,0.0,0.0,0.0,0.0,0.0,0.0,0.0,0.0,0.0,4.4403,4.949,5.3095,5.3361,5.4458,5.5179,5.5179,5.47,5.4341,5.4221,5.1648,4.9995,0.0,0.0,0.0,0.0,0.0,0.0,0.0,0.0,0.0,0.0,0.0,0.0,0.0,0.0,0.0,0.0,0.0,0.0,0.0,0.0,0.0,0.0,0.0,0.0,0.0,0.0,0.0,0.0,0.0,0.0,0.0,0.0,4.4244,4.4109,0.0,0.0,0.0,0.0,0.0,0.0,0.0,0.0,0.0,0.0,0.0,0.0,0.0,4.4933,4.6323,4.5382,4.5176,4.5709,4.5613,4.546,4.5245,4.5183,4.5096,4.5035,4.4855,0.0,4.316,4.301,0.0,0.0,0.0,0.0,0.0,0.0,0.0,0.0,0.0,0.0,0.0,0.0,0.0,0.0,0.0,0.0,0.0,0.0,0.0,0.0,0.0,0.0,4.9478,5.0249,5.0488,5.0488,5.0219,4.7459,4.4975,4.4825,4.3814,4.2396,0.0,0.0,0.0,0.0,0.0,0.0,4.7962,5.109,5.3492,5.4769,5.5078,5.5179,5.5179,5.5119,5.482,5.4251,5.3803,5.2785,5.0996,4.9546,0.0,0.0,0.0,0.0,0.0,0.0,0.0,0.0,0.0,0.0,0.0,0.0,0.0,0.0,0.0,0.0,0.0,0.0,0.0,0.0,0.0,0.0,0.0,0.0,0.0,0.0,0.0,0.0,0.0,4.6034,4.7106,4.7008,4.6991,4.6787,0.0,0.0,0.0,0.0,0.0,0.0,0.0,0.0,0.0,4.7739,4.6859,4.6613,4.7111,4.6748,4.6633,4.6817,4.6817,4.6952,4.7214,4.7214,4.7346,4.761,4.761,4.7286,4.6586,4.4658,4.3519,4.3,0.0,0.0,0.0,0.0,4.3169,4.3569,4.4197,4.4496,4.4586,4.4586,0.0,0.0,0.0,0.0,0.0,0.0,0.0,4.7339,4.8933,5.0069,5.1026,5.2067,5.2306,5.2306,5.2306,5.096,4.9307,4.784,4.669,4.5322,4.3342,4.2688,0.0,0.0,0.0,4.819,5.0089,5.2601,5.4483,5.5128,5.5179,5.5179,5.5179,5.5179,5.5059,5.479,5.4431,5.3778,5.2911,5.1259,4.9494,0.0,0.0,0.0,0.0,0.0,0.0,0.0,0.0,0.0,0.0,0.0,0.0,0.0,0.0,0.0,0.0,0.0,0.0,0.0,0.0,0.0,0.0,0.0,0.0,0.0,0.0,0.0,0.0,4.7964,4.8974,4.9255,4.9157,4.9113,0.0,0.0,0.0,0.0,0.0,0.0,4.9297,4.9502,4.9439,4.9033,4.8664,4.8385,4.8231,4.8231,4.8265,4.8302,4.8302,4.8536,4.9018,4.9212,4.9517,4.9948,5.014,5.0204,4.9994,4.7066,4.5776,4.5593,4.5277,4.5028,4.486,4.5011,4.5151,4.5424,4.6082,4.6651,4.707,4.707,4.6621,4.6052,4.6052,0.0,0.0,0.0,0.0,4.9344,5.0637,5.1475,5.2217,5.3204,5.3588,5.3707,5.3707,5.3707,5.3049,5.0744,4.9656,4.8489,4.6488,4.6229,0.0,4.5943,4.8638,5.0936,5.1642,5.3761,5.5179,5.5179,5.5179,5.5179,5.5179,5.5179,5.5179,5.5179,5.473,5.4461,5.4461,5.2851,5.1565,5.0727,0.0,0.0,0.0,0.0,0.0,0.0,0.0,0.0,0.0,0.0,0.0,0.0,0.0,0.0,0.0,0.0,0.0,0.0,0.0,0.0,0.0,0.0,0.0,0.0,0.0,0.0,0.0,0.0,0.0,4.9493,5.0529,0.0,0.0,0.0,0.0,5.1173,5.1612,5.1892,5.193,5.1909,5.1301,4.9965,4.9921,4.9929,4.9952,4.9986,5.0326,5.1004,5.1004,5.0894,5.068,5.1421,5.1583,5.1435,5.2128,5.2417,5.232,5.0813,4.9802,4.9296,4.9961,4.9611,4.8809,4.9357,4.8953,4.8199,4.8858,4.9097,4.9157,4.9157,4.8708,4.8169,4.8169,4.8147,0.0,0.0,5.0518,5.1379,5.2695,5.3533,5.4072,5.4132,5.464,5.5089,5.5089,5.5089,5.467,5.3288,5.297,5.2283,5.0336,0.0,4.9785,4.9011,5.0251,5.1671,5.2756,5.4245,5.5179,5.5179,5.5179,5.5179,5.5179,5.5179,5.5179,5.5179,5.5149,5.5149,5.5149,5.4431,5.3443,5.2127,5.1409,0.0,0.0,0.0,0.0,0.0,0.0,0.0,0.0,0.0,0.0,0.0,0.0,0.0,0.0,0.0,0.0,0.0,0.0,0.0,0.0,0.0,0.0,0.0,0.0,0.0,0.0,0.0,0.0,5.1542,5.1683,0.0,5.1366,5.1788,5.2206,5.2498,5.2684,5.2763,5.2813,5.2358,5.2114,5.2131,5.1221,5.1045,5.1565,5.1063,5.1183,5.1911,5.2418,5.2876,5.3274,5.4012,5.4035,5.353,5.4261,5.4309,5.3929,5.4364,5.3344,5.1526,5.1802,5.1222,5.0247,5.0443,5.0358,5.0212,5.0451,5.1079,5.1821,5.1821,5.1642,5.1462,5.1462,5.1738,5.2097,5.2127,5.2606,5.324,5.3713,5.4012,5.4311,5.473,5.5029,5.5324,5.5743,5.5833,5.5833,5.5718,5.5029,5.4276,5.3553,5.3799,5.4001,5.3717,5.4436,5.519,5.5585,5.5764,5.5833,5.5833,5.5474,5.5179,5.5179,5.5179,5.5179,5.5179,5.5179,5.5179,5.5179,5.497,5.4431,5.3503,5.324,5.1439,0.0,0.0,0.0,0.0,0.0,0.0,0.0,0.0,0.0,0.0,0.0,0.0,0.0,0.0,0.0,0.0,0.0,0.0,0.0,0.0,0.0,0.0,0.0,0.0,0.0,5.0754,5.1465,5.2588,5.2481,5.2354,5.2416,5.2611,5.2883,5.3162,5.3214,5.3324,5.3581,5.3148,5.3142,5.3701,5.2816,5.2488,5.2761,5.2492,5.2594,5.3078,5.389,5.4499,5.5006,5.5733,5.5818,5.5378,5.6375,5.6562,5.619,5.7408,5.6824,5.509,5.458,5.3753,5.2869,5.3049,5.2832,5.2486,5.2486,5.2808,5.3198,5.3198,5.3198,5.3258,5.3468,5.3683,5.3832,5.3593,5.3683,5.3803,5.3593,5.4042,5.4581,5.482,5.5359,5.5957,5.6402,5.6492,5.6641,5.7004,5.6406,5.5837,5.5837,5.6222,5.6432,5.6222,5.6705,5.7004,5.6821,5.6641,5.6432,5.6222,5.5803,5.5474,5.5209,5.497,5.497,5.5179,5.497,5.497,5.5179,5.4785,5.4311,5.3862,5.3653,5.2247,4.9613,0.0,0.0,0.0,0.0,0.0,0.0,0.0,0.0,0.0,0.0,0.0,0.0,0.0,0.0,0.0,0.0,0.0,0.0,0.0,0.0,0.0,0.0,0.0,5.0821,5.1104,5.1639,5.2438,5.2914,5.3214,5.3214,5.3214,5.3214,5.3251,5.3251,5.3581,5.4399,5.4436,5.4512,5.4652,5.4627,5.4309,5.3608,5.4295,5.4631,5.4634,5.5361,5.5767,5.58,5.6528,5.6867,5.6968,5.8371,5.8979,5.9013,5.981,6.0114,5.9945,5.8543,5.7489,5.6798,5.729,5.6402,5.5023,5.5023,5.4216,5.3228,5.3228,5.3228,5.3348,5.4012,5.3743,5.3348,5.4012,5.3713,5.3079,5.2456,5.3743,5.5029,5.4431,5.5748,5.7094,5.7124,5.7124,5.7124,5.7154,5.7154,5.7154,5.7124,5.7124,5.6944,5.6372,5.6791,0.0,5.6372,5.6765,5.6885,5.6282,5.6222,5.5953,5.5269,5.461,5.4521,5.5179,5.461,5.4521,5.5149,5.3947,5.3258,5.3258,5.2546,5.2187,5.2187,0.0,0.0,0.0,0.0,0.0,0.0,0.0,0.0,0.0,0.0,0.0,0.0,0.0,0.0,0.0,0.0,0.0,0.0,0.0,0.0,0.0,5.0565,5.1456,5.1216,5.1538,5.2096,5.2907,5.3114,5.3214,5.3214,5.3214,5.3434,5.4032,5.4069,5.4436,5.5218,5.5254,5.5544,5.6179,5.5633,5.5532,5.5971,5.5586,5.5417,5.5412,5.6156,5.6799,5.7306,5.7527,5.7881,5.8404,5.881,5.8693,5.8287,5.9573,6.0114,6.0047,5.9641,5.8889,5.8031,5.8173,5.7163,5.5736,5.5736,5.4949,5.3922,5.3922,5.3593,5.3438,5.4551,5.4102,5.3348,5.4012,5.3713,5.3378,5.4162,5.479,5.5388,5.6137,5.6705,5.7244,5.7696,5.7842,5.7965,5.8471,5.856,5.8411,5.7905,5.7842,5.7932,5.8261,5.8441,5.8501,5.8321,5.8022,5.7573,5.6915,5.6462,5.6132,5.5953,5.5299,5.5209,5.5893,5.5299,5.4999,5.5179,5.485,5.4665,5.4665,5.3025,5.2187,0.0,0.0,0.0,0.0,0.0,0.0,0.0,0.0,0.0,0.0,0.0,0.0,0.0,0.0,0.0,0.0,0.0,0.0,0.0,0.0,0.0,0.0,5.2177,5.283,5.2389,5.2594,5.2857,5.3162,5.3214,5.3324,5.3654,5.3691,5.4032,5.484,5.4913,5.5244,5.6051,5.5814,5.6302,5.7753,5.6725,5.6551,5.7408,5.6884,5.6472,5.6172,5.7221,5.7949,5.8355,5.8355,5.8592,5.9013,5.9013,5.893,5.8896,5.9742,6.0317,6.0554,0.0,0.0,0.0,0.0,5.8094,5.6902,5.6442,5.5519,5.4425,5.3944,5.3503,5.3408,5.4461,5.4042,5.3348,5.4012,5.3713,5.3378,5.4186,5.4995,5.5803,5.6551,5.7334,5.8052,5.8414,5.874,5.9069,5.9428,5.9757,0.0,5.9069,5.871,5.856,5.8653,5.8919,5.9009,5.874,5.859,5.8261,5.7603,5.7214,5.6885,5.6611,5.5983,0.0,0.0,0.0,5.5384,5.479,5.479,0.0,0.0,0.0,5.3294,5.3862,5.2989,0.0,0.0,5.1774,5.1594,0.0,0.0,0.0,0.0,0.0,0.0,0.0,0.0,0.0,0.0,0.0,0.0,0.0,0.0,0.0,0.0,5.3669,5.4368,5.4009,5.3935,5.3783,5.3388,5.3324,5.3654,5.4473,5.4546,5.4876,5.5658,5.5732,5.6102,5.6891,5.6309,0.0,0.0,0.0,5.7367,5.8088,5.8041,5.7689,5.707,5.8371,5.9047,5.9115,5.8945,5.8945,5.9115,5.9047,5.9351,5.9979,6.008,6.052,6.1095,6.0385,6.0275,6.0477,5.9816,5.8938,5.7957,5.7045,0.0,0.0,5.3598,5.3258,5.3348,5.4102,5.3773,5.3378,5.4102,5.3832,5.3378,5.3677,5.5085,5.6462,5.6701,5.8052,5.9338,5.9338,5.9787,6.0206,6.0206,6.0685,6.0924,6.0296,5.9668,5.9009,5.8294,5.8713,5.889,5.8294,5.8713,5.886,5.8175,5.8085,0.0,5.7274,5.6671,5.6551,5.7184,5.6641,5.5773,5.4581,5.4551,5.4251,5.3648,5.4221,5.5119,5.6312,5.6915,5.7244,5.7244,5.3653,5.324,0.0,0.0,0.0,0.0,0.0,0.0,0.0,0.0,0.0,0.0,0.0,0.0,0.0,0.0,0.0,5.2571,5.3669,5.4556,5.4746,5.4782,5.4637,5.4207,5.4179,5.4473,5.5291,5.5365,5.5684,5.6528,5.6565,5.691,5.7729,5.7611,5.7765,5.8224,5.7888,5.7767,5.7923,5.8493,5.8723,5.8573,5.8844,0.0,5.9844,5.866,5.8761,5.9844,5.925,5.9081,5.925,5.9844,6.0182,6.0317,6.0148,6.0116,6.0179,6.0045,5.8713,5.6981,5.6765,5.5312,5.3574,5.3906,5.3623,5.3438,5.464,5.4186,0.0,5.467,5.4521,5.4491,5.6589,5.7427,5.8141,5.9787,6.0446,6.0687,6.0687,6.0835,6.0924,6.0924,6.1014,6.1074,6.0954,6.0356,5.9668,5.9009,5.9009,5.9069,5.8919,5.9039,5.886,5.8175,5.8085,5.8055,5.7905,5.7304,5.7214,5.7846,5.7304,5.6795,5.6555,5.6526,5.6466,5.6346,5.6466,5.6675,5.6915,5.7603,5.8175,5.868,5.7367,5.7038,0.0,0.0,0.0,0.0,0.0,0.0,0.0,0.0,0.0,0.0,0.0,5.1508,5.2176,0.0,5.3763,5.4344,5.4806,5.5216,5.5547,5.5414,5.5233,5.503,5.4997,5.5317,5.6124,5.6198,5.6712,5.7912,5.7631,5.7773,5.8546,5.7854,5.7774,5.8602,5.8142,5.829,5.9078,5.9389,5.9351,5.9013,5.9351,5.9573,5.9539,5.8795,5.8863,5.9487,5.8761,5.866,5.9013,5.9385,5.9573,5.9573,5.9573,5.9573,5.9607,5.9979,5.9159,5.7735,5.6959,5.5932,5.48,5.3947,5.3683,5.3832,5.4491,5.4461,5.4426,5.5414,5.5658,5.6047,5.7666,5.8593,5.9368,6.0356,6.0864,6.1076,6.1076,6.1373,6.1613,6.1613,6.1882,6.2002,6.1672,6.1313,6.0745,5.9757,5.9608,5.9488,5.9129,5.9099,5.8979,5.865,5.8593,5.8593,5.8593,5.8291,5.8231,5.859,5.8291,5.7962,5.7633,5.7603,5.7453,5.7094,5.7752,5.8452,5.9148,6.0128,6.0954,6.1572,6.1269,6.0553,0.0,0.0,0.0,0.0,0.0,0.0,0.0,5.051,5.0758,5.2144,5.2664,5.3288,5.4516,5.4963,5.539,5.6259,5.6084,5.5933,5.6276,5.604,5.5952,5.6271,5.6025,5.6198,5.7178,5.7136,5.7652,5.9079,5.8464,5.8272,5.89,5.7853,5.7851,5.9111,5.8632,5.8873,6.0047,6.0065,5.9742,5.9013,5.9607,5.9573,5.9013,5.8844,5.8795,5.8761,5.8152,5.8321,5.9013,5.9013,5.9081,5.9216,5.9216,5.9216,5.9284,5.9877,5.9443,5.8378,5.7289,5.6587,5.5907,5.4152,5.4042,5.4581,5.4581,5.5059,5.5688,5.6402,5.6915,5.7513,5.8444,5.9488,6.0356,6.0595,6.1104,6.1493,6.1493,6.1912,6.2301,6.2301,6.2748,6.2928,6.2391,6.2301,6.1822,6.0475,6.0266,6.0086,5.9578,5.9488,5.9488,5.9488,5.9488,5.9428,5.9308,5.9308,5.9249,5.9129,5.9099,5.8919,5.853,5.8474,5.8424,5.826,5.9345,6.0577,6.199,6.3282,6.3977,6.4098,6.4392,6.3432,5.1381,5.1571,5.2005,5.3549,5.3356,5.3164,0.0,5.4434,5.439,5.6017,5.6385,5.6698,5.7626,5.7513,5.7159,5.6871,5.644,5.6266,5.6695,5.6709,5.7178,5.8646,5.7545,5.7251,5.8792,5.8285,5.8241,5.9134,5.8445,5.7988,5.8022,5.8538,5.8909,5.9005,5.9565,5.9629,5.9146,5.9798,5.9742,5.9013,5.9081,5.9081,5.8979,5.8321,5.8017,5.8017,5.7934,5.8321,5.9013,5.9013,5.9404,5.9979,5.9979,5.9979,5.9979,6.008,5.8781,5.7013,5.7438,5.6216,5.4532,5.486,5.5444,5.5983,5.5983,5.6376,5.7034,5.7723,5.7935,5.8414,6.0268,6.0894,6.1283,6.2479,6.2838,6.2898,6.2898,6.2958,6.2988,6.2988,6.3048,6.3078,6.3018,6.2988,6.251,6.1194,6.1014,6.0956,6.0894,6.0894,6.0894,6.0894,6.0894,6.0655,6.0027,5.9967,5.9727,5.9129,5.9099,5.9338,5.9847,5.9877,6.0681,6.2417,6.2571,6.3365,6.4761,6.616,6.5888,6.4137,6.5371,6.4808,5.3293,5.4178,5.4934,5.5126,5.5324,5.5593,5.6285,5.6209,5.6285,5.7511,5.7553,5.7551,5.817,5.7673,5.7297,5.754,5.7585,5.7724,5.8139,5.8609,5.9123,5.982,5.9306,5.9159,5.982,5.9167,5.9038,5.9844,5.8673,5.8331,5.925,5.9131,5.9248,5.9607,5.9945,6.0182,6.0332,6.0182,5.9945,5.9641,5.9216,5.8776,5.8355,5.8017,5.8118,5.8558,5.8558,5.8964,5.9641,5.9641,6.0114,6.0791,6.0791,6.1061,6.14,6.096,5.9751,5.831,5.833,5.7488,5.6347,5.5937,5.6222,5.6705,5.6705,5.7184,5.7842,5.8474,5.9221,6.0119,6.1373,6.1972,6.2391,6.2988,6.3108,6.3108,6.3108,6.3108,6.3108,6.3108,6.3108,6.3108,6.3108,6.3108,6.2928,6.2331,6.1942,6.1553,6.1136,6.1076,6.1076,6.1076,6.1076,6.1014,6.0715,6.0685,6.0565,6.0296,6.0266,6.0386,6.0685,6.1416,6.223,6.3087,6.4701,6.6217,6.7647,6.7777,6.76,6.7045,6.6045,6.4836,5.5022,5.6247,5.7209,5.6549,5.6901,5.7363,5.7363,5.7363,5.7566,5.828,5.8176,5.8072,5.8514,5.8128,5.7928,5.851,5.8868,5.9183,5.9475,6.004,6.0493,6.0713,6.075,6.0811,6.1015,5.993,5.9515,6.0302,5.9018,5.8806,6.0166,5.9657,5.9573,6.008,6.0114,6.0283,6.0655,6.008,5.9708,5.9471,5.8964,5.8423,5.79,5.8084,5.8626,5.9284,5.9284,5.9742,6.0419,6.0419,6.0892,6.1637,6.1839,6.2245,6.2651,6.2347,6.1098,5.9544,5.9424,5.8664,5.7609,5.671,5.6855,5.7393,5.7393,5.7992,5.8773,5.9458,6.0475,6.1523,6.2181,6.2748,6.3108,6.3108,6.3108,6.3108,6.3108,6.3108,6.3108,6.3108,6.3108,6.3108,6.3108,6.3108,6.3108,6.3108,6.2689,6.2181,6.1702,6.1642,6.1642,6.1642,6.1493,6.1313,6.1134,6.0954,6.0745,6.0565,6.0715,6.1061,6.1654,6.296,6.4135,6.5075,6.7336,6.8843,6.9667,6.9314,6.878,6.8024,6.6425,6.5081,5.6711,5.7588,5.8236,5.8236,5.8236,5.8275,5.8275,5.8275,5.8342,5.8693,5.8761,5.8873,5.9282,5.9609,5.982,5.982,6.0126,6.0358,6.0346,6.0382,6.0676,6.1484,6.1557,6.1832,6.257,6.0543,5.9491,6.0252,5.9465,5.9306,6.005,6.0099,6.008,6.0114,6.0114,5.9776,5.9081,5.9047,5.8693,5.7967,5.7934,5.7934,5.7915,5.866,5.9351,6.008,6.008,6.052,6.1264,6.1264,6.1704,6.2415,6.3159,6.3443,6.3545,6.4241,6.2512,5.99,6.0595,5.9214,5.7116,5.709,5.7513,5.8055,5.8055,5.9009,6.0176,6.0864,6.1553,6.2211,6.2898,6.3078,6.3108,6.3108,6.3108,6.3108,6.3108,6.3108,6.3108,6.3108,6.3108,6.3108,6.3108,6.3108,6.3108,6.3108,6.3078,6.3078,6.3048,6.3048,6.3048,6.3048,6.245,6.1822,6.1164,6.0505,5.9847,5.9189,5.9757,6.101,6.2955,6.439,6.6717,7.0018,7.0939,7.1021,7.0287,7.1021,6.9297,6.525,6.6527,6.602,5.7082,5.844,5.9973,5.9973,5.9973,6.003,6.0237,6.0297,6.0223,6.0045,6.0166,6.0144,5.9505,5.9845,6.0137,5.9923,6.062,6.119,6.119,6.1667,6.2067,6.23,6.2318,6.2213,6.1885,6.1697,6.1443,6.1051,6.0341,5.9967,6.0084,5.9641,5.9607,6.008,5.9641,5.9487,5.9742,5.8761,5.8389,5.8626,5.8626,5.8896,5.937,5.9607,6.0148,6.0892,6.0892,6.1603,6.2767,6.2767,6.3193,6.3869,6.414,6.4241,6.4343,6.5053,6.3561,6.1174,6.0956,6.0118,5.8935,5.8068,5.8205,5.877,5.877,5.9697,6.0894,6.1583,6.254,6.3528,6.4186,6.4366,6.4366,6.4366,6.4366,6.4366,6.4366,6.4366,6.4366,6.4366,6.4006,6.3677,6.3677,6.3377,6.3108,6.3108,6.3108,6.3108,6.3108,6.3108,6.2928,6.248,6.2241,6.1822,6.1136,6.0894,6.0685,6.0446,6.1892,6.3287,6.4448,6.7118,6.9364,7.1079,7.1367,7.1573,7.1663,6.9636,6.8119,6.7128,6.6192,6.5346,5.8363,5.9787,6.1296,6.1397,6.1441,6.1457,6.146,6.147,6.1347,6.0886,6.0967,6.081,5.9901,6.0348,6.0771,6.0548,6.1367,6.2144,6.245,6.2952,6.3221,6.3148,6.312,6.2786,6.1901,6.2615,6.2671,6.1439,6.0714,6.0341,6.0524,5.9554,5.9216,5.9708,5.8998,5.8829,5.9302,5.8626,5.866,5.9404,5.9404,5.981,6.0554,6.0791,6.1366,6.211,6.2381,6.3024,6.3903,6.3903,6.4174,6.4613,6.4884,6.4986,6.5087,6.5831,6.4773,6.2857,6.1953,6.0816,5.9622,5.9004,5.9099,5.9488,5.9757,6.0595,6.1553,6.1972,6.2839,6.3827,6.4456,6.4635,6.4695,6.4934,6.4994,6.4994,6.4994,6.4994,6.4994,6.4994,6.4635,6.4366,6.4366,6.3827,6.3408,6.3408,6.3257,6.3108,6.3108,6.3108,6.2838,6.2181,6.1882,6.1463,6.0805,6.1212,6.1601,6.1871,6.4013,6.5802,6.7049,6.9707,7.1235,7.1499,7.2002,7.1662,7.0524,6.8536,6.7394,6.7037,6.5889,6.5353,6.045,6.1482,6.2158,6.2551,6.2597,6.2449,6.1935,6.1817,6.1685,6.1203,6.1162,6.1036,6.049,6.1117,6.1716,6.1667,6.2365,6.3196,6.4066,6.4176,6.4111,6.3914,6.3884,6.3525,6.2525,6.3167,6.3014,6.1365,6.0577,6.0476,6.1163,5.9757,5.8945,5.8945,5.8287,5.7967,5.7967,5.8693,5.9438,6.0148,6.0148,6.0588,6.1434,6.2144,6.2854,6.3579,6.4309,6.4613,6.4647,6.4647,6.4681,6.4783,6.5459,6.5784,6.592,6.6609,6.6052,6.4832,6.3626,6.1469,5.933,5.9934,6.0146,6.0266,6.0924,6.1583,6.2121,6.2121,6.263,6.3287,6.3887,6.4066,6.4276,6.4904,6.5084,6.5084,6.5084,6.5084,6.5084,6.5084,6.5084,6.5024,6.4994,6.4456,6.4066,6.4066,6.3558,6.3168,6.3108,6.3078,6.2808,6.2151,6.1493,6.0862,6.0286,6.1514,6.2628,6.3349,6.5968,6.8388,7.0435,7.1895,7.2357,7.1631,7.2791,7.1411,6.7302,6.7812,6.7069,6.5114,6.5772,6.6071,6.1867,6.2025,6.2054,6.2776,6.2476,6.2039,6.216,6.2187,6.2039,6.1583,6.197,6.1947,6.0627,6.2071,6.3246,6.2622,6.371,6.4738,6.4971,6.5007,6.4713,6.3921,6.382,6.3243,6.1748,6.1804,6.1509,6.0491,6.0855,6.0672,5.9626,5.8693,5.8186,5.8186,5.8524,5.8727,5.8727,5.9471,6.0216,6.0994,6.0994,6.167,6.2936,6.3125,6.3632,6.4343,6.4512,6.4918,6.5425,6.5425,6.573,6.625,6.644,6.6846,6.7354,6.7557,6.7178,6.6483,6.6181,6.3967,6.119,6.0927,6.0864,6.0894,6.1074,6.1583,6.2181,6.2718,6.3288,6.3917,6.4575,6.5144,6.5533,6.5682,6.6131,6.649,6.649,6.649,6.649,6.649,6.6101,6.5562,6.5084,6.4845,6.4725,6.4725,6.4605,6.4186,6.3227,6.266,6.2271,6.2121,6.1493,6.1428,6.2265,6.3207,6.4043,6.469,6.784,6.9944,7.0459,7.2792,7.3785,7.3082,7.1857,7.0385,6.8703,6.7265,6.6523,6.649,6.667,6.6759,6.2576,6.2615,6.2504,6.3158,6.2938,6.2562,6.2513,6.2535,6.2442,6.2181,6.2805,6.3099,6.2181,6.3466,6.4457,6.3967,6.4701,6.5398,6.5778,6.5463,6.499,6.4386,6.3716,6.2735,6.1418,6.0994,6.0588,6.0148,6.028,6.0011,5.905,5.8626,5.8389,5.8389,5.9099,5.9674,5.9994,6.0419,6.1197,6.2279,6.2279,6.2888,6.3984,6.4343,6.4681,6.5087,6.5425,6.5797,6.6203,6.6542,6.6914,6.732,6.7692,6.8064,6.8436,6.8436,6.7848,6.7053,6.6757,6.5026,6.2871,6.2527,6.2433,6.2356,6.205,6.2241,6.2629,6.2988,6.3318,6.3827,6.4755,6.5263,6.5682,6.6311,6.6729,6.6999,6.6999,6.6999,6.6999,6.6999,6.67,6.6311,6.5951,6.5622,6.5443,6.5443,6.4934,6.4306,6.3588,6.3169,6.272,6.2151,6.1762,6.1709,6.2167,6.431,6.5888,6.6561,7.0486,7.2777,7.2777,7.3976,7.3874,7.2242,7.0681,6.9214,6.7778,6.6884,6.664,6.6999,6.6999,6.6999,6.2956,6.3106,6.3128,6.3433,6.3498,6.3363,6.2917,6.2793,6.2793,6.2793,6.3503,6.4103,6.4103,6.4751,6.5325,6.5435,6.5472,6.5702,6.6379,6.5777,6.5156,6.4862,6.352,6.2251,6.1395,6.0588,6.0114,6.0114,5.9487,5.9148,5.9148,5.9148,5.9182,5.9284,5.9945,6.0689,6.1603,6.1603,6.2279,6.3646,6.3646,6.4038,6.4783,6.5412,6.5751,6.5865,6.6542,6.6859,6.6994,6.7658,6.7963,6.8132,6.8842,6.9147,6.9248,6.9248,6.8562,6.7578,6.6996,6.5912,6.4688,6.4158,6.3969,6.3879,6.3299,6.3108,6.3108,6.3108,6.3108,6.3377,6.4545,6.4934,6.5323,6.658,6.6939,6.6999,6.6999,6.6999,6.6969,6.6879,6.6939,6.6969,6.6879,6.64,6.6011,6.6011,6.4934,6.4096,6.4006,6.3857,6.3348,6.2331,6.2151,6.2111,6.2201,6.5596,6.8145,6.9142,7.3398,7.5672,7.5301,7.4821,7.3188,7.0303,6.9546,6.8196,6.6131,6.67,6.6999,6.6999,6.6999,6.6999,6.3462,6.3185,6.2878,6.2916,6.2929,6.2892,6.2818,6.2793,6.2793,6.2793,6.3503,6.4103,6.4103,6.4751,6.5508,6.6182,6.6292,6.6335,6.641,6.6277,6.562,6.4096,6.3151,6.2251,6.1395,6.0588,6.0114,6.0114,5.9979,5.9911,5.9911,5.9911,6.0216,6.0892,6.1028,6.1738,6.3105,6.3105,6.3545,6.441,6.441,6.4783,6.5493,6.5649,6.6034,6.6643,6.6724,6.7151,6.7726,6.7861,6.8301,6.891,6.9045,6.9451,6.9992,6.9992,7.0253,7.0568,7.0442,6.9491,6.7755,6.4356,6.3269,6.3242,6.3164,6.3108,6.3108,6.3108,6.3108,6.3287,6.3977,6.4575,6.5203,6.6011,6.661,6.6999,6.6999,6.6999,6.6819,6.6281,6.661,6.6819,6.6281,6.6071,6.6011,6.6011,6.5323,6.4635,6.4066,6.3079,6.254,6.2898,6.2421,6.3675,6.7619,6.9175,7.098,7.3361,7.5528,7.5564,7.3086,7.3521,7.2394,6.9475,6.9284,6.8441,6.6819,6.6939,6.6999,6.6999,6.6999,6.6999,6.318,6.3002,6.2793,6.2793,6.2793,6.2793,6.2793,6.2793,6.2939,6.3392,6.4127,6.4861,6.5264,6.5999,6.6549,6.6512,6.6843,6.682,6.5858,6.5679,6.5325,6.4384,6.2883,6.1919,6.1898,6.0791,6.0283,6.0689,6.0723,6.0554,6.0114,6.0486,6.1061,6.1839,6.2245,6.2767,6.3477,6.3883,6.4444,6.5155,6.5155,6.5561,6.6271,6.6271,6.6677,6.7387,6.7387,6.7827,6.8538,6.8944,6.9316,6.9722,7.0094,7.0466,7.077,7.077,7.1007,7.1098,6.9666,6.8699,6.7597,6.4209,6.3564,6.3984,6.3308,6.3108,6.3108,6.3108,6.3108,6.3347,6.4276,6.4755,6.5263,6.6281,6.6759,6.6879,6.655,6.649,6.6281,6.5592,6.5742,6.5862,6.5532,6.5473,6.5473,6.5473,6.5203,6.4874,6.4545,6.4006,6.3468,6.3138,6.3791,6.5189,6.7544,7.0089,7.2142,7.3462,7.4938,7.4938,7.3097,7.2304,7.102,6.923,6.8473,6.7698,6.6999,6.6999,6.6999,6.6999,6.6999,6.6999,6.2793,6.2793,6.2793,6.2793,6.2793,6.2793,6.2793,6.2939,6.327,6.3943,6.4861,6.5742,6.6366,6.704,6.7297,6.6843,6.699,6.6692,6.5259,6.5014,6.4826,6.4332,6.2681,6.1772,6.2347,6.1163,6.0689,6.1467,6.167,6.1501,6.0858,6.1434,6.211,6.2854,6.3429,6.3815,6.3951,6.4546,6.5222,6.5933,6.5933,6.6305,6.7028,6.7028,6.7455,6.8166,6.8166,6.8605,6.9383,6.9958,7.0297,7.05,7.1052,7.1289,7.1289,7.1289,7.1391,7.1243,6.9059,6.823,6.7721,6.5248,6.4626,6.4671,6.3603,6.3407,6.3527,6.3527,6.3527,6.3797,6.5084,6.5413,6.5742,6.7119,6.7298,6.7029,6.637,6.6101,6.5772,6.4934,6.5024,6.5174,6.5024,6.5114,6.5203,6.5203,6.5084,6.4994,6.4994,6.529,6.5075,6.4107,6.5458,6.6803,6.771,7.0603,7.2699,7.3476,7.4258,7.422,7.3154,7.1458,6.9961,6.8737,6.7608,6.6999,6.6999,6.6999,6.6999,6.6999,6.7148,6.7208,6.2793,6.2793,6.2793,6.2793,6.2793,6.2793,6.2793,6.3429,6.3992,6.4066,6.5301,6.6402,6.6476,6.6549,6.6843,6.748,6.6439,6.5391,6.5057,6.4964,6.4323,6.2804,6.2425,6.2333,6.2381,6.167,6.1501,6.2265,6.2922,6.3274,6.3173,6.324,6.3632,6.4377,6.4478,6.4816,6.5493,6.5581,6.5967,6.669,6.669,6.7083,6.7793,6.7793,6.8233,6.8977,6.8977,6.9417,7.0094,7.0184,7.0601,7.1188,7.1255,7.1289,7.1289,7.1289,7.1718,7.2247,7.2007,7.158,7.0846,6.9274,6.662,6.4062,6.3975,6.4366,6.4815,6.4815,6.4815,6.5114,6.646,6.6819,6.7148,6.8495,6.8345,6.7718,6.7029,6.643,6.5622,6.4336,6.5084,6.5682,6.5084,6.5503,6.5922,6.5922,6.5383,6.4994,6.4994,6.6163,6.6953,6.683,6.7001,6.872,7.2677,7.214,7.2998,7.6273,7.5371,7.377,7.1691,7.1397,7.0007,6.7274,6.7061,6.6999,6.6999,6.6999,6.6999,6.6999,6.7628,6.7928,6.3429,6.3576,6.3686,6.4187,6.3943,6.3576,6.3576,6.3833,6.4249,6.4714,6.5705,6.6659,6.715,6.6783,6.6365,6.6183,6.5561,6.4724,6.3639,6.3904,6.3894,6.3148,6.2651,6.2753,6.3632,6.3057,6.2922,6.3666,6.4005,6.4377,6.4783,6.441,6.4309,6.458,6.5019,6.5392,6.5717,6.6136,6.6745,6.7455,6.7455,6.7861,6.8605,6.8605,6.9045,6.9755,6.9755,7.0432,7.1481,7.1041,7.1312,7.1921,7.1458,7.156,7.1954,7.1954,7.2428,7.2945,7.2128,7.1111,6.9937,6.85,6.677,6.5144,6.4695,6.4785,6.4994,6.4994,6.5293,6.5832,6.6759,6.7329,6.7628,6.7777,6.7567,6.7208,6.655,6.6191,6.5742,6.4755,6.5024,6.5293,6.5054,6.5203,6.5383,6.5383,6.5503,6.5921,6.6803,6.7022,6.8108,7.0765,7.0671,7.1142,7.2899,7.3665,7.4256,7.4872,7.436,7.2865,7.0199,7.0086,6.9114,6.706,6.6999,6.6999,6.6999,6.7419,6.7598,6.7628,6.8317,6.8585,6.3906,6.4286,6.4604,6.5141,6.4861,6.4457,6.4457,6.464,6.4971,6.5558,6.6292,6.6973,6.7268,6.6823,6.6169,6.5515,6.5161,6.4612,6.3653,6.3958,6.4193,6.3868,6.3565,6.3788,6.4816,6.4478,6.4377,6.4884,6.4918,6.5256,6.5967,6.573,6.5493,6.5256,6.5967,6.636,6.636,6.7117,6.776,6.8267,6.8267,6.8673,6.9417,6.9417,6.9823,7.0534,7.0534,7.1244,7.236,7.1853,7.2056,7.2665,7.2157,7.2259,7.2732,7.2732,7.3172,7.3698,7.2719,7.1878,7.0889,6.9046,6.8057,6.7354,6.5982,6.5562,6.5562,6.5562,6.6071,6.67,6.7148,6.7808,6.8197,6.7687,6.7418,6.7089,6.643,6.6131,6.5802,6.5114,6.5144,6.5293,6.5293,6.5443,6.5562,6.5562,6.6011,6.6673,6.7709,6.8108,6.9488,7.2625,7.3282,7.3517,7.3517,7.446,7.481,7.4256,7.3438,7.2009,6.9944,6.9619,6.8716,6.7029,6.7388,6.7478,6.7329,6.7987,6.8317,6.8317,6.8974,6.9393,6.4103,6.4677,6.5288,6.5288,6.5288,6.5288,6.5288,6.5888,6.6476,6.6476,6.715,6.7447,6.6568,6.6404,6.6346,6.6126,6.5428,6.5125,6.5785,6.5805,6.5493,6.4681,6.5222,6.5683,6.5683,6.5683,6.5683,6.5683,6.5683,6.6,6.6757,6.7489,6.7523,6.6791,6.7489,6.7895,6.7895,6.8673,6.9079,6.9079,6.9079,6.9451,7.0184,7.0184,7.0601,7.1289,7.1289,7.1718,7.2394,7.2394,7.28,7.35,7.35,7.35,7.35,7.35,7.395,7.457,7.457,7.5043,7.5151,7.2302,7.136,7.081,6.7848,6.6969,6.6969,6.6969,6.7479,6.7987,6.7987,6.8465,6.9004,6.8974,6.8465,6.7808,6.7119,6.646,6.5802,6.5114,6.5532,6.6011,6.6011,6.655,6.6969,6.6969,6.6969,6.7,6.7,6.9545,7.136,7.1415,7.3972,7.5652,7.5652,7.4414,7.4214,7.558,7.3018,7.142,7.136,7.0602,6.9176,6.7029,6.8286,6.8645,6.7987,6.8645,6.9004,6.9004,6.9662,7.029,6.4604,6.5105,6.5545,6.6659,6.6512,6.594,6.5325,6.5357,6.5381,6.4782,6.53,6.5775,6.5506,6.4952,6.4707,6.5125,6.4507,6.4012,6.4215,6.4702,6.4889,6.462,6.5696,6.644,6.644,6.644,6.644,6.644,6.6914,6.732,6.7557,6.8301,6.8368,6.759,6.8301,6.8707,6.8707,6.8977,6.935,6.9857,6.9857,7.0229,7.0973,7.0973,7.1075,7.1323,7.1853,7.2462,7.3138,7.3138,7.3578,7.4221,7.368,7.3815,7.4255,7.4255,7.4728,7.5337,7.5337,7.4862,7.3955,7.2009,7.0699,6.9516,6.7608,6.6999,6.7089,6.7568,6.7838,6.7987,6.7987,6.8167,6.8227,6.7747,6.8243,6.8511,6.7243,6.7637,6.784,6.6613,6.655,6.667,6.667,6.6849,6.6999,6.6999,6.7849,6.8883,6.9888,7.081,7.2143,7.4123,7.4306,7.4662,7.5604,7.5316,7.481,7.4306,7.3788,7.2638,7.0662,7.0769,7.0096,6.8407,6.8794,6.8884,6.8675,6.9333,6.9901,7.032,7.053,7.0709,6.4457,6.5301,6.5999,6.699,6.7113,6.6692,6.5786,6.5595,6.5334,6.4437,6.4629,6.49,6.4581,6.4287,6.4265,6.4683,6.4492,6.4444,6.4695,6.5392,6.5967,6.6271,6.7117,6.7692,6.7692,6.7692,6.7692,6.7692,6.8098,6.8335,6.8335,6.9079,6.9282,6.8774,6.9248,6.9519,6.9519,6.9789,7.0161,7.0601,7.0601,7.1007,7.1718,7.1718,7.1887,7.2157,7.2631,7.324,0.0,7.3916,7.4356,7.4965,7.4492,7.4593,7.5033,7.5033,7.5303,7.5709,7.5709,7.4761,7.3361,7.188,7.0029,6.8206,6.7274,6.6999,6.7089,6.7508,6.7628,6.7752,6.8304,6.8425,6.8485,6.8654,6.9375,6.9774,6.8883,6.894,6.8911,6.8028,6.7366,6.6999,6.6999,6.6999,6.7183,6.7729,6.8619,6.9717,7.1196,7.1875,7.2914,7.4712,7.488,7.5196,7.6077,7.6149,7.5778,7.4922,7.4386,7.3325,7.1528,7.1008,7.0217,6.9035,6.9482,6.9602,6.9363,7.0021,7.053,7.0889,7.0889,7.0889,0.0,6.5264,6.6439,6.6476,6.7073,6.7392,6.6508,6.6232,0.0,6.4999,6.4816,6.4581,6.3843,6.4249,6.4709,6.4674,6.5256,6.5967,6.6711,6.7489,6.8267,6.9011,6.9147,6.9147,6.9113,6.9113,6.9113,6.9113,6.9147,6.918,6.918,6.9857,7.0285,7.0285,7.0285,7.0285,7.0285,7.0973,7.1289,7.1289,7.1357,7.1751,7.2394,7.2462,7.2834,7.35,7.3635,7.4018,7.4627,7.4705,7.5134,7.5709,7.5709,7.5709,7.5709,7.5709,7.5709,7.5709,7.558,7.4712,7.3354,7.1875,6.949,6.7183,6.7305,6.7244,6.7152,6.7152,6.7244,6.7638,6.8998,6.9375,6.9688,7.1059,7.1469,7.1497,7.131,7.0255,6.9288,6.9085,6.7939,6.703,6.7122,6.7152,6.7668,6.9143,6.9461,7.0033,7.1456,7.2927,7.3843,7.3917,7.5647,7.6864,7.6995,7.6864,7.6815,7.6815,7.4689,7.3391,7.3391,7.1261,6.9752,6.9153,7.029,7.062,7.0083,7.062,7.0889,7.0889,7.0889,7.0889,6.4778,0.0,6.5742,6.6366,6.6604,6.6442,0.0,6.4818,6.4078,6.3184,6.3011,6.314,6.3485,6.3684,6.4149,6.5263,6.5581,6.5967,6.6711,6.7963,6.8876,6.9079,6.9586,6.9722,6.9147,6.9113,6.9113,6.9113,6.962,6.9925,6.9925,7.0635,7.1041,7.1041,7.1041,7.1041,7.1041,7.1188,7.1289,7.1289,7.1887,7.2225,7.2428,7.2969,7.3364,7.3567,7.4695,7.4965,7.4671,7.5879,7.6115,7.5709,7.5709,7.5709,7.5709,7.5709,7.5709,7.5532,7.4456,7.3871,7.3354,7.1875,7.0171,6.8882,7.0029,6.9574,6.8678,6.8678,6.9519,7.0452,7.0783,7.0866,7.0949,7.1338,7.2249,7.2461,7.0196,7.034,7.0227,6.7969,6.7244,6.7366,6.8472,6.8678,6.9172,7.0644,7.1853,7.2873,7.3796,7.5196,7.6353,7.6891,7.6381,7.6481,7.7632,7.6659,7.5978,7.5978,7.3742,7.2439,7.2439,7.1311,7.062,7.047,7.0739,7.0829,7.0679,7.0829,7.0889,7.0889,7.0889,7.0889,6.5147,6.5271,6.5304,6.5755,6.6134,6.6048,6.4717,6.4042,6.3462,6.2562,6.24,6.2618,6.3342,6.3781,6.4512,6.5967,6.6474,6.6981,6.776,6.8267,6.8808,6.9519,6.9654,6.9789,7.0094,6.9789,6.9755,7.0094,7.05,7.0703,7.0703,7.1413,7.1796,7.1796,7.2124,7.2157,7.1819,7.1796,7.1988,7.2326,7.2699,7.3071,7.3409,7.3815,7.4187,7.4525,7.5337,7.5473,7.5168,7.6014,7.6082,7.5709,7.5709,7.5709,7.5604,7.4957,7.4736,7.4539,7.3096,7.2599,7.2467,7.1659,7.0838,7.0368,7.1141,7.1306,7.1086,7.0392,7.0755,7.1551,7.2223,7.2414,7.2573,7.3225,7.3515,7.3147,7.1578,7.0783,6.9916,6.8325,6.8028,6.8266,6.9056,6.9745,7.0826,7.2649,7.3593,7.4614,7.6014,7.6299,7.6776,7.7893,7.6912,7.6819,7.836,7.6776,7.5805,7.6188,7.3958,7.2642,7.2642,7.1515,7.0889,7.0889,7.0889,7.0889,7.0889,7.1218,7.1368,7.1368,7.1667,7.1816,6.5629,6.5568,6.5444,6.5345,6.5739,6.5779,6.4253,6.3701,6.3332,6.2702,6.2566,6.2846,6.373,6.4444,6.5392,6.6745,6.7692,6.8504,6.918,6.8774,6.8842,7.0082,6.9755,6.9891,7.1019,7.0669,7.0635,7.1255,7.1289,7.1357,7.1458,7.2056,7.2462,7.2563,7.3172,7.324,7.2732,7.2631,7.2868,7.35,7.3635,7.3984,7.4603,7.4728,7.51,7.5709,7.5845,7.5811,7.5709,7.5845,7.5811,7.5709,7.5709,7.5709,7.5556,7.4356,7.393,7.3701,7.2255,7.1578,7.1447,7.1659,7.1745,7.1799,7.1982,7.294,7.3668,7.2414,7.2036,7.2329,7.3617,7.393,7.424,7.5412,7.4785,7.3846,7.3643,7.1659,6.9802,6.9574,6.961,6.9758,7.0016,7.1175,7.2773,7.4907,7.5213,7.5921,7.792,7.7042,7.676,7.8182,7.7537,7.7503,7.8825,7.6894,7.5781,7.6234,7.412,7.2922,7.3077,7.1782,7.1098,7.1218,7.1218,7.1218,7.1218,7.1787,7.2056,7.2056,7.2654,7.2924,6.7122,6.7271,6.7053,6.6459,6.5739,6.5131,6.4866,6.3665,6.2759,6.3369,6.3425,6.3789,6.5241,6.6029,6.6724,6.759,6.891,6.9891,6.9992,7.0466,7.0635,7.0251,7.0669,7.0804,7.0398,7.0838,7.1176,7.1289,7.1289,7.156,7.2191,7.2326,7.2699,7.3308,7.3466,7.3747,7.4255,7.3646,7.3398,7.35,7.4119,7.4492,7.4603,7.5236,7.5574,7.5743,7.642,7.6318,7.5743,7.642,7.6318,7.5709,7.5709,7.5709,7.5652,7.546,7.5388,7.5161,7.3744,7.2435,7.1605,7.2861,7.3258,7.3496,7.4687,7.5185,7.5306,7.5112,7.5064,7.5112,7.5306,7.5388,7.5436,7.5662,7.5532,7.5064,7.3846,7.3225,7.254,7.1306,7.1564,7.2389,7.3643,7.4557,7.5653,7.727,7.7502,7.7821,7.8831,7.8724,7.8935,7.9778,7.8569,7.7825,7.8072,7.6571,7.5112,7.3893,7.2206,7.1517,7.2091,7.1891,7.1996,7.2595,7.2595,7.2595,7.2595,7.2714,7.2744,7.2744,7.2864,7.2924,6.7569,6.7675,6.7676,6.7789,6.7418,6.6828,6.5876,6.5262,6.4958,6.4927,6.5114,6.5515,6.6274,6.6956,6.7793,6.8944,6.9722,7.0217,7.0217,7.0161,7.0128,7.0195,7.05,7.0737,7.0804,7.1109,7.1458,7.1853,7.1887,7.2225,7.2935,7.3375,7.3747,7.4086,7.4492,7.4864,7.5202,7.4864,7.4695,7.4695,7.5033,7.5202,7.5202,7.554,7.5709,7.5709,7.6082,7.6048,7.5743,7.6082,7.6014,7.5709,7.5709,7.5709,7.5604,7.4835,7.4048,7.3379,7.354,7.318,7.2835,7.4281,7.4736,7.4868,7.5508,7.5709,7.5709,7.5709,7.5709,7.5709,7.5709,7.5709,7.5709,7.5709,7.5112,7.439,7.3744,7.3286,7.2805,7.2128,7.322,7.4494,7.5161,7.6218,7.7338,7.8443,7.8585,7.8855,7.96,7.8974,7.8919,8.0065,7.8802,7.8238,7.9072,7.6971,7.5068,7.3849,7.2308,7.1727,7.2415,7.2445,7.2595,7.2894,7.2924,7.2924,7.2924,7.3283,7.3432,7.3462,7.3821,7.3971,6.77,6.7847,6.8091,6.8495,6.8553,6.8213,6.7056,6.6953,6.6983,6.6672,6.6833,6.7112,6.7364,6.8078,6.9079,7.0263,7.0601,7.0635,7.0466,6.9958,6.9823,7.0398,7.0601,7.0939,7.1492,7.1695,7.2056,7.2631,7.2665,7.2969,7.3713,7.4289,7.4695,7.4864,7.5405,7.5709,7.5709,7.5709,7.5709,7.5709,7.5709,7.5709,7.5709,7.5709,7.5709,7.5709,7.5709,7.5709,7.5709,7.5709,7.5709,7.5709,7.5709,7.5709,7.5556,7.4481,7.3379,7.2573,7.3701,7.4081,7.4281,7.5364,7.5709,7.5743,7.5912,7.598,7.6014,7.6183,7.6217,7.6183,7.6014,7.598,7.6014,7.6183,7.5428,7.4611,7.4637,7.4202,7.3793,7.3793,7.5319,7.6553,7.6553,7.7632,7.872,7.9295,7.9363,7.9566,8.0141,7.915,7.8881,8.0074,7.9317,7.9109,8.005,7.6981,7.4862,7.4687,7.3064,7.2415,7.3103,7.3133,7.3223,7.3373,7.3373,7.3373,7.3373,7.3881,7.4121,7.4151,7.4663,7.4903,6.77,6.8238,6.8641,6.7958,6.773,6.7863,6.845,6.7816,6.731,6.8134,6.8063,6.809,6.8969,7.02,7.1086,7.1188,7.1819,7.1988,7.1345,7.1176,7.1154,7.1188,7.1819,7.2259,7.2326,7.2935,7.3341,7.3432,7.3432,7.3747,7.4492,7.4593,7.4931,7.5608,7.5676,7.5709,7.5709,7.5709,7.5709,7.5709,7.5709,7.5709,7.5709,7.5709,7.5709,7.5709,7.5709,7.5709,7.5709,7.5709,7.5709,7.5709,7.5709,7.5709,7.5709,7.558,7.5484,7.5412,7.5508,7.5532,7.5556,7.5686,7.5709,7.5845,7.6589,7.6826,7.6961,7.7638,7.7807,7.7696,7.6995,7.6826,7.6995,7.7671,7.7758,7.7684,7.7684,7.7644,7.7603,7.7603,7.8285,7.8841,7.8841,7.9524,8.0073,8.0107,8.0107,8.0141,8.0175,8.0099,8.0074,8.0209,8.0707,8.0744,8.008,7.5745,7.3945,7.5921,7.4031,7.3133,7.3791,7.3821,7.4121,7.4719,7.4783,7.4783,7.4783,7.4813,7.4843,7.4843,7.4903,7.4903,6.77,6.8641,6.9448,6.8546,6.942,7.0269,6.9568,6.9756,7.016,7.0383,7.0202,7.0136,7.0494,7.0946,7.1289,7.1289,7.1526,7.1616,7.1323,7.1695,7.1988,7.1988,7.2631,7.3071,7.3071,7.3364,7.368,7.4153,7.4187,7.4525,7.5236,7.527,7.5405,7.5676,7.5709,7.5709,7.5709,7.5709,7.5709,7.5709,7.5709,7.5709,7.5709,7.5709,7.5709,7.5709,7.5709,7.5709,7.5709,7.5709,7.5709,7.5709,7.5709,7.5709,7.5709,7.5709,7.5709,7.5709,7.5709,7.6014,7.6454,7.6454,7.6758,7.7164,7.7468,7.757,7.7638,7.7908,7.8,7.7933,7.7638,7.757,7.7638,7.7933,7.8,7.8,7.8,7.8348,7.8686,7.8686,7.9295,7.9769,7.9769,8.0006,8.0209,8.0209,8.0581,8.0885,8.0885,8.1291,8.1562,8.1562,8.0921,7.9953,7.8687,7.6338,7.4885,7.4795,7.3981,7.3821,7.448,7.451,7.4663,7.4903,7.4903,7.4903,7.4903,7.4903,7.4903,7.4903,7.4903,7.4903,6.8471,6.9449,7.0315,6.9591,7.0634,7.148,7.0266,7.0944,7.1765,7.1645,7.1435,7.1357,7.1594,7.165,7.156,7.1323,7.1684,7.1921,7.1684,7.2293,7.2732,7.2732,7.3409,7.3849,7.3849,7.4052,7.439,7.4931,7.4965,7.5168,7.5676,7.5709,7.5709,7.5709,7.5709,7.5709,7.5709,7.5709,7.5709,7.5709,7.5709,7.5709,7.5709,7.5709,7.5709,7.5709,7.5709,7.5709,7.5709,7.5709,7.5709,7.5709,7.5709,7.5845,7.6082,7.6082,7.6217,7.642,7.642,7.6792,7.7232,7.7232,7.757,7.8044,7.828,7.8348,7.8382,7.8619,7.8686,7.8686,7.8686,7.8517,7.8416,7.8619,7.8686,7.8686,7.8686,7.9092,7.9464,7.9464,7.987,8.0209,8.0209,8.0378,8.0547,8.0547,8.1156,8.1562,8.1351,8.1934,8.2293,8.2013,8.0525,7.9021,7.7698,7.6488,7.533,7.4278,7.421,7.442,7.4903,7.4903,7.4903,7.4903,7.4903,7.4903,7.4903,7.4903,7.4903,7.4903,7.4903,7.4903,7.0073,7.0669,7.1238,7.1042,7.0998,7.0914,7.048,7.1047,7.1586,7.1621,7.1447,7.1526,7.2259,7.2394,7.2157,7.1424,7.2529,7.324,7.2496,7.3037,7.3534,7.3534,7.4153,7.4603,7.4603,7.527,7.5709,7.5709,7.5709,7.5709,7.5709,7.5709,7.5709,7.5709,7.5709,7.5709,7.5709,7.5709,7.5709,7.5709,7.5709,7.5709,7.5709,7.5709,7.5709,7.5709,7.5709,7.5709,7.5709,7.5709,7.5709,7.5709,7.5709,7.6217,7.6927,7.6927,7.7367,7.8,7.8,7.8,7.8034,7.8034,7.8034,7.8145,7.8889,7.9101,7.9236,8.0006,8.0209,8.0209,8.0209,7.9667,7.927,8.004,8.0209,8.0209,8.0209,8.0209,8.0209,8.0209,8.0209,8.0209,8.0209,8.0818,8.1317,8.1317,8.1934,8.2171,8.1393,8.1968,8.2092,8.1246,7.9636,7.8271,7.7389,7.5863,7.4903,7.4903,7.4903,7.4903,7.4903,7.4903,7.4903,7.4903,7.4903,7.4903,7.4903,7.4903,7.4903,7.4903,7.4903,7.4903,6.8303,6.9197,6.9996,6.9224,7.0669,7.2071,7.1217,7.1734,7.2485,7.2841,7.33,7.3352,7.2563,7.28,7.2935,7.2191,7.2868,7.3432,7.3206,7.3815,7.4289,7.4289,7.4931,7.5371,7.5371,7.5574,7.5709,7.5709,7.5709,7.5709,7.5709,7.5709,7.5709,7.5709,7.5709,7.5709,7.5709,7.5709,7.5709,7.5709,7.5709,7.5709,7.5709,7.5709,7.5709,7.5709,7.5709,7.5709,7.5743,7.6318,7.6555,7.6589,7.7096,7.7435,7.7671,7.7671,7.7807,7.8,7.8,7.8348,7.8788,7.8788,7.9126,7.96,7.9803,7.987,7.9938,8.0141,8.0209,8.0209,8.0209,8.004,7.9938,8.0141,8.0209,8.0209,8.0209,8.0209,8.0344,8.0851,8.0953,8.1122,8.1663,8.1934,8.2069,8.2069,8.2712,8.3287,8.3592,8.3802,8.3845,8.3584,8.2128,8.0566,7.9188,7.7547,7.6133,7.4971,7.4903,7.4903,7.4903,7.4903,7.4903,7.4903,7.4903,7.4903,7.4903,7.4903,7.4903,7.4903,7.4903,7.4903,6.9692,7.0438,7.0904,7.0208,7.1405,7.274,7.2644,7.2811,7.3201,7.3818,7.4052,7.3984,7.3375,7.3409,7.3364,7.2902,7.3443,7.395,7.395,7.4559,7.5033,7.5033,7.5439,7.5709,7.5709,7.5709,7.5709,7.5709,7.5709,7.5709,7.5709,7.5709,7.5709,7.5709,7.5709,7.5709,7.5709,7.5709,7.5709,7.5709,7.6014,7.6183,7.6183,7.5845,7.5879,7.6183,7.6487,7.6589,7.6657,7.713,7.7333,7.7367,7.7807,7.8179,7.845,7.845,7.8619,7.8855,7.8855,7.916,7.9532,7.9532,7.9837,8.0209,8.0209,8.0209,8.0209,8.0209,8.0209,8.0276,8.0547,8.0412,8.0209,8.0209,8.0209,8.0209,8.0209,8.0412,8.075,8.1215,8.1528,8.1866,8.234,8.2644,8.2847,8.2847,8.3219,8.3761,8.4512,8.4343,8.4028,8.3695,8.2198,8.0585,7.8972,7.7288,7.5933,7.4971,7.4903,7.4903,7.4903,7.4903,7.4903,7.4903,7.4903,7.4903,7.4903,7.4903,7.4903,7.4903,7.4903,7.4903,7.2554,7.2888,7.2823,7.2671,7.2762,7.3168,7.442,7.4187,7.3883,7.4559,7.4153,7.3883,7.4492,7.4119,7.3703,7.3635,7.4221,7.4695,7.4695,7.527,7.5709,7.5709,7.5709,7.5709,7.5709,7.5709,7.5709,7.5709,7.5709,7.5709,7.5709,7.5709,7.5709,7.5709,7.5709,7.5709,7.5709,7.5709,7.5743,7.5811,7.6555,7.6927,7.6961,7.6251,7.6318,7.7029,7.7705,7.8,7.8034,7.8044,7.8102,7.8111,7.817,7.8619,7.9194,7.9194,7.9634,8.0209,8.0209,8.0209,8.0209,8.0209,8.0209,8.0209,8.0276,8.0242,8.0209,8.0276,8.031,8.0445,8.1148,8.0851,8.0412,8.0412,8.0344,8.031,8.031,8.0885,8.1418,8.1418,8.2002,8.2543,8.2611,8.3152,8.3592,8.3592,8.3592,8.3862,8.4512,8.4031,8.3289,8.2505,8.1121,7.9556,7.7869,7.6268,7.5282,7.5112,7.4971,7.4903,7.4903,7.4903,7.4903,7.4903,7.4903,7.4903,7.4903,7.4903,7.4903,7.4903,7.4903,7.4903,6.9546,7.0144,7.0939,7.1484,7.2926,7.4398,7.5249,7.5337,7.527,7.5439,7.5337,7.51,7.4695,7.4931,7.5033,7.4458,7.4999,7.5473,7.5473,7.5608,7.5709,7.5709,7.5709,7.5709,7.5709,7.5709,7.5709,7.5709,7.5709,7.5709,7.5709,7.5709,7.5709,7.5709,7.5709,7.5709,7.5709,7.5709,7.6014,7.6657,7.6826,7.7198,7.7739,7.757,7.7604,7.7773,7.7933,7.8,7.8044,7.8619,7.8855,7.8923,7.9498,7.9803,7.9972,7.9972,8.0073,8.0209,8.0209,8.0209,8.0209,8.0209,8.0209,8.031,8.0885,8.0648,8.031,8.0885,8.108,8.1114,8.1283,8.1596,8.1934,8.1934,8.1494,8.108,8.108,8.1629,8.2171,8.2171,8.278,8.3456,8.4039,8.4242,8.4343,8.4343,8.4343,8.4411,8.458,8.4444,8.4304,8.4083,8.3784,8.2909,8.1297,7.9649,7.8155,7.6865,7.5594,7.4903,7.4903,7.4903,7.4903,7.4903,7.4903,7.4903,7.4903,7.4903,7.4903,7.4903,7.4903,7.4903,6.9241,7.0085,7.1075,7.2507,7.3724,7.4897,7.6014,7.598,7.5811,7.6183,7.598,7.5574,7.5202,7.5439,7.5574,7.5202,7.5439,7.5709,7.5709,7.5709,7.5709,7.5709,7.5709,7.5709,7.5709,7.5709,7.5709,7.5709,7.5709,7.5709,7.5709,7.5709,7.5709,7.5709,7.5709,7.5879,7.6284,7.6284,7.6657,7.7435,7.7773,7.8348,7.9025,7.8686,7.8517,7.8551,7.8889,7.9025,7.9058,7.9464,7.9634,7.9667,8.004,8.0209,8.0209,8.0209,8.0209,8.0209,8.0209,8.0209,8.0242,8.0615,8.0716,8.0851,8.1596,8.1562,8.1325,8.1731,8.1832,8.19,8.2238,8.2374,8.2584,8.3261,8.2644,8.1832,8.1832,8.2408,8.2949,8.2949,8.3524,8.4167,8.4512,8.4614,8.4614,8.4614,8.4614,8.4614,8.4614,8.4614,8.4614,8.4614,8.3893,8.311,8.2288,7.9984,7.825,7.7354,7.5796,7.4903,7.4903,7.4903,7.4903,7.4903,7.4903,7.4903,7.4903,7.4903,7.4903,7.4903,7.4903,7.4903,6.9456,7.0741,7.1966,7.4062,7.4796,7.5371,7.6758,7.6487,7.6115,7.6927,7.6352,7.5709,7.5709,7.5709,7.5709,7.5709,7.5709,7.5709,7.5709,7.5709,7.5709,7.5709,7.5709,7.5709,7.5709,7.5709,7.5709,7.5709,7.5709,7.5709,7.5709,7.5709,7.5743,7.5912,7.5912,7.6284,7.7063,7.7096,7.7468,7.8179,7.8957,7.9634,8.0175,7.9566,7.9295,7.9329,7.9938,8.0209,8.0209,8.0209,8.0209,8.0209,8.0209,8.0209,8.0209,8.0209,8.0276,8.0378,8.0378,8.0479,8.0682,8.1291,8.1494,8.1629,8.2374,8.2509,8.2441,8.2543,8.2611,8.2746,8.3321,8.3152,8.3092,8.4309,8.3667,8.2746,8.2644,8.3186,8.3659,8.3524,8.4099,8.4614,8.4614,8.4614,8.4614,8.4614,8.4614,8.4614,8.4614,8.4614,8.4614,8.4614,8.3421,8.26,8.26,7.9861,7.8028,7.774,7.6202,7.518,7.4903,7.4903,7.4903,7.4903,7.4903,7.4903,7.4903,7.4903,7.4903,7.4903,7.4903,7.4903,6.7384,6.9801,7.2631,7.4221,7.5608,7.6826,7.7638,7.7266,7.6961,7.7705,7.669,7.5709,7.5709,7.5709,7.5709,7.5709,7.5709,7.5709,7.5709,7.5709,7.5709,7.5709,7.5709,7.5709,7.5709,7.5709,7.5709,7.5709,7.5709,7.5709,7.5709,7.5709,7.6014,7.6724,7.6758,7.7096,7.7841,7.7841,7.8213,7.8957,7.9701,8.0107,8.0209,8.0107,8.004,8.0073,8.0175,8.0209,8.0209,8.0209,8.0209,8.0209,8.0209,8.0209,8.0209,8.0209,8.0581,8.1148,8.1148,8.1562,8.2137,8.2238,8.2272,8.2408,8.3118,8.2915,8.2543,8.3186,8.3355,8.3389,8.3456,8.3896,8.4343,8.4546,8.4444,8.4106,8.349,8.393,8.4242,8.3625,8.4099,8.4614,8.4614,8.4614,8.4614,8.4614,8.4614,8.4614,8.4614,8.4614,8.4614,8.4614,8.4419,8.4251,8.4251,8.26,8.0944,7.9559,7.79,7.6368,7.4971,7.4903,7.4903,7.4903,7.4903,7.4903,7.4903,7.4903,7.4903,7.4903,7.4903,7.4903,6.809,7.0546,7.2834,7.4728,7.6082,7.6995,7.7299,7.713,7.6995,7.7299,7.6487,7.5709,7.5709,7.5709,7.5709,7.5709,7.5709,7.5709,7.5709,7.5709,7.5709,7.5709,7.5709,7.5709,7.5709,7.5709,7.5709,7.5709,7.5709,7.5879,7.6352,7.6352,7.6724,7.7468,7.7502,7.7874,7.8619,7.8619,7.8991,7.9735,8.004,8.0209,8.0209,8.0209,8.0209,8.0209,8.0209,8.0209,8.0209,8.0209,8.0209,8.0209,8.0209,8.0445,8.0818,8.0818,8.1257,8.19,8.19,8.2137,8.2475,8.2881,8.3016,8.3152,8.3896,8.387,8.37,8.4031,8.4133,8.4133,8.4133,8.4343,8.4614,8.4614,8.4614,8.4512,8.4174,8.4377,8.4512,8.42,8.4377,8.4614,8.4614,8.4614,8.4614,8.4614,8.4614,8.4614,8.4614,8.4614,8.4614,8.4614,8.4614,8.4614,8.4614,8.2283,8.0525,7.9832,7.7385,7.5628,7.4937,7.4903,7.4903,7.4903,7.4903,7.4903,7.4903,7.4903,7.4903,7.4903,7.4903,7.4903,6.8267,7.0432,7.2124,7.4525,7.6014,7.6893,7.6893,7.7063,7.713,7.6927,7.6251,7.5709,7.5709,7.5709,7.5709,7.5709,7.5709,7.5709,7.5709,7.5709,7.5709,7.5709,7.5709,7.5709,7.5709,7.5709,7.5709,7.5709,7.5709,7.6048,7.686,7.6893,7.7333,7.8247,7.828,7.8619,7.9397,7.9397,7.9667,8.0209,8.0209,8.0209,8.0209,8.0209,8.0209,8.0209,8.0209,8.0209,8.0209,8.0412,8.0479,8.0479,8.0682,8.1088,8.1562,8.1562,8.2035,8.2678,8.2678,8.2813,8.3024,8.3592,8.3795,8.3896,8.4411,8.4614,8.4614,8.4614,8.4614,8.4614,8.4614,8.4614,8.4614,8.4614,8.4614,8.4614,8.4614,8.4614,8.4614,8.4614,8.4614,8.4614,8.4614,8.4614,8.4614,8.4614,8.4614,8.4614,8.4614,8.4614,8.4614,8.4614,8.4614,8.4614,8.4614,8.2397,8.0674,7.9832,7.7515,7.5933,7.5523,7.5112,7.5078,7.5523,7.5112,7.4903,7.4903,7.4903,7.4903,7.4903,7.4903,7.4903,6.6318,6.8098,6.9958,7.2891,7.527,7.6893,7.6893,7.7435,7.7739,7.7029,7.6251,7.5709,7.5709,7.5709,7.5709,7.5709,7.5709,7.5709,7.5709,7.5709,7.5709,7.5709,7.5709,7.5709,7.5709,7.5709,7.5709,7.5709,7.5709,7.6048,7.686,7.6893,7.757,7.9,7.9058,7.9397,8.0141,8.0141,8.0175,8.0209,8.0209,8.0209,8.0209,8.0209,8.0209,8.0209,8.0209,8.0209,8.0242,8.0953,8.1249,8.1317,8.2002,8.2306,8.234,8.234,8.2813,8.3422,8.3422,8.3896,8.4478,8.4512,8.4546,8.4546,8.458,8.4614,8.4614,8.4614,8.4614,8.4614,8.4614,8.4614,8.4614,8.4614,8.4614,8.4614,8.4614,8.4614,8.4614,8.4614,8.4614,8.4614,8.4614,8.4614,8.4614,8.4614,8.4614,8.4614,8.4614,8.4614,8.4614,8.4614,8.4614,8.4614,8.4614,8.4446,8.3054,7.9986,7.9619,7.8847,7.7225,7.5695,7.5594,7.7159,7.5661,7.4903,7.4903,7.4903,7.4903,7.4903,7.4903,7.4903,6.6318,6.7929,6.9688,7.2157,7.4119,7.554,7.6014,7.6724,7.7198,7.6961,7.6251,7.5709,7.5709,7.5709,7.5709,7.5709,7.5709,7.5709,7.5709,7.5709,7.5709,7.5709,7.5709,7.5709,7.5709,7.5709,7.5709,7.5709,7.6183,7.6792,7.757,7.8044,7.8788,7.9769,7.9803,7.9938,8.0209,8.0209,8.0209,8.0209,8.0209,8.0209,8.0209,8.0682,8.0885,8.0919,8.1393,8.1325,8.0953,8.1697,8.2002,8.2035,8.2306,8.2712,8.3118,8.3118,8.3592,8.4208,8.4208,8.4377,8.4614,8.4614,8.4614,8.4614,8.4614,8.4614,8.4614,8.4614,8.4614,8.4614,8.4614,8.4614,8.4614,8.4614,8.4614,8.4614,8.4614,8.4614,8.4614,8.4614,8.4614,8.4614,8.4614,8.4614,8.4614,8.4614,8.4614,8.4614,8.4614,8.4614,8.4614,8.4614,8.4614,8.4614,8.4614,8.3674,8.2572,8.1417,8.0376,7.9527,7.894,7.8345,7.7836,7.729,7.6733,7.5933,7.4903,7.4903,7.4903,7.4903,7.4903,7.5108,6.573,6.7184,6.8876,7.1109,7.2597,7.3883,7.5371,7.6115,7.6555,7.6826,7.6454,7.6014,7.5743,7.5709,7.5709,7.5709,7.5709,7.5709,7.5709,7.5709,7.5709,7.5709,7.5709,7.5709,7.5709,7.5946,7.6082,7.6082,7.6826,7.7604,7.8314,7.8822,7.9431,8.0175,8.0209,8.0209,8.0209,8.0209,8.0209,8.0209,8.0209,8.031,8.0581,8.108,8.1426,8.1697,8.2441,8.234,8.1731,8.2475,8.278,8.2813,8.305,8.3456,8.3862,8.3862,8.42,8.4614,8.4614,8.4614,8.4614,8.4614,8.4614,8.4614,8.4614,8.4614,8.4614,8.4614,8.4614,8.4614,8.4614,8.4614,8.4614,8.4614,8.4614,8.4614,8.4614,8.4614,8.4614,8.4614,8.4614,8.4614,8.4614,8.4614,8.4614,8.4614,8.4614,8.4614,8.4614,8.4614,8.4614,8.4614,8.4614,8.4614,8.4614,8.3647,8.2802,8.2226,8.1209,8.0615,8.0615,7.9527,7.869,7.8155,7.7061,7.5966,7.4903,7.4903,7.5023,7.5228,7.5228,7.5587,0.0,0.0,0.0,6.9553,7.0703,7.1999,7.4931,7.5574,7.5811,7.669,7.6826,7.6589,7.5879,7.5709,7.5709,7.5743,7.5709,7.5709,7.5709,7.5709,7.5709,7.5709,7.5709,7.5709,7.5709,7.642,7.6893,7.6893,7.7604,7.8348,7.9034,7.9101,7.9464,8.0175,8.0209,8.0209,8.0209,8.0209,8.0209,8.0209,8.0209,8.0615,8.1317,8.1351,8.1765,8.2475,8.3219,8.3118,8.2543,8.3253,8.3524,8.3592,8.4309,8.4614,8.4614,8.4614,8.4614,8.4614,8.4614,8.4614,8.4614,8.4614,8.4614,8.4614,8.4614,8.4614,8.4614,8.4614,8.4614,8.4614,8.4614,8.4614,8.4614,8.4614,8.4614,8.4614,8.4614,8.4614,8.4614,8.4614,8.4614,8.4614,8.4614,8.4614,8.4614,8.4614,8.4614,8.4614,8.4614,8.4614,8.4614,8.4614,8.4614,8.4614,8.4614,8.4614,8.392,8.2373,8.2288,8.2288,8.2288,7.9187,7.825,7.9862,7.6698,7.504,7.4971,7.4933,7.5258,7.5916,7.5946,7.6275,6.5189,0.0,0.0,0.0,0.0,0.0,7.2766,7.2902,7.3206,7.554,7.5168,7.4864,7.6318,7.6082,7.5879,7.6454,7.6082,7.5709,7.5709,7.5709,7.5709,7.5709,7.5709,7.5709,7.5709,7.642,7.6893,7.6893,7.8077,7.8889,7.9092,7.9634,8.0006,8.0175,8.0209,8.0209,8.0209,8.0209,8.0209,8.0209,8.0716,8.1114,8.1351,8.2374,8.2983,8.3253,8.3998,8.4174,8.4005,8.4208,8.4275,8.4309,8.4512,8.4614,8.4614,8.4614,8.4614,8.4614,8.4614,8.4614,8.4614,8.4614,8.4614,8.4614,8.4614,8.4614,8.4614,8.4614,8.4614,8.4614,8.4614,8.4614,8.4614,8.4614,8.4614,8.4614,8.4614,8.4614,8.4614,8.4614,8.4614,8.4614,8.4614,8.4614,8.4614,8.4614,8.4614,8.4614,8.4614,8.4614,8.4614,8.4614,8.4614,8.4614,8.4614,8.4614,8.4419,8.3947,8.3953,8.3953,8.3953,8.3082,8.2255,8.1531,7.9496,7.7836,7.6634,7.5968,7.5707,7.5916,7.6844,7.7382,6.5561,6.6237,6.696,6.7726,0.0,0.0,7.2529,7.2766,7.3138,7.6454,7.642,7.6149,7.7164,7.6961,7.6792,7.7266,7.6961,7.642,7.5777,7.5709,7.5709,7.5709,7.5709,7.5709,7.5709,7.669,7.7367,7.7367,7.872,7.9566,7.9566,7.9972,8.0209,8.0209,8.0209,8.0209,8.0209,8.0209,8.0344,8.0648,8.1088,8.1621,8.2238,8.3118,8.3659,8.3998,8.4411,8.4614,8.4614,8.4614,8.4614,8.4614,8.4614,8.4614,8.4614,8.4614,8.4614,8.4614,8.4614,8.4614,8.4614,8.4614,8.4614,8.4614,8.4614,8.4614,8.4614,8.4614,8.4614,8.4614,8.4614,8.4614,8.4614,8.4614,8.4614,8.4614,8.4614,8.4614,8.4614,8.4614,8.4614,8.4614,8.4614,8.4614,8.4614,8.4614,8.4614,8.4614,8.4614,8.4614,8.4614,8.4614,8.4614,8.4614,8.4614,8.4614,8.4614,8.4614,8.4614,8.4614,8.4614,8.3981,8.3138,8.223,7.9954,7.8564,7.819,7.663,7.6185,7.6724,7.7741,7.822,6.5831,6.6373,6.7083,6.7624,6.7421,0.0,7.2811,7.3341,7.3883,7.7502,7.8154,7.801,7.7671,7.7561,7.7527,7.7604,7.7671,7.7324,7.6014,7.5845,7.5811,7.5709,7.5709,7.5709,7.5709,7.7029,7.7933,7.7976,7.9363,8.0209,8.0209,8.0209,8.0209,8.0209,8.0209,8.0209,8.0209,8.0209,8.0547,8.1317,8.1384,8.2137,8.349,8.3592,8.3998,8.4614,8.4614,8.4614,8.4614,8.4614,8.4614,8.4614,8.4614,8.4614,8.4614,8.4614,8.4614,8.4614,8.4614,8.4614,8.4614,8.4614,8.4614,8.4614,8.4614,8.4614,8.4614,8.4614,8.4614,8.4614,8.4614,8.4614,8.4614,8.4614,8.4614,8.4614,8.4614,8.4614,8.4614,8.4614,8.4614,8.4614,8.4614,8.4614,8.4614,8.4614,8.4614,8.4614,8.4614,8.4614,8.4614,8.4614,8.4614,8.4614,8.4614,8.4614,8.4614,8.4614,8.4614,8.4614,8.4614,8.3254,8.2458,8.2458,7.9313,7.8359,7.9666,7.7487,7.7114,7.8529,7.8919,7.9082,6.6745,6.7117,0.0,0.0,0.0,0.0,6.9113,6.9113,6.9722,7.227,7.236,7.2631,7.4864,7.4762,7.4559,7.5168,7.5743,7.6284,7.6623,7.6657,7.642,7.5777,7.5709,7.5709,7.5709,7.6555,7.7367,7.7967,7.9363,8.0209,8.0209,8.0209,8.0209,8.0209,8.0209,8.0209,8.0209,8.0209,8.0547,8.1317,8.19,8.2644,8.3524,8.4133,8.4444,8.4614,8.4614,8.4614,8.4614,8.4614,8.4614,8.4614,8.4614,8.4614,8.4614,8.4614,8.4614,8.4614,8.4614,8.4614,8.4614,8.4614,8.4614,8.4614,8.4614,8.4614,8.4614,8.4614,8.4614,8.4614,8.4614,8.4614,8.4614,8.4614,8.4614,8.4614,8.4614,8.4614,8.4614,8.4614,8.4614,8.4614,8.4614,8.4614,8.4614,8.4614,8.4614,8.4614,8.4614,8.4614,8.4614,8.4614,8.4614,8.4614,8.4614,8.4614,8.4614,8.4614,8.4614,8.4614,8.4614,8.4312,8.4143,8.4143,8.1434,8.049,8.1411,8.0137,8.0657,8.2766,8.1486,8.0894,0.0,0.0,0.0,6.7963,0.0,0.0,0.0,6.9316,6.9789,7.2428,7.236,7.2394,7.4255,7.4289,7.4289,7.5033,7.6082,7.6724,7.6352,7.6961,7.7164,7.6386,7.6623,7.6521,7.5777,7.6758,7.7739,7.8483,7.9566,8.0209,8.0209,8.0209,8.0209,8.0209,8.0209,8.0209,8.0209,8.0547,8.1122,8.1866,8.2611,8.3355,8.4065,8.4411,8.4614,8.4614,8.4614,8.4614,8.4614,8.4614,8.4614,8.4614,8.4614,8.4614,8.4614,8.4614,8.4614,8.4614,8.4614,8.4614,8.4614,8.4614,8.4614,8.4614,8.4614,8.4614,8.4614,8.4614,8.4614,8.4614,8.4614,8.4614,8.4614,8.4614,8.4614,8.4614,8.4614,8.4614,8.4614,8.4614,8.4614,8.4614,8.4614,8.4614,8.4614,8.4614,8.4614,8.4614,8.4614,8.4614,8.4614,8.4614,8.4614,8.4614,8.4614,8.4614,8.4614,8.4614,8.4614,8.4614,8.4614,8.4614,8.4224,8.3421,8.2812,8.2694,8.3175,8.3348,8.3643,8.3995,8.3087,8.2692,0.0,0.0,0.0,0.0,0.0,6.8707,0.0,0.0,0.0,7.3037,7.3071,7.2902,7.3815,7.3849,7.395,7.4525,7.5912,7.642,7.5067,7.6284,7.7096,7.6521,7.7367,7.7459,7.6082,7.7164,7.8247,7.8855,7.9566,8.004,8.0175,8.0209,8.0209,8.0209,8.0209,8.0209,8.0209,8.0919,8.1663,8.2408,8.3152,8.3896,8.4614,8.4614,8.4614,8.4614,8.4614,8.4614,8.4614,8.4614,8.4614,8.4614,8.4614,8.4614,8.4614,8.4614,8.4614,8.4614,8.4614,8.4614,8.4614,8.4614,8.4614,8.4614,8.4614,8.4614,8.4614,8.4614,8.4614,8.4614,8.4614,8.4614,8.4614,8.4614,8.4614,8.4614,8.4614,8.4614,8.4614,8.4614,8.4614,8.4614,8.4614,8.4614,8.4614,8.4614,8.4614,8.4614,8.4614,8.4614,8.4614,8.4614,8.4614,8.4614,8.4614,8.4614,8.4614,8.4614,8.4614,8.4614,8.4614,8.4614,8.4008,8.2684,8.373,8.4485,8.4867,8.5967,8.5966,8.4977,8.4663,8.4505,0.0,0.0,0.0,0.0,6.8977,0.0,0.0,0.0,6.847,6.9519,0.0,7.0026,7.1447,0.0,0.0,7.0804,7.2056,7.2732,7.1898,7.3646,7.4965,7.4864,7.6724,7.7671,7.6826,7.7502,7.8034,7.8111,7.8822,7.9532,8.0175,8.0209,8.0209,8.0209,8.0209,8.0209,8.0209,8.0919,8.1663,8.2408,8.3152,8.3896,8.4614,8.4614,8.4614,8.4614,8.4614,8.4614,8.4614,8.4614,8.4614,8.4614,8.4614,8.4614,8.4614,8.4614,8.4614,8.4614,8.4614,8.4614,8.4614,8.4614,8.4614,8.4614,8.4614,8.4614,8.4614,8.4614,8.4614,8.4614,8.4614,8.4614,8.4614,8.4614,8.4614,8.4614,8.4614,8.4614,8.4614,8.4614,8.4614,8.4614,8.4614,8.4614,8.4614,8.4614,8.4614,8.4614,8.4614,8.4614,8.4614,8.4614,8.4614,8.4614,8.4614,8.4614,8.4614,8.4614,8.4614,8.4614,8.4614,8.4614,8.45,8.4339,8.4309,8.5044,8.6626,8.6534,8.7202,8.8467,8.6935,8.6209,0.0,0.0,0.0,0.0,0.0,0.0,6.7963,0.0,6.8132,0.0,0.0,0.0,0.0,0.0,0.0,0.0,7.1075,0.0,7.077,7.2563,7.395,7.395,7.5168,7.6251,7.6826,7.7164,7.7705,7.8585,7.8923,7.9431,8.0175,8.0615,8.0648,8.0209,8.0209,8.0209,8.0209,8.0919,8.1663,8.2408,8.3152,8.3896,8.4614,8.4614,8.4614,8.4614,8.4614,8.4614,8.4614,8.4614,8.4614,8.4614,8.4614,8.4614,8.4614,8.4614,8.4614,8.4614,8.4614,8.4614,8.4614,8.4614,8.4614,8.4614,8.4614,8.4614,8.4614,8.4614,8.4614,8.4614,8.4614,8.4614,8.4614,8.4614,8.4614,8.4614,8.4614,8.4614,8.4614,8.4614,8.4614,8.4614,8.4614,8.4614,8.4614,8.4614,8.4614,8.4614,8.4614,8.4614,8.4614,8.4614,8.4614,8.4614,8.4614,8.4614,8.4614,8.4614,8.4614,8.4614,8.4614,8.4614,8.4614,8.4614,8.5397,8.617,8.6907,8.7647,8.8381,8.9072,8.8353,8.7998,7.1639,0.0,0.0,0.0,0.0,0.0,0.0,0.0,0.0,0.0,0.0,0.0,0.0,0.0,0.0,0.0,0.0,7.0364,0.0,7.0804,0.0,0.0,7.3916,7.5067,7.6149,7.6284,7.6893,7.8382,7.8517,7.9092,8.0412,8.0818,8.0851,8.0513,8.031,8.0209,8.0209,8.0919,8.1663,8.2408,8.3152,8.3896,8.4614,8.4614,8.4614,8.4614,8.4614,8.4614,8.4614,8.4614,8.4614,8.4614,8.4614,8.4614,8.4614,8.4614,8.4614,8.4614,8.4614,8.4614,8.4614,8.4614,8.4614,8.4614,8.4614,8.4614,8.4614,8.4614,8.4614,8.4614,8.4614,8.4614,8.4614,8.4614,8.4614,8.4614,8.4614,8.4614,8.4614,8.4614,8.4614,8.4614,8.4614,8.4614,8.4614,8.4614,8.4614,8.4614,8.4614,8.4614,8.4614,8.4614,8.4614,8.4614,8.4614,8.4614,8.4614,8.4614,8.4614,8.4614,8.4614,8.4614,8.4681,8.4918,8.623,8.7008,8.7211,8.8463,8.91,8.91,8.91,8.91,7.421,7.3432,7.2789,6.9857,0.0,0.0,0.0,0.0,6.9282,0.0,0.0,0.0,0.0,0.0,0.0,0.0,0.0,0.0,0.0,0.0,0.0,0.0,0.0,0.0,7.4671,7.4671,7.5303,7.686,7.6961,7.8213,8.1114,8.0615,8.0547,8.1249,8.0547,8.0209,8.0209,8.0919,8.1663,8.2408,8.3152,8.3896,8.4614,8.4614,8.4614,8.4614,8.4614,8.4614,8.4614,8.4614,8.4614,8.4614,8.4614,8.4614,8.4614,8.4614,8.4614,8.4614,8.4614,8.4614,8.4614,8.4614,8.4614,8.4614,8.4614,8.4614,8.4614,8.4614,8.4614,8.4614,8.4614,8.4614,8.4614,8.4614,8.4614,8.4614,8.4614,8.4614,8.4614,8.4614,8.4614,8.4614,8.4614,8.4614,8.4614,8.4614,8.4614,8.4614,8.4614,8.4614,8.4614,8.4614,8.4614,8.4614,8.4614,8.4614,8.4614,8.4614,8.4614,8.4614,8.4614,8.4614,8.4979,8.575,8.6501,8.7245,8.7955,8.8734,8.91,8.91,8.91,8.91,7.5236,7.5676,7.5666,7.2157,7.165,7.1548,0.0,0.0,0.0,0.0,0.0,0.0,0.0,0.0,0.0,0.0,0.0,0.0,0.0,0.0,0.0,0.0,0.0,0.0,0.0,0.0,7.6758,7.8247,7.8822,7.9735,8.1215,8.1528,8.1325,8.0581,8.0784,8.0682,8.0209,8.0919,8.1663,8.2408,8.3152,8.3896,8.4614,8.4614,8.4614,8.4614,8.4614,8.4614,8.4614,8.4614,8.4614,8.4614,8.4614,8.4614,8.4614,8.4614,8.4614,8.4614,8.4614,8.4614,8.4614,8.4614,8.4614,8.4614,8.4614,8.4614,8.4614,8.4614,8.4614,8.4614,8.4614,8.4614,8.4614,8.4614,8.4614,8.4614,8.4614,8.4614,8.4749,8.5283,8.4979,8.4749,8.5317,8.5384,8.5215,8.4681,8.4614,8.4614,8.4614,8.4614,8.4614,8.4614,8.4614,8.4614,8.4614,8.4614,8.4614,8.4614,8.4614,8.4614,8.4614,8.4614,8.4979,8.5784,8.6535,8.7279,8.7989,8.8761,8.91,8.91,8.91,8.91,7.6284,7.7029,7.7198,7.3984,7.3544,7.3375,7.1413,0.0,7.1785,0.0,0.0,0.0,0.0,0.0,0.0,0.0,0.0,0.0,0.0,0.0,0.0,0.0,0.0,0.0,0.0,0.0,0.0,7.9261,7.9194,0.0,8.1596,8.19,8.1562,8.0615,8.0784,8.0682,8.0209,8.0919,8.1663,8.2408,8.3152,8.3896,8.4614,8.4614,8.4614,8.4614,8.4614,8.4614,8.4614,8.4614,8.4614,8.4614,8.4614,8.4614,8.4614,8.4614,8.4614,8.4614,8.4614,8.4614,8.4614,8.4614,8.4614,8.4614,8.4614,8.4614,8.4614,8.4614,8.4614,8.4614,8.4614,8.4614,8.4614,8.4614,8.4614,8.4614,8.4614,8.4614,8.4817,8.5621,8.5384,8.5283,8.6061,8.6196,8.5824,8.4749,8.4817,8.4918,8.4647,8.4614,8.4614,8.4614,8.4614,8.4614,8.4614,8.4614,8.4614,8.4614,8.4614,8.4614,8.4614,8.4614,8.4979,8.5784,8.6535,8.7279,8.7989,8.8761,8.91,8.91,8.91,8.91]}]]